[[{"header":{"parameterUnit":"m.s-1","parameterCategory":1,"la1":30.6,"la2":29.2853,"lo1":-89.7004,"lo2":-87.6739,"dy":0.0162,"dx":0.0183,"nx":112,"ny":82,"refTime":"2024-03-24T06:00:00:Z","depth":0,"parameterNumber":2,"parameterNumberName":"U-component_of_WINDS"},"data":[0.0,0.0,0.0,0.0,0.0,0.0,0.0,0.0,0.0,0.0,0.0,0.0,0.0,0.0,0.0,0.0,0.0,0.0,0.0,0.0,0.0,0.0,0.0,0.0,0.0,0.0,0.0,0.0,0.0,0.0,0.0,0.0,0.0,0.0,0.0,0.0,0.0,0.0,0.0,0.0,0.0,0.0,0.0,0.0,0.0,0.0,0.0,0.0,0.0,0.0,0.0,0.0,0.0,0.0,0.0,0.0,0.0,0.0,0.0,0.0,0.0,0.0,0.0,0.0,0.0,0.0,0.0,0.0,0.0,0.0,0.0,0.0,0.0,0.0,0.0,0.0,0.0,0.0,0.0,0.0,0.0,0.0,0.0,0.0,0.0,0.0,0.0,0.0,0.0,0.0,7.0898,7.0898,7.0898,7.0898,7.0898,7.0898,7.0898,7.0898,0.0,0.0,0.0,0.0,0.0,0.0,0.0,0.0,0.0,0.0,0.0,0.0,0.0,0.0,0.0,0.0,0.0,0.0,0.0,0.0,0.0,0.0,0.0,0.0,0.0,0.0,0.0,0.0,0.0,0.0,0.0,0.0,0.0,0.0,0.0,0.0,0.0,0.0,0.0,0.0,0.0,0.0,0.0,0.0,0.0,0.0,0.0,0.0,0.0,0.0,0.0,0.0,0.0,0.0,0.0,0.0,0.0,0.0,0.0,0.0,0.0,0.0,0.0,0.0,0.0,0.0,0.0,0.0,0.0,0.0,0.0,0.0,0.0,0.0,0.0,0.0,0.0,0.0,0.0,0.0,0.0,0.0,0.0,0.0,0.0,0.0,0.0,0.0,0.0,0.0,0.0,0.0,0.0,0.0,0.0,0.0,0.0,0.0,0.0,0.0,0.0,0.0,0.0,0.0,7.0898,7.0898,7.0898,7.0898,7.0898,7.0898,7.0898,7.0898,0.0,0.0,0.0,0.0,0.0,0.0,0.0,0.0,0.0,0.0,0.0,0.0,0.0,0.0,0.0,0.0,0.0,0.0,0.0,0.0,0.0,0.0,0.0,0.0,0.0,0.0,0.0,0.0,0.0,0.0,0.0,0.0,0.0,0.0,0.0,0.0,0.0,0.0,0.0,0.0,0.0,0.0,0.0,0.0,0.0,0.0,0.0,0.0,0.0,0.0,0.0,0.0,0.0,0.0,0.0,0.0,0.0,0.0,0.0,0.0,0.0,0.0,0.0,0.0,0.0,0.0,0.0,0.0,0.0,0.0,0.0,0.0,0.0,0.0,0.0,0.0,0.0,0.0,0.0,0.0,0.0,0.0,0.0,0.0,0.0,0.0,0.0,0.0,0.0,0.0,0.0,0.0,0.0,0.0,0.0,0.0,0.0,0.0,0.0,0.0,0.0,0.0,0.0,7.0898,7.0898,7.0898,7.0898,7.0898,7.0898,7.0898,7.0898,7.0898,7.0898,0.0,0.0,0.0,0.0,0.0,0.0,0.0,0.0,0.0,0.0,0.0,0.0,0.0,0.0,0.0,0.0,0.0,0.0,0.0,0.0,0.0,0.0,0.0,0.0,0.0,0.0,0.0,0.0,0.0,0.0,0.0,0.0,0.0,0.0,0.0,0.0,0.0,0.0,0.0,0.0,0.0,0.0,0.0,0.0,0.0,0.0,0.0,0.0,0.0,0.0,0.0,0.0,0.0,0.0,0.0,0.0,0.0,0.0,0.0,0.0,0.0,0.0,0.0,0.0,0.0,0.0,0.0,0.0,0.0,0.0,0.0,0.0,0.0,0.0,0.0,0.0,0.0,0.0,0.0,0.0,0.0,0.0,0.0,0.0,0.0,0.0,0.0,0.0,0.0,0.0,0.0,0.0,0.0,0.0,0.0,0.0,0.0,0.0,0.0,0.0,0.0,0.0,7.0783,7.0898,7.0898,7.0898,7.0898,7.0898,7.0898,7.0898,7.0898,7.0898,0.0,0.0,0.0,0.0,0.0,0.0,0.0,0.0,0.0,0.0,0.0,0.0,0.0,0.0,0.0,0.0,0.0,0.0,0.0,0.0,0.0,0.0,0.0,0.0,0.0,0.0,0.0,0.0,0.0,0.0,0.0,0.0,0.0,0.0,0.0,0.0,0.0,0.0,0.0,0.0,0.0,0.0,0.0,0.0,0.0,0.0,0.0,0.0,0.0,0.0,0.0,0.0,0.0,0.0,0.0,0.0,0.0,0.0,0.0,0.0,0.0,0.0,0.0,0.0,0.0,0.0,0.0,0.0,0.0,0.0,0.0,0.0,0.0,0.0,0.0,0.0,0.0,0.0,0.0,0.0,0.0,0.0,0.0,0.0,0.0,0.0,0.0,0.0,0.0,0.0,0.0,0.0,0.0,0.0,0.0,0.0,0.0,0.0,0.0,0.0,0.0,0.0,7.0437,7.0898,7.0898,7.0898,7.0898,7.0898,7.0898,7.0898,7.0898,7.0898,0.0,0.0,0.0,0.0,0.0,0.0,0.0,0.0,0.0,0.0,0.0,0.0,0.0,0.0,0.0,0.0,0.0,0.0,0.0,0.0,0.0,0.0,0.0,0.0,0.0,0.0,0.0,0.0,0.0,0.0,0.0,0.0,0.0,0.0,0.0,0.0,0.0,0.0,0.0,0.0,0.0,0.0,0.0,0.0,0.0,0.0,0.0,0.0,0.0,0.0,0.0,0.0,0.0,0.0,0.0,0.0,0.0,0.0,0.0,0.0,0.0,0.0,0.0,0.0,0.0,0.0,0.0,0.0,0.0,0.0,0.0,0.0,0.0,0.0,0.0,0.0,0.0,0.0,0.0,0.0,0.0,0.0,0.0,0.0,0.0,0.0,0.0,0.0,0.0,0.0,0.0,0.0,0.0,0.0,0.0,0.0,0.0,0.0,0.0,0.0,0.0,0.0,7.0398,7.0898,7.0898,7.0898,7.0898,7.0898,7.0898,7.0898,7.0898,0.0,0.0,0.0,0.0,0.0,0.0,0.0,0.0,0.0,0.0,0.0,0.0,0.0,0.0,0.0,0.0,0.0,0.0,0.0,0.0,0.0,0.0,0.0,0.0,0.0,0.0,0.0,0.0,0.0,0.0,0.0,0.0,0.0,0.0,0.0,0.0,0.0,0.0,0.0,0.0,0.0,0.0,0.0,0.0,0.0,0.0,0.0,0.0,0.0,0.0,0.0,0.0,0.0,0.0,0.0,0.0,0.0,0.0,0.0,0.0,0.0,0.0,0.0,0.0,0.0,0.0,0.0,0.0,0.0,0.0,0.0,0.0,0.0,0.0,0.0,0.0,0.0,0.0,0.0,0.0,0.0,0.0,0.0,0.0,0.0,0.0,0.0,0.0,0.0,0.0,0.0,0.0,0.0,0.0,0.0,0.0,0.0,0.0,0.0,0.0,0.0,0.0,6.9206,7.0244,7.0898,7.0898,7.0898,7.0898,7.0898,7.0898,7.0898,7.0898,0.0,0.0,0.0,0.0,0.0,0.0,0.0,0.0,0.0,0.0,0.0,0.0,0.0,0.0,0.0,0.0,0.0,0.0,0.0,0.0,0.0,0.0,0.0,0.0,0.0,0.0,0.0,0.0,0.0,0.0,0.0,0.0,0.0,0.0,0.0,0.0,0.0,0.0,0.0,0.0,0.0,0.0,0.0,0.0,0.0,0.0,0.0,0.0,0.0,0.0,0.0,0.0,0.0,0.0,0.0,0.0,0.0,0.0,0.0,0.0,0.0,0.0,0.0,0.0,0.0,0.0,0.0,0.0,0.0,0.0,0.0,0.0,0.0,0.0,0.0,0.0,0.0,0.0,0.0,0.0,0.0,0.0,0.0,0.0,0.0,0.0,0.0,0.0,0.0,0.0,0.0,0.0,0.0,0.0,0.0,0.0,0.0,0.0,0.0,0.0,0.0,0.0,6.8398,6.986,7.0898,7.0898,7.0898,7.0898,7.0898,7.0898,7.0898,0.0,0.0,0.0,0.0,0.0,0.0,0.0,0.0,0.0,0.0,0.0,0.0,0.0,0.0,0.0,0.0,0.0,0.0,0.0,0.0,0.0,0.0,0.0,0.0,0.0,0.0,0.0,0.0,0.0,0.0,0.0,0.0,0.0,0.0,0.0,0.0,0.0,0.0,0.0,0.0,0.0,0.0,0.0,0.0,0.0,0.0,0.0,0.0,0.0,0.0,0.0,0.0,0.0,0.0,0.0,0.0,0.0,0.0,0.0,0.0,0.0,0.0,0.0,0.0,0.0,0.0,0.0,0.0,0.0,0.0,0.0,0.0,0.0,0.0,0.0,0.0,0.0,0.0,0.0,0.0,0.0,0.0,0.0,0.0,0.0,0.0,0.0,0.0,0.0,0.0,0.0,0.0,0.0,0.0,0.0,0.0,0.0,0.0,0.0,0.0,0.0,0.0,0.0,6.8398,6.986,7.0898,7.0898,7.0898,7.0898,7.0898,7.0898,7.0898,7.0898,0.0,0.0,0.0,0.0,0.0,0.0,0.0,0.0,0.0,0.0,0.0,0.0,0.0,0.0,0.0,0.0,0.0,0.0,0.0,0.0,0.0,0.0,0.0,0.0,0.0,0.0,0.0,0.0,0.0,0.0,0.0,0.0,0.0,0.0,0.0,0.0,0.0,0.0,0.0,0.0,0.0,0.0,0.0,0.0,0.0,0.0,0.0,0.0,0.0,0.0,0.0,0.0,0.0,0.0,0.0,0.0,0.0,0.0,0.0,0.0,0.0,0.0,0.0,0.0,0.0,0.0,0.0,0.0,0.0,0.0,0.0,0.0,0.0,0.0,0.0,0.0,0.0,0.0,0.0,0.0,0.0,0.0,0.0,0.0,0.0,0.0,0.0,0.0,0.0,0.0,0.0,0.0,0.0,0.0,0.0,0.0,0.0,0.0,0.0,0.0,0.0,0.0,6.8398,6.986,7.0898,7.0898,7.0898,7.0898,7.0898,7.0898,7.0898,7.0898,0.0,0.0,0.0,0.0,0.0,0.0,0.0,0.0,0.0,0.0,0.0,0.0,0.0,0.0,0.0,0.0,0.0,0.0,0.0,0.0,0.0,0.0,0.0,0.0,0.0,0.0,0.0,0.0,0.0,0.0,0.0,0.0,0.0,0.0,0.0,0.0,0.0,0.0,0.0,0.0,0.0,0.0,0.0,0.0,0.0,0.0,0.0,0.0,0.0,0.0,0.0,0.0,0.0,0.0,0.0,0.0,0.0,0.0,0.0,0.0,0.0,0.0,0.0,0.0,0.0,0.0,0.0,0.0,0.0,0.0,0.0,0.0,0.0,0.0,0.0,0.0,0.0,0.0,0.0,0.0,0.0,0.0,0.0,0.0,0.0,0.0,0.0,0.0,0.0,0.0,0.0,0.0,0.0,0.0,0.0,0.0,0.0,0.0,0.0,0.0,0.0,0.0,6.8398,6.986,7.0898,7.0898,7.0898,7.0898,7.0898,7.0898,7.0898,7.0898,0.0,0.0,0.0,0.0,0.0,0.0,0.0,0.0,0.0,0.0,0.0,0.0,0.0,0.0,0.0,0.0,0.0,0.0,0.0,0.0,0.0,0.0,0.0,0.0,0.0,0.0,0.0,0.0,0.0,0.0,0.0,0.0,0.0,0.0,0.0,0.0,0.0,0.0,0.0,0.0,0.0,0.0,0.0,0.0,0.0,0.0,0.0,0.0,0.0,0.0,0.0,0.0,0.0,0.0,0.0,0.0,0.0,0.0,0.0,0.0,6.1089,6.155,0.0,0.0,0.0,0.0,0.0,0.0,0.0,0.0,0.0,0.0,0.0,0.0,0.0,0.0,0.0,0.0,0.0,0.0,0.0,0.0,0.0,0.0,0.0,0.0,0.0,0.0,0.0,0.0,0.0,0.0,0.0,0.0,0.0,0.0,0.0,0.0,0.0,0.0,0.0,0.0,6.8398,6.986,7.0898,7.0898,7.0898,7.0898,7.0898,7.0898,7.0898,7.0898,7.0898,0.0,0.0,0.0,0.0,0.0,0.0,0.0,0.0,0.0,0.0,0.0,0.0,0.0,0.0,0.0,0.0,0.0,0.0,0.0,0.0,0.0,0.0,0.0,0.0,0.0,0.0,0.0,0.0,0.0,0.0,0.0,0.0,0.0,0.0,0.0,0.0,0.0,0.0,0.0,0.0,0.0,0.0,0.0,0.0,0.0,0.0,0.0,0.0,0.0,0.0,0.0,0.0,0.0,0.0,0.0,0.0,0.0,0.0,0.0,6.0781,6.105,0.0,0.0,0.0,0.0,0.0,0.0,0.0,0.0,0.0,0.0,0.0,0.0,0.0,0.0,0.0,0.0,0.0,0.0,0.0,0.0,0.0,0.0,0.0,0.0,0.0,0.0,0.0,0.0,0.0,0.0,0.0,0.0,0.0,0.0,0.0,0.0,0.0,0.0,0.0,0.0,6.8398,6.986,7.0898,7.0898,7.0898,7.0898,7.0898,7.0898,7.0898,7.0898,7.0898,0.0,0.0,0.0,0.0,0.0,0.0,0.0,0.0,0.0,0.0,0.0,0.0,0.0,0.0,0.0,0.0,0.0,0.0,0.0,0.0,0.0,0.0,0.0,0.0,0.0,0.0,0.0,0.0,0.0,0.0,0.0,0.0,0.0,0.0,0.0,0.0,0.0,0.0,0.0,0.0,0.0,0.0,0.0,0.0,0.0,0.0,0.0,0.0,0.0,0.0,0.0,0.0,0.0,6.0781,6.0781,6.0781,6.0781,6.0781,6.0781,6.0781,6.0781,6.0781,6.0781,0.0,0.0,0.0,0.0,0.0,0.0,0.0,0.0,0.0,0.0,0.0,0.0,0.0,0.0,0.0,0.0,0.0,0.0,0.0,0.0,0.0,0.0,6.5897,6.5897,6.5897,6.5897,6.5897,0.0,0.0,0.0,0.0,0.0,0.0,0.0,0.0,0.0,0.0,0.0,6.8398,6.986,7.0898,7.0898,7.0898,7.0898,7.0898,7.0898,7.0898,7.0898,7.0898,7.0898,0.0,0.0,0.0,0.0,0.0,0.0,0.0,0.0,0.0,0.0,0.0,0.0,0.0,0.0,0.0,0.0,0.0,0.0,0.0,0.0,0.0,0.0,0.0,0.0,0.0,0.0,0.0,0.0,0.0,0.0,0.0,0.0,5.5742,5.5857,0.0,0.0,0.0,0.0,0.0,0.0,0.0,0.0,0.0,0.0,0.0,0.0,0.0,6.0781,6.0781,6.0781,6.0781,6.0781,6.0781,6.0781,6.0781,6.0781,6.0781,6.0781,6.0781,0.0,6.0781,6.0781,0.0,0.0,0.0,0.0,0.0,0.0,0.0,0.0,0.0,0.0,0.0,0.0,0.0,0.0,0.0,0.0,0.0,0.0,0.0,0.0,0.0,0.0,6.5897,6.5897,6.5897,6.5897,6.5897,6.5897,6.5897,6.5897,6.5897,6.5897,0.0,0.0,0.0,0.0,0.0,0.0,6.8398,6.986,7.0898,7.0898,7.0898,7.0898,7.0898,7.0898,7.0898,7.0898,7.0898,7.0898,7.0898,7.0898,0.0,0.0,0.0,0.0,0.0,0.0,0.0,0.0,0.0,0.0,0.0,0.0,0.0,0.0,0.0,0.0,0.0,0.0,0.0,0.0,0.0,0.0,0.0,0.0,0.0,0.0,0.0,0.0,0.0,5.5703,5.5703,5.5703,5.5703,5.5703,0.0,0.0,0.0,0.0,0.0,0.0,0.0,0.0,0.0,6.005,6.055,6.0781,6.0781,6.0781,6.0781,6.0781,6.0781,6.0781,6.0781,6.0781,6.0781,6.0781,6.0781,6.0781,6.0781,6.0781,6.0781,6.0781,0.0,0.0,0.0,0.0,6.1358,6.1473,6.232,6.2858,6.3281,6.3705,0.0,0.0,0.0,0.0,0.0,0.0,0.0,6.5897,6.5897,6.5897,6.5897,6.5897,6.5897,6.5897,6.5897,6.5897,6.5897,6.5897,6.5897,6.5897,6.5897,6.5897,0.0,0.0,0.0,6.8398,6.8398,6.986,7.0898,7.0898,7.0898,7.0898,7.0898,7.0898,7.0898,7.0898,7.0898,7.0898,7.0898,7.0898,7.0898,0.0,0.0,0.0,0.0,0.0,0.0,0.0,0.0,0.0,0.0,0.0,0.0,0.0,0.0,0.0,0.0,0.0,0.0,0.0,0.0,0.0,0.0,0.0,0.0,0.0,0.0,0.0,0.0,5.5703,5.5703,5.5703,5.5703,5.5703,0.0,0.0,0.0,0.0,0.0,0.0,5.6973,5.8165,5.905,5.9473,6.0127,6.055,6.0781,6.0781,6.0781,6.0781,6.0781,6.0781,6.0781,6.0781,6.0781,6.0781,6.0781,6.0781,6.0781,6.0781,6.0781,6.0781,6.0781,6.0781,6.0781,6.0781,6.0781,6.0896,6.155,6.1897,6.2204,6.2781,6.3705,6.4589,6.4589,0.0,0.0,0.0,0.0,6.5897,6.5897,6.5897,6.5897,6.5897,6.5897,6.5897,6.5897,6.5897,6.5897,6.5897,6.5897,6.5897,6.5897,6.5897,0.0,6.5897,6.7321,6.8398,6.8398,6.986,7.0898,7.0898,7.0898,7.0898,7.0898,7.0898,7.0898,7.0898,7.0898,7.0898,7.0898,7.0898,7.0898,7.0898,0.0,0.0,0.0,0.0,0.0,0.0,0.0,0.0,0.0,0.0,0.0,0.0,0.0,0.0,0.0,0.0,0.0,0.0,0.0,0.0,0.0,0.0,0.0,0.0,0.0,0.0,0.0,0.0,0.0,5.5703,5.5703,0.0,0.0,0.0,0.0,5.5703,5.5742,5.6126,5.6934,5.7088,5.7857,5.9435,5.955,5.9973,6.0781,6.0781,6.0781,6.0781,6.0781,6.0781,6.0781,6.0781,6.0781,6.0781,6.0781,6.0781,6.0781,6.0781,6.0781,6.0781,6.0781,6.0781,6.0781,6.0781,6.0781,6.0819,6.0858,6.1396,6.2089,6.2127,6.3281,6.4589,6.4589,6.5205,0.0,0.0,6.5897,6.5897,6.5897,6.5897,6.5897,6.5897,6.5897,6.5897,6.5897,6.5897,6.5897,6.5897,6.5897,6.5897,6.5897,0.0,6.5897,6.5897,6.7321,6.8398,6.8398,6.986,7.0898,7.0898,7.0898,7.0898,7.0898,7.0898,7.0898,7.0898,7.0898,7.0898,7.0898,7.0898,7.0898,7.0898,6.9921,0.0,0.0,0.0,0.0,0.0,0.0,0.0,0.0,0.0,0.0,0.0,0.0,0.0,0.0,0.0,0.0,0.0,0.0,0.0,0.0,0.0,0.0,0.0,0.0,0.0,0.0,0.0,0.0,5.5703,5.5703,0.0,5.5703,5.5703,5.5703,5.5703,5.5703,5.5818,5.6126,5.6703,5.728,5.7857,5.8934,5.9665,5.9973,6.0512,6.0781,6.0781,6.0781,6.0781,6.0781,6.0781,6.0781,6.0781,6.0781,6.0781,6.0781,6.0781,6.0781,6.0781,6.0781,6.0781,6.0781,6.0781,6.0781,6.0781,6.0781,6.1012,6.1358,6.1897,6.2512,6.3205,6.4282,6.482,6.5166,6.5743,6.5897,6.5897,6.5897,6.5897,6.5897,6.5897,6.5897,6.5897,6.5897,6.5897,6.5897,6.5897,6.5897,6.5897,6.5897,6.5897,6.609,6.659,6.7667,6.859,6.9167,7.0206,7.0898,7.0898,7.0898,7.0898,7.0898,7.0898,7.0898,7.0898,7.0898,7.0898,7.0898,7.0898,7.0748,7.0362,7.0026,6.9472,0.0,0.0,0.0,0.0,0.0,0.0,0.0,0.0,0.0,0.0,0.0,0.0,0.0,0.0,0.0,0.0,0.0,0.0,0.0,0.0,0.0,0.0,0.0,0.0,0.0,5.5703,5.5703,5.5703,5.5703,5.5703,5.5703,5.5703,5.5703,5.5703,5.5703,5.5703,5.5703,5.6511,5.7126,5.7434,5.8781,5.9627,5.9935,6.0512,6.0781,6.0781,6.0781,6.0781,6.0781,6.0781,6.0781,6.0781,6.0781,6.0781,6.0781,6.0781,6.0781,6.0781,6.0781,6.0781,6.0781,6.0781,6.0781,6.0781,6.0781,6.0781,6.0896,6.1473,6.1858,6.2358,6.3743,6.4359,6.4782,6.5628,6.5897,6.5897,6.5897,6.5897,6.5897,6.5897,6.5897,6.5897,6.5897,6.5897,6.5897,6.5897,6.5897,6.5897,6.5897,6.6128,6.6474,6.7013,6.809,6.9052,6.9629,7.0398,7.0898,7.0898,7.0898,7.1014,7.1321,7.1321,7.1475,7.1745,7.1514,7.1321,7.1321,7.1052,7.0652,7.0129,6.9738,6.9148,6.821,0.0,0.0,0.0,0.0,0.0,0.0,0.0,0.0,0.0,0.0,0.0,0.0,0.0,0.0,0.0,0.0,0.0,0.0,0.0,0.0,0.0,0.0,0.0,5.5703,5.5703,5.5703,5.5703,5.5703,5.5703,5.5703,5.5703,5.5703,5.5703,5.5742,5.5742,5.5742,5.6549,5.7434,5.828,5.9088,5.9896,6.0742,6.0781,6.0781,6.0781,6.0781,6.0781,6.0781,6.0781,6.0781,6.0781,6.0781,6.0781,6.0781,6.0781,6.0781,6.0781,6.0781,6.0781,6.0781,6.0781,6.0781,6.0781,6.0781,6.0781,6.0781,6.0781,6.1358,6.2204,6.3012,6.3858,6.4743,6.559,6.5859,6.5897,6.5897,6.5897,6.5897,6.5897,6.5897,6.5897,6.5897,6.5897,6.5897,6.5897,6.5897,6.5936,6.5936,6.659,6.7128,6.7167,6.8629,0.0,6.9744,7.0437,7.0898,7.0937,7.0937,7.1283,7.2168,7.2245,7.2591,7.3437,7.2706,7.2245,7.2245,7.1398,7.069,7.0095,6.9021,6.821,6.7687,0.0,0.0,0.0,0.0,0.0,0.0,0.0,0.0,0.0,0.0,0.0,0.0,0.0,0.0,0.0,0.0,0.0,0.0,0.0,0.0,0.0,5.5703,5.5703,5.5703,5.5703,5.5703,5.5703,5.5703,5.5703,5.5703,5.5703,5.5703,5.5703,5.628,5.6626,5.6626,5.7473,5.805,5.828,5.9088,5.9627,5.9858,6.0473,6.0781,6.0781,6.0781,6.0781,6.0781,6.0781,6.0781,6.0781,6.0781,6.0781,6.0781,6.0781,6.0781,6.0781,6.0781,6.0781,6.0781,6.0781,6.0781,6.0781,6.0781,6.0781,6.0781,6.0781,6.0973,6.132,6.2166,6.3012,6.3858,6.4705,6.5397,6.5897,6.5897,6.5897,6.5897,6.5897,6.5897,6.5897,6.5897,6.5897,6.5897,6.5897,6.6359,6.6782,6.6782,6.6936,6.7513,6.8783,6.9398,6.9898,7.0514,7.0744,7.1129,7.1783,7.1822,7.2206,7.3091,7.3129,7.3245,7.3476,7.3283,7.3129,7.3129,7.2322,7.1114,6.955,6.8464,6.7863,0.0,0.0,0.0,0.0,0.0,0.0,0.0,0.0,0.0,0.0,0.0,0.0,0.0,0.0,0.0,0.0,0.0,0.0,0.0,0.0,0.0,0.0,5.5703,5.5703,5.5703,5.5703,5.5703,5.5703,5.5703,5.5703,5.5703,5.6011,5.6242,5.6242,5.7049,5.755,5.755,5.8357,5.8819,5.8819,5.9627,6.005,6.005,6.055,6.0781,6.0781,6.0781,6.0781,6.0781,6.0781,6.0781,6.0781,6.0781,6.0781,6.0781,6.0781,6.0781,6.0781,0.0,0.0,0.0,0.0,6.0781,6.0781,6.0781,6.0781,6.0781,6.0781,6.0781,6.0973,6.182,6.2666,6.3474,6.4359,6.5243,6.5897,6.5897,6.5897,6.5897,6.5897,6.5897,6.5897,6.5897,6.5897,6.6013,6.632,6.6782,0.0,6.8052,6.8205,6.8513,6.9552,6.9975,7.036,7.0821,7.1206,7.1629,7.2129,7.2514,7.3091,7.3937,7.4014,0.0,0.0,0.0,7.386,7.3514,7.2569,0.0,0.0,0.0,6.8017,6.7687,6.7687,0.0,0.0,6.7467,6.743,0.0,0.0,0.0,0.0,0.0,0.0,0.0,0.0,0.0,0.0,0.0,0.0,0.0,0.0,0.0,0.0,5.5703,5.5703,5.5703,5.5703,5.5703,5.5703,5.578,5.5857,5.5857,5.6626,5.7126,5.7126,5.7934,5.8434,5.8434,5.9204,0.0,0.0,0.0,6.0781,6.0781,6.0781,6.0781,6.0781,6.0781,6.0781,6.0781,6.0781,6.0781,6.0781,6.0781,6.0781,6.0781,6.0781,6.0781,6.0781,6.0781,6.0781,6.0781,6.0781,6.0781,6.0781,6.0781,0.0,0.0,6.0935,6.1012,6.1243,6.2012,6.2781,6.3628,6.4397,6.5243,6.5897,6.5897,6.5897,6.5897,6.5897,6.5897,6.5897,6.5897,6.5974,6.6244,6.6974,6.7244,6.7859,6.9436,6.9706,6.9744,6.9821,7.0437,7.0937,7.1014,7.1706,7.2283,7.2437,7.3168,0.0,7.4784,7.4861,7.5168,7.5938,7.5284,7.4476,7.3668,7.2509,7.1539,7.075,6.9632,6.8641,6.7834,6.7834,6.7797,6.7687,6.7687,6.7687,0.0,0.0,0.0,0.0,0.0,0.0,0.0,0.0,0.0,0.0,0.0,0.0,0.0,0.0,0.0,5.5703,5.5703,5.5703,5.5703,5.5703,5.5703,5.5703,5.6319,5.6742,5.6742,5.755,5.805,5.805,5.8819,5.9281,5.9281,6.0089,6.055,6.055,6.0704,6.0781,6.0781,6.0781,6.0781,6.0781,6.0781,0.0,6.0781,6.0781,6.0781,6.0781,6.0781,6.0781,6.0781,6.0781,6.0781,6.0781,6.0781,6.0781,6.0781,6.0781,6.0781,6.0781,6.0781,6.1243,6.1858,6.1858,6.2281,6.2858,6.3012,6.3666,0.0,6.4551,6.5243,6.5897,6.5897,6.5897,6.5897,6.5897,6.5897,6.5897,6.5897,6.6397,6.6898,6.7051,6.8244,6.9283,6.9629,6.9706,6.9937,7.0552,7.0783,7.1168,7.186,7.2091,7.2706,7.4053,7.4361,7.4822,7.5668,7.5745,7.5822,7.5976,7.5822,7.5361,7.4514,7.3345,7.2369,7.1576,7.0448,6.9486,6.8678,6.8678,6.8311,6.7687,6.7687,6.7687,0.0,0.0,0.0,0.0,0.0,0.0,0.0,0.0,0.0,0.0,0.0,5.5703,5.5703,0.0,5.5703,5.5703,5.5703,5.5703,5.5703,5.6088,5.6357,5.6357,5.6703,5.7165,5.7588,5.8396,5.8896,5.8896,5.9665,6.0165,6.0165,6.055,6.0781,6.0781,6.0781,6.0781,6.0781,6.0781,6.0781,6.0781,6.0781,6.0781,6.0781,6.0781,6.0781,6.0819,6.1243,6.1435,6.1473,6.1897,6.205,6.205,6.205,6.182,6.1512,6.1897,6.205,6.205,6.205,6.2358,6.2704,6.2704,6.2974,6.332,6.332,6.3897,6.4589,6.4589,6.5243,6.5897,6.5897,6.5897,6.5897,6.5897,6.5897,6.6013,6.6397,6.6821,6.7359,6.8244,6.909,6.9821,7.0244,7.0283,7.0437,7.0821,7.0898,7.1206,7.2091,7.2591,7.3322,7.4591,7.5091,7.5515,7.5976,7.6015,7.6015,7.6015,7.6015,7.5784,7.5361,7.4258,7.3237,7.2407,7.1301,7.0293,6.9486,6.9486,6.9302,6.8898,6.8495,6.8091,0.0,0.0,0.0,0.0,0.0,0.0,0.0,5.5703,5.5703,5.5703,5.5703,5.5703,5.5703,5.5703,5.5703,5.5703,5.5703,5.5742,5.5934,5.6549,5.7126,5.7434,5.7473,5.7742,5.8473,5.9281,5.9742,5.9742,6.0396,6.0781,6.0781,6.0781,6.0781,6.0781,6.0781,6.0781,6.0781,6.0781,6.0781,6.0781,6.0781,6.0781,6.0819,6.0973,6.105,6.1089,6.1935,6.232,6.2358,6.3051,6.332,6.332,6.3512,6.3166,6.2627,6.3128,6.332,6.332,6.332,6.3435,6.3551,6.3551,6.3666,6.382,6.382,6.432,6.4859,6.4859,6.5359,6.5897,6.5897,6.5897,6.5897,6.5897,6.6013,6.632,6.6974,6.7359,6.8013,6.9436,6.9821,7.0129,7.0783,7.0898,7.0898,7.0898,7.1052,7.1475,7.2322,7.3206,7.4053,7.4861,7.5592,7.6015,7.6015,7.6015,7.6015,7.6015,7.6015,7.5947,7.5818,7.4828,7.391,7.3063,7.205,7.1138,7.033,7.033,7.0257,7.0073,6.9449,6.8715,5.5703,5.5703,5.5703,5.5703,5.5703,5.5703,0.0,5.5703,5.5703,5.5703,5.5703,5.5703,5.5703,5.5703,5.5703,5.5703,5.5703,5.5972,5.6742,5.6934,5.755,5.905,5.9204,5.9242,5.9358,6.0165,6.0666,6.0666,6.0742,6.0781,6.0781,6.0781,6.0781,6.0781,6.0781,6.0781,6.0781,6.0781,6.0781,6.0781,6.0781,6.0781,6.0819,6.1589,6.1935,6.1973,6.282,6.3166,6.3166,6.3281,6.332,6.3397,6.4166,6.4397,6.4243,6.3551,6.332,6.332,6.332,6.382,6.4436,6.4436,6.4974,6.559,6.559,6.5667,6.5743,6.5743,6.582,6.5897,6.5897,6.5897,6.5897,6.5897,6.6436,6.6974,6.709,6.8321,6.9475,6.9667,7.0283,7.0783,7.0898,7.0898,7.0898,7.0898,7.1552,7.236,7.3245,7.4053,7.4899,7.5745,7.5938,7.6015,7.6015,7.6015,7.6015,7.6015,7.6015,7.5749,7.5236,7.4629,7.4034,7.3392,7.2724,7.1982,7.1174,7.1174,7.0807,7.011,7.0,6.9522,5.5703,5.5703,5.5703,5.5703,5.5703,5.5703,5.5703,5.5703,5.5703,5.5703,5.5703,5.5703,5.5703,5.5703,5.5703,5.5703,5.6126,5.6588,5.6934,5.7819,5.8704,5.9435,5.9935,6.0242,6.0242,6.0589,6.0781,6.0781,6.0781,6.0781,6.0781,6.0781,6.0781,6.0781,6.0781,6.0781,6.0781,6.0781,6.0781,6.0781,6.0781,6.105,6.155,6.1935,6.2627,6.3551,6.3897,6.4359,6.482,6.482,6.482,6.4859,6.5205,6.5359,6.532,6.4936,6.482,6.482,6.482,6.5051,6.5359,6.5359,6.559,6.5897,6.5897,6.5897,6.5897,6.5897,6.5897,6.5897,6.5897,6.6244,6.659,6.659,6.7244,6.8013,6.8513,6.9206,6.986,7.0321,7.0667,7.0898,7.0898,7.1321,7.1668,7.1668,7.1975,7.2668,7.4053,7.4514,7.5014,7.5899,7.6015,7.6015,7.6015,7.6015,7.6015,7.6015,7.6015,7.5718,7.5127,7.4551,7.4026,7.3391,7.2816,7.2349,7.2018,7.2018,7.1835,7.1505,7.1027,7.0624,5.5703,5.5703,5.5703,5.5703,5.5703,5.5703,5.5703,5.5703,5.5703,5.5703,5.5703,5.5703,5.5703,5.5703,5.5703,5.5703,5.6434,5.7088,5.7319,5.8588,5.9588,5.9819,6.0435,6.0781,6.0781,6.0781,6.0781,6.0781,6.0781,6.0781,6.0781,6.0781,6.0781,6.0781,6.0781,6.0781,6.0781,6.0781,6.0781,6.0781,6.105,6.1473,6.2127,6.2589,6.3589,6.4974,6.4974,6.532,6.5897,6.5897,6.5897,6.5897,6.5897,6.5897,6.5897,6.5897,6.5897,6.5897,6.5897,6.5897,6.5897,6.5897,6.5897,6.5897,6.5897,6.5897,6.5897,6.5897,6.6051,6.6244,6.6244,6.6821,6.7475,6.7475,6.8129,6.8936,6.9552,6.986,7.0206,7.0783,7.0898,7.0975,7.1206,7.1783,7.236,7.2822,7.2899,7.3322,7.4553,7.4899,7.5284,7.5938,7.6015,7.6015,7.6015,7.6015,7.6015,7.6015,7.6015,7.5654,7.4905,7.4506,7.3934,7.3172,7.2705,7.2496,7.2496,7.2496,7.2496,7.2496,7.1908,7.1651,5.5703,5.5703,5.5703,5.5703,5.5703,5.5703,5.5703,5.5703,5.5703,5.5703,5.5703,5.5703,5.5703,5.5703,5.5703,5.5703,5.6434,5.728,5.8127,5.8973,5.9819,6.0666,6.0781,6.0781,6.0781,6.0781,6.0781,6.0781,6.0781,6.0781,6.0781,6.0781,6.0781,6.0781,6.0781,6.0781,6.0781,6.0781,6.0781,6.0819,6.1666,6.205,6.2166,6.3782,6.5013,6.5859,6.5859,6.5859,6.5897,6.5897,6.5897,6.5897,6.5897,6.5897,6.5897,6.5897,6.5897,6.5897,6.5897,6.5897,6.5897,6.5897,6.5897,6.5897,6.5897,6.5897,6.5897,6.5897,6.6436,6.7051,6.7051,6.7705,6.8359,6.8359,6.9052,6.9667,6.9706,7.0321,7.086,7.0898,7.0898,7.1168,7.2014,7.2168,7.2745,7.4399,7.463,7.463,7.4707,7.5438,7.5976,7.6015,7.6015,7.6015,7.6015,7.6015,7.6015,7.6015,7.6015,7.5485,7.4379,7.4293,7.3747,7.2553,7.2496,7.2496,7.2496,7.2496,7.2496,7.2496,7.2459,7.2459,5.5703,5.5703,5.5703,5.5703,5.5703,5.5703,5.5703,5.5703,5.5703,5.5703,5.5703,5.5703,5.5703,5.5703,5.5895,5.6472,5.728,5.8165,5.8973,5.9819,6.0473,6.0781,6.0781,6.0781,6.0781,6.0781,6.0781,6.0781,6.0781,6.0781,6.0781,6.0781,6.0781,6.0781,6.0781,6.0781,6.0781,6.0781,6.1089,6.1666,6.3089,6.3743,6.3782,6.4936,6.5628,6.5897,6.5897,6.5897,6.5897,6.5897,6.5897,6.5897,6.5897,6.5897,6.5897,6.5897,6.5897,6.5897,6.5897,6.5897,6.5897,6.5897,6.5897,6.5897,6.5897,6.6282,6.6705,6.6705,6.7321,6.7975,6.7975,6.8629,6.9244,6.9244,6.9898,7.0514,7.0514,7.0706,7.0898,7.0898,7.136,7.186,7.2129,7.3129,7.4245,7.5399,7.5553,7.5553,7.5553,7.5822,7.6015,7.6015,7.6015,7.6015,7.6015,7.6015,7.6015,7.6015,7.5616,7.5092,7.4336,7.3934,7.329,7.2496,7.2496,7.2496,7.2496,7.2496,7.2496,7.2496,7.2496,7.2496,5.5703,5.5703,5.5703,5.5703,5.5703,5.5703,5.5703,5.5703,5.5703,5.5703,5.5703,5.5703,5.5703,5.5703,5.5972,5.6857,5.7742,5.8588,5.9396,6.0242,6.0781,6.0781,6.0781,6.0781,6.0781,6.0781,6.0781,6.0781,6.0781,6.0781,6.0781,6.0781,6.0781,6.0781,6.0781,6.0935,6.1243,6.1243,6.1858,6.3012,6.4089,6.4743,6.5089,6.5628,6.5897,6.5897,6.5897,6.5897,6.5897,6.5897,6.5897,6.5897,6.5897,6.5897,6.5897,6.5897,6.609,6.6282,6.6013,6.5897,6.5897,6.5897,6.609,6.632,6.632,6.6898,6.7552,6.7552,6.8205,6.8859,6.8859,6.9475,7.0129,7.0129,7.0514,7.0898,7.0898,7.0898,7.0975,7.1283,7.1822,7.2399,7.2976,7.4245,7.5361,7.5938,7.6015,7.6015,7.6015,7.6015,7.6015,7.6015,7.6015,7.6015,7.6015,7.6015,7.6015,7.6015,7.5446,7.4866,7.4336,7.3699,7.3119,7.2496,7.2496,7.2496,7.2496,7.2496,7.2496,7.2496,7.2496,7.2496,5.5703,5.5703,5.5703,5.5703,5.5703,5.5703,5.5703,5.5703,5.5703,5.5703,5.5703,5.5703,5.5703,5.5703,5.6011,5.6896,5.7742,5.8588,5.9435,6.0281,6.0781,6.0781,6.0781,6.0781,6.0781,6.0781,6.0781,6.0781,6.0781,6.0781,6.0781,6.0781,6.0781,6.0781,6.0819,6.1243,6.2089,6.2166,6.3012,6.4589,6.4666,6.5089,6.5897,6.5897,6.5897,6.5897,6.5897,6.5897,6.5897,6.5897,6.5897,6.5897,6.5936,6.5974,6.5974,6.6013,6.6513,6.7051,6.6282,6.6013,6.6013,6.6013,6.6551,6.7167,6.7167,6.7782,6.8475,6.8475,6.909,6.9744,6.9744,7.0321,7.0898,7.0898,7.0898,7.0898,7.0898,7.0937,7.1206,7.2052,7.2283,7.286,7.4476,7.5438,7.6015,7.6015,7.6015,7.6015,7.6015,7.6015,7.6015,7.6015,7.6015,7.6015,7.6015,7.6015,7.6015,7.6015,7.5446,7.4866,7.4336,7.3699,7.3119,7.2496,7.2496,7.2496,7.2496,7.2496,7.2496,7.2496,7.2496,7.2496,5.5703,5.5703,5.5703,5.5703,5.5703,5.5703,5.5703,5.5703,5.5703,5.5703,5.5703,5.5703,5.5703,5.5703,5.6203,5.7703,5.8165,5.8819,6.0242,6.0666,6.0781,6.0781,6.0781,6.0781,6.0781,6.0781,6.0781,6.0781,6.0781,6.0781,6.0781,6.0781,6.0781,6.0781,6.1435,6.1858,6.2089,6.332,6.4166,6.4628,6.5243,6.5667,6.5897,6.5897,6.5897,6.5897,6.5897,6.5897,6.5897,6.5897,6.5897,6.5974,6.6551,6.6782,6.6859,6.7513,6.7898,6.8052,6.7821,6.7782,6.7782,6.7782,6.7898,6.809,6.809,6.8667,6.936,6.936,6.9975,7.0591,7.0591,7.0744,7.0898,7.0898,7.0898,7.0898,7.0898,7.1398,7.1937,7.2168,7.3206,7.4399,7.5476,7.5861,7.6015,7.6015,7.6015,7.6015,7.6015,7.6015,7.6015,7.6015,7.6015,7.6015,7.6015,7.6015,7.6015,7.6015,7.5446,7.4866,7.4336,7.3699,7.3119,7.2496,7.2496,7.2496,7.2496,7.2496,7.2496,7.2496,7.2496,7.2496,5.5703,5.5703,5.5703,5.5703,5.5703,5.5703,5.5703,5.5703,5.5703,5.5703,5.5703,5.5703,5.5703,5.5703,5.628,5.8011,5.8319,5.8896,6.055,6.0781,6.0781,6.0781,6.0781,6.0781,6.0781,6.0781,6.0781,6.0781,6.0781,6.0781,6.0781,6.0781,6.0973,6.1358,6.182,6.2435,6.3205,6.4512,6.5166,6.5166,6.5667,6.5897,6.5897,6.5897,6.5897,6.5897,6.5897,6.609,6.6436,6.6436,6.6667,6.7051,6.7475,6.7667,6.7744,6.8244,6.8629,6.8975,6.8975,6.9206,6.9398,6.8629,6.8667,6.8975,6.8975,6.9552,7.0244,7.0244,7.0552,7.0898,7.0898,7.0898,7.0898,7.0898,7.0898,7.1014,7.1398,7.186,7.2399,7.3129,7.4361,7.5438,7.5938,7.6015,7.6015,7.6015,7.6015,7.6015,7.6015,7.6015,7.6015,7.6015,7.6015,7.6015,7.6015,7.6015,7.6015,7.6015,7.5446,7.4866,7.4336,7.3699,7.3119,7.2496,7.2496,7.2496,7.2496,7.2496,7.2496,7.2496,7.2496,7.2496,5.5703,5.5703,5.5703,5.5703,5.5703,5.5703,5.5703,5.5703,5.5703,5.5703,5.5703,5.5703,5.5703,5.5703,5.628,5.8011,5.8319,5.8896,6.055,6.0781,6.0781,6.0781,6.0781,6.0781,6.0781,6.0781,6.0781,6.0781,6.0896,6.0935,6.0819,6.0896,6.1396,6.2397,6.2435,6.3166,6.4743,6.5513,6.5897,6.5897,6.5897,6.5897,6.5897,6.5897,6.5974,6.6051,6.6051,6.6513,6.7282,6.7282,6.7705,6.8398,6.8552,6.859,6.859,6.8706,6.9206,6.986,6.986,7.0321,7.0667,6.9206,6.9244,6.986,6.986,7.036,7.0898,7.0898,7.0898,7.0898,7.0898,7.0898,7.0898,7.0898,7.0975,7.1283,7.2052,7.236,7.3014,7.4591,7.5476,7.6015,7.6015,7.6015,7.6015,7.6015,7.6015,7.6015,7.6015,7.6015,7.6015,7.6015,7.6015,7.6015,7.6015,7.6015,7.6015,7.6015,7.5518,7.4943,7.4336,7.3794,7.3224,7.2496,7.2496,7.2496,7.2496,7.2496,7.2496,7.2496,7.2496,7.2496,5.5703,5.5703,5.5703,5.5703,5.5703,5.5703,5.5703,5.5703,5.5703,5.5703,5.5703,5.5703,5.5703,5.5703,5.628,5.8011,5.8319,5.8896,6.055,6.0781,6.0781,6.0781,6.0781,6.0781,6.0781,6.0781,6.0781,6.0781,6.1473,6.155,6.0819,6.1473,6.2589,6.4128,6.4166,6.4666,6.5667,6.582,6.5897,6.5897,6.5897,6.5897,6.5897,6.5897,6.6244,6.6898,6.6898,6.7359,6.8167,6.8167,6.8282,6.8475,6.9206,6.9475,6.9552,7.0206,7.0552,7.0706,7.0706,7.0783,7.086,7.0552,7.0552,7.0706,7.0706,7.0783,7.0898,7.0898,7.0898,7.0898,7.0898,7.0898,7.0898,7.0898,7.1437,7.2014,7.2168,7.3283,7.4553,7.5592,7.5899,7.6015,7.6015,7.6015,7.6015,7.6015,7.6015,7.6015,7.6015,7.6015,7.6015,7.6015,7.6015,7.6015,7.6015,7.6015,7.6015,7.6015,7.5917,7.5379,7.4336,7.4206,7.3639,7.2496,7.2496,7.2496,7.2496,7.2496,7.2496,7.2496,7.2496,7.2496,5.5703,5.5703,5.5703,5.5703,5.5703,5.5703,5.5703,5.5703,5.5703,5.5703,5.5703,5.5703,5.5703,5.5703,5.628,5.8011,5.8319,5.8896,6.055,6.0781,6.0781,6.0781,6.0781,6.0781,6.0781,6.0781,6.0973,6.1435,6.1858,6.1897,6.1512,6.2704,6.3782,6.4589,6.5051,6.5474,6.5897,6.5897,6.5897,6.5897,6.5897,6.5897,6.5897,6.632,6.6744,6.7128,6.759,6.8282,6.909,6.909,6.9321,6.9744,7.0167,7.0321,7.036,7.0744,7.0898,7.0898,7.0898,7.0898,7.0898,7.0898,7.0898,7.0898,7.0898,7.0898,7.0898,7.0898,7.0898,7.0898,7.0898,7.1245,7.1591,7.1591,7.2552,7.3514,7.3514,7.4476,7.5515,7.5938,7.6015,7.6015,7.6015,7.6015,7.6015,7.6015,7.6015,7.6015,7.6015,7.6015,7.6015,7.6015,7.6015,7.6015,7.6015,7.6015,7.6015,7.6015,7.6015,7.5485,7.4336,7.4293,7.3699,7.2496,7.2496,7.2496,7.2496,7.2496,7.2496,7.2496,7.2496,7.2496,5.5703,5.5703,5.5703,5.5703,5.5703,5.5703,5.5703,5.5703,5.5703,5.5703,5.5703,5.5703,5.5703,5.5703,5.628,5.8011,5.8319,5.8896,6.055,6.0781,6.0781,6.0781,6.0781,6.0781,6.0781,6.0973,6.1358,6.205,6.2435,6.2627,6.2627,6.3897,6.4705,6.4859,6.5551,6.5897,6.5897,6.5897,6.5897,6.5897,6.5897,6.5974,6.6167,6.6821,6.7282,6.7705,6.8398,6.9167,6.9975,6.9975,7.0321,7.0898,7.0898,7.0898,7.0898,7.0898,7.0898,7.0898,7.0898,7.0898,7.0898,7.0898,7.0898,7.0898,7.0898,7.0898,7.0898,7.0898,7.1014,7.1168,7.1168,7.1822,7.2514,7.2668,7.3745,7.4745,7.4938,7.5515,7.6015,7.6015,7.6015,7.6015,7.6015,7.6015,7.6015,7.6015,7.6015,7.6015,7.6015,7.6015,7.6015,7.6015,7.6015,7.6015,7.6015,7.6015,7.6015,7.6015,7.6015,7.5485,7.4336,7.4293,7.3699,7.2496,7.2496,7.2496,7.2496,7.2496,7.2496,7.2496,7.2496,7.2496,5.5703,5.5703,5.5703,5.5703,5.5703,5.5703,5.5703,5.5703,5.5703,5.5703,5.5703,5.5703,5.5703,5.5703,5.628,5.8011,5.8319,5.8896,6.055,6.0781,6.0781,6.0781,6.0781,6.0781,6.0781,6.1512,6.2012,6.2089,6.3512,6.4359,6.4359,6.4512,6.4974,6.5743,6.5859,6.5897,6.5897,6.5897,6.5897,6.5897,6.5897,6.6282,6.6974,6.7051,6.7975,6.9475,6.9552,7.0052,7.0783,7.0783,7.0821,7.0898,7.0898,7.0898,7.0898,7.0898,7.0898,7.0898,7.0898,7.0898,7.0898,7.0898,7.0898,7.0898,7.0898,7.0898,7.0898,7.0898,7.1475,7.2091,7.2091,7.2745,7.3553,7.4322,7.4591,7.4938,7.5707,7.5938,7.6015,7.6015,7.6015,7.6015,7.6015,7.6015,7.6015,7.6015,7.6015,7.6015,7.6015,7.6015,7.6015,7.6015,7.6015,7.6015,7.6015,7.6015,7.6015,7.6015,7.6015,7.5485,7.4336,7.4293,7.3699,7.2496,7.2496,7.2496,7.2496,7.2496,7.2496,7.2496,7.2496,7.2496,5.5703,5.5703,5.5703,5.5703,5.5703,5.5703,5.5703,5.5703,5.5703,5.5703,5.5703,5.5703,5.5703,5.5703,5.628,5.8011,5.8319,5.8896,6.055,6.0781,6.0781,6.0781,6.0781,6.1012,6.1512,6.1897,6.2512,6.3512,6.4705,6.5397,6.5397,6.5397,6.5551,6.5897,6.5897,6.5897,6.5897,6.5897,6.5897,6.5897,6.6397,6.6782,6.7128,6.8205,6.9052,6.9744,7.0206,7.0591,7.0898,7.0898,7.0898,7.0898,7.0898,7.0898,7.0898,7.0898,7.0898,7.0898,7.0898,7.0898,7.0898,7.0898,7.0898,7.0898,7.0898,7.0898,7.1014,7.1514,7.1937,7.2322,7.286,7.3591,7.4437,7.5284,7.5476,7.5592,7.5938,7.6015,7.6015,7.6015,7.6015,7.6015,7.6015,7.6015,7.6015,7.6015,7.6015,7.6015,7.6015,7.6015,7.6015,7.6015,7.6015,7.6015,7.6015,7.6015,7.6207,7.6746,7.6784,7.648,7.5771,7.5765,7.5158,7.3964,7.3487,7.323,7.323,7.2753,7.2496,7.2496,7.2496,7.2496,5.5703,5.5703,5.5703,5.5703,5.5703,5.5703,5.5703,5.5703,5.5703,5.5703,5.5703,5.5703,5.5703,5.5895,5.6549,5.805,5.8511,5.9165,6.0589,6.0781,6.0781,6.0781,6.1012,6.1435,6.205,6.2551,6.3435,6.4897,6.5551,6.5897,6.5897,6.5897,6.5897,6.5897,6.5897,6.5897,6.5897,6.6128,6.6244,6.6244,6.709,6.7628,6.7898,6.9129,6.9821,7.009,7.0667,7.0898,7.0898,7.0898,7.0898,7.0898,7.0898,7.0898,7.0898,7.0898,7.0898,7.0898,7.0898,7.0898,7.0937,7.1206,7.1283,7.1321,7.1591,7.1475,7.1475,7.2322,7.2745,7.3129,7.4014,7.4668,7.5245,7.5861,7.6015,7.6015,7.6015,7.6015,7.6015,7.6015,7.6015,7.6015,7.6015,7.6015,7.6015,7.6015,7.6015,7.6015,7.6015,7.6015,7.6015,7.6015,7.6015,7.6015,7.6015,7.6245,7.663,7.7246,7.7515,7.736,7.6753,7.6708,7.6132,7.4918,7.4331,7.4037,7.4037,7.3266,7.2863,7.2863,7.2606,7.2496,5.5703,5.5703,5.5703,5.5703,5.5703,5.5703,5.5703,5.5703,5.5703,5.5703,5.5703,5.5703,5.5703,5.6395,5.728,5.8165,5.8973,5.9781,6.0666,6.0781,6.0781,6.0781,6.155,6.2089,6.2089,6.3589,6.4936,6.582,6.5897,6.5897,6.5897,6.5897,6.5897,6.5897,6.5897,6.5897,6.5897,6.6667,6.709,6.709,6.7975,6.8859,6.9667,6.9706,7.0129,7.0898,7.0898,7.0898,7.0898,7.0898,7.0898,7.0898,7.0898,7.0898,7.0898,7.0898,7.0898,7.0898,7.0898,7.0898,7.1052,7.1898,7.2168,7.236,7.3206,7.286,7.236,7.3245,7.4053,7.4861,7.5745,7.5976,7.5976,7.6015,7.6015,7.6015,7.6015,7.6015,7.6015,7.6015,7.6015,7.6015,7.6015,7.6015,7.6015,7.6015,7.6015,7.6015,7.6015,7.6015,7.6015,7.6015,7.6015,7.6015,7.6015,7.6784,7.7284,7.7284,7.8054,7.7934,7.6753,7.6708,7.6132,7.4918,7.4918,7.4918,7.4918,7.4074,7.367,7.367,7.2863,7.2496,5.5703,5.5703,5.5703,5.5703,5.5703,5.5703,5.5703,5.5703,5.5703,5.5703,5.5703,5.5895,5.6472,5.6819,5.7473,5.8896,5.9319,5.9819,6.0666,6.0781,6.1012,6.1627,6.2935,6.382,6.382,6.482,6.559,6.5859,6.5897,6.5897,6.5897,6.5897,6.5897,6.5897,6.5897,6.6167,6.6705,6.6974,6.7398,6.8013,6.8859,6.9436,6.9706,7.0283,7.0667,7.0898,7.0898,7.0898,7.0898,7.0898,7.0898,7.0898,7.0898,7.0898,7.0898,7.0898,7.0898,7.0975,7.1591,7.1783,7.1937,7.2822,7.3091,7.3245,7.4091,7.3745,7.3245,7.4091,7.4938,7.5668,7.5938,7.6015,7.6015,7.6015,7.6015,7.6015,7.6015,7.6015,7.6015,7.6015,7.6015,7.6015,7.6015,7.6015,7.6015,7.6015,7.6015,7.6015,7.6015,7.6015,7.6015,7.6015,7.6515,7.6899,7.6899,7.713,7.7784,7.8938,7.9246,7.9083,7.8451,7.8406,7.7816,7.6533,7.6019,7.5726,7.5726,7.4918,7.4515,7.4515,7.4258,7.3854,5.5703,5.5703,5.5703,5.5703,5.5703,5.5703,5.5703,5.5703,5.5703,5.5703,5.5972,5.6357,5.6896,5.7511,5.828,5.9319,5.9781,6.0165,6.0704,6.0781,6.1243,6.2397,6.3743,6.4743,6.5051,6.559,6.5897,6.5897,6.5897,6.5897,6.5897,6.5897,6.6051,6.632,6.6359,6.659,6.709,6.7744,6.8359,6.8898,6.9744,7.0167,7.0167,7.0667,7.0898,7.0898,7.0898,7.0898,0.0,7.0898,7.0898,7.0898,7.0898,7.1091,7.1398,7.1398,7.1591,7.1975,7.2514,7.2706,7.2822,7.3668,7.4168,7.4553,7.5053,7.4861,7.4553,7.5053,7.5592,7.6015,7.6015,7.6015,7.6015,7.6015,7.6015,7.6015,7.6015,7.6015,7.6015,7.6015,7.6015,7.6015,7.6015,7.6015,7.6015,7.6015,7.6015,7.6015,7.6015,7.6015,7.613,7.6476,7.6976,7.7553,7.8207,7.8246,7.8707,7.9746,8.0131,8.0072,7.9556,7.9335,7.8716,7.771,7.6912,7.657,7.657,7.5763,7.5212,7.4918,7.4918,7.4625,0.0,5.5703,5.5703,5.5703,5.5703,5.5703,5.5703,5.5703,0.0,5.578,5.6434,5.7049,5.7165,5.8434,5.9511,5.9588,6.0281,6.0781,6.0781,6.0896,6.1589,6.3205,6.4166,6.5013,6.582,6.5897,6.5897,6.5897,6.5897,6.5897,6.5897,6.5936,6.632,6.709,6.7205,6.7282,6.7282,6.8898,6.9744,6.9783,7.0552,7.0898,7.0898,7.0898,7.0898,7.0898,7.0898,7.0898,7.0898,7.0898,7.0937,7.0975,7.0975,7.1514,7.2283,7.2283,7.2783,7.3514,7.3591,7.3591,7.3745,7.4553,7.5361,7.6015,7.6015,7.6015,7.6015,7.6015,7.6015,7.6015,7.6015,7.6015,7.6015,7.6015,7.6015,7.6015,7.6015,7.6015,7.6015,7.6015,7.6015,7.6015,7.6015,7.6015,7.6015,7.6015,7.6015,7.6015,7.6015,7.6053,7.6399,7.7207,7.74,7.8092,7.9669,7.9823,7.9823,7.99,8.0669,8.0783,8.0125,7.9513,7.8914,7.8309,7.7651,7.7304,7.7304,7.657,7.5799,7.5065,7.5065,7.5065,5.5703,0.0,5.5703,5.5703,5.5703,5.5703,0.0,5.5703,5.5895,0.0,0.0,5.7396,5.8665,5.9242,5.9704,6.0396,6.0666,6.0781,6.0781,6.1897,6.3128,6.4166,6.5051,6.5667,6.5859,6.5897,6.5897,6.5897,6.5897,6.5897,6.5897,6.6474,6.6898,6.709,6.8398,6.909,6.909,6.9513,7.0014,7.0629,7.0821,7.0898,7.0898,7.0898,7.0898,7.0898,7.0898,7.0898,7.0898,7.0898,7.1283,7.1898,7.1898,7.2437,7.3206,7.3206,7.3322,7.3591,7.4207,7.4437,7.4553,7.5438,7.5822,7.6015,7.6015,7.6015,7.6015,7.6015,7.6015,7.6015,7.6015,7.6015,7.6015,7.6015,7.6015,7.6015,7.6015,7.6015,7.6015,7.6015,7.6015,7.6015,7.6015,7.6015,7.6015,7.6015,7.6015,7.6015,7.6015,7.6592,7.7053,7.7284,7.8438,7.9361,7.9785,7.9823,8.0092,8.0746,8.0977,8.0783,8.0125,7.9513,7.8914,7.8309,7.7651,7.7304,7.7304,7.7121,7.6937,7.6754,7.6754,7.6423,5.5703,5.5703,5.5703,5.5703,5.5703,5.5703,5.5703,5.6011,0.0,0.0,0.0,5.8434,5.9319,5.9819,6.0242,6.0704,6.0781,6.0935,6.132,6.2858,6.4089,6.4551,6.5359,6.5897,6.5897,6.5897,6.5897,6.5897,6.5897,6.6051,6.6436,6.6859,6.7475,6.8282,6.9206,6.9706,6.9706,7.0052,7.0475,7.0898,7.0898,7.0898,7.0898,7.0898,7.0898,7.0898,7.0898,7.1129,7.1514,7.1514,7.2014,7.2783,7.2783,7.3322,7.4053,7.4053,7.4322,7.4707,7.5168,7.5284,7.5361,7.5861,7.6015,7.6015,7.6015,7.6015,7.6015,7.6015,7.6015,7.6015,7.6015,7.6015,7.6015,7.6015,7.6015,7.6015,7.6015,7.6015,7.6015,7.6015,7.6015,7.6015,7.6015,7.6015,7.6015,7.6015,7.6015,7.613,7.6553,7.7015,7.7592,7.8361,7.9246,7.9977,8.0362,8.04,8.0592,8.1054,8.1093,8.0959,8.0573,7.9929,7.9198,7.8309,7.7651,7.7304,7.7304,7.7304,7.7304,7.7304,7.7304,7.7084,5.5703,5.5703,5.5703,5.5703,5.5703,5.5742,5.5857,5.6472,0.0,0.0,0.0,5.955,5.9665,6.0281,6.0781,6.0781,6.0896,6.1358,6.2358,6.3705,6.4666,6.4782,6.5436,6.5897,6.5897,6.5897,6.5897,6.5897,6.6013,6.6359,6.7051,6.7359,6.8167,6.9667,6.9821,6.9898,6.9898,7.0552,7.0898,7.0898,7.0898,7.0898,7.0898,7.0898,7.0975,7.1091,7.1091,7.1591,7.2399,7.2399,7.2899,7.3668,7.3668,7.4168,7.4899,7.4899,7.5361,7.6015,7.6015,7.6015,7.6015,7.6015,7.6015,7.6015,7.6015,7.6015,7.6015,7.6015,7.6015,7.6015,7.6015,7.6015,7.6015,7.6015,7.6015,7.6015,7.6015,7.6015,7.6015,7.6015,7.6015,7.6015,7.6015,7.6015,7.6015,7.6015,7.6092,7.6476,7.7207,7.7515,7.8246,7.9669,7.9939,8.0285,8.1054,8.1093,8.1093,8.1093,8.1093,8.1061,8.0959,8.0389,7.9513,7.8309,7.7768,7.7426,7.7304,7.7304,7.7304,7.7304,7.7304,7.7304,5.5703,5.5703,5.5703,5.5703,5.5703,5.5895,5.6626,5.6896,5.7396,5.8819,5.9319,5.9742,6.0473,6.0704,6.0781,6.0781,6.1396,6.2474,6.4152,6.4512,6.4859,6.559,6.582,6.5897,6.5897,6.5897,6.5897,6.5897,6.6513,6.6974,6.709,6.8513,6.9436,6.9706,7.036,7.0706,7.0706,7.0821,7.0898,7.0898,7.0898,7.0898,7.0898,7.0898,7.1283,7.2014,7.2014,7.2514,7.3322,7.3322,7.3783,7.4514,7.4514,7.5053,7.5784,7.5784,7.5899,7.6015,7.6015,7.6015,7.6015,7.6015,7.6015,7.6015,7.6015,7.6015,7.6015,7.6015,7.6015,7.6015,7.6015,7.6015,7.6015,7.6015,7.6015,7.6015,7.6015,7.6015,7.6015,7.6015,7.6015,7.6015,7.6015,7.6015,7.6015,7.6015,7.663,7.713,7.7284,7.8554,7.9515,7.9785,8.0477,8.0939,8.1093,8.1093,8.1093,8.1093,8.1093,8.0855,8.0277,8.0163,7.9513,7.8309,7.82,7.7846,7.7304,7.7304,7.7304,7.7304,7.7304,7.7304,5.5703,5.6049,5.6395,5.6395,5.6395,5.6626,5.7511,5.805,5.855,0.0,5.9858,6.0358,6.0819,6.0896,6.1112,6.1689,6.2858,6.4019,6.4855,6.523,6.5551,6.5936,6.5936,6.5897,6.5897,6.6282,6.6551,6.6551,6.7321,6.8013,6.8475,6.9244,6.9898,7.0321,7.0706,7.0898,7.0898,7.0898,7.0898,7.0898,7.0898,7.1168,7.1591,7.1591,7.2091,7.2899,7.2899,7.3399,7.4168,7.4168,7.463,7.5399,7.5399,7.5668,7.6015,7.6015,7.6015,7.6015,7.6015,7.6015,7.6015,7.6015,7.6015,7.6015,7.6015,7.6015,7.6015,7.6015,7.6015,7.6015,7.6015,7.6015,7.6015,7.6015,7.6015,7.6015,7.6015,7.6015,7.6015,7.6015,7.6015,7.6015,7.6015,7.6399,7.6707,7.6707,7.74,7.813,7.8592,7.9323,7.9977,8.0439,8.0862,8.1093,8.1093,8.1093,8.1093,8.1093,8.1093,8.0959,8.0643,8.0315,7.9723,7.8804,7.8484,7.796,7.7304,7.7304,7.7304,7.7304,7.7304,7.7304,5.6011,5.6626,5.7357,5.755,5.7434,5.755,5.8434,5.9127,0.0,0.0,0.0,6.0935,6.105,6.1263,6.1769,6.3068,6.43,6.5181,6.541,6.5874,6.6144,6.6153,6.6051,6.6013,6.6244,6.6782,6.7167,6.7398,6.8205,6.9013,6.9667,6.9898,7.0244,7.0898,7.0898,7.0898,7.0898,7.0898,7.0898,7.0898,7.1091,7.1552,7.2206,7.2399,7.2976,7.3783,7.3783,7.4245,7.5014,7.5014,7.5399,7.6015,7.6015,7.6015,7.6015,7.6015,7.6015,7.6015,7.6015,7.6015,7.6015,7.6015,7.6015,7.6015,7.6015,7.6015,7.6015,7.6015,7.6015,7.6015,7.6015,7.6015,7.6015,7.6015,7.6015,7.6015,7.6015,7.6015,7.6015,7.6015,7.6015,7.6053,7.6284,7.6861,7.7361,7.7553,7.8284,7.9054,7.9708,7.9977,8.0362,8.1016,8.1093,8.1093,8.1093,8.1093,8.1093,8.1093,8.1093,8.1093,8.1093,8.0608,8.0046,7.9425,7.8853,7.82,7.751,7.7365,7.7304,7.7304,7.7304,7.7304,5.6896,5.755,5.8396,5.9127,5.8781,0.0,5.9457,5.9727,0.0,6.0997,0.0,0.0,6.1304,6.1944,6.306,6.4916,6.5131,6.5445,6.6354,6.6447,6.6367,6.6381,6.623,6.6397,6.7205,6.7167,6.7436,6.8244,6.9129,6.9629,6.9706,7.0398,7.0821,7.0898,7.0898,7.0898,7.0898,7.0898,7.0898,7.0898,7.1706,7.2129,7.2206,7.3053,7.386,7.463,7.463,7.513,7.5899,7.5899,7.5938,7.6015,7.6015,7.6015,7.6015,7.6015,7.6015,7.6015,7.6015,7.6015,7.6015,7.6015,7.6015,7.6015,7.6015,7.6015,7.6015,7.6015,7.6015,7.6015,7.6015,7.6015,7.6015,7.6015,7.6015,7.6015,7.6015,7.6015,7.6015,7.6015,7.6015,7.6245,7.7053,7.7246,7.7553,7.8284,7.9131,7.9746,7.9785,8.0516,8.1016,8.1093,8.1093,8.1093,8.1093,8.1093,8.1093,8.1093,8.1093,8.1093,8.1093,8.1061,8.0716,8.0048,7.9425,7.8853,7.82,7.7629,7.7304,7.7304,7.7304,7.7304,5.7665,5.8511,5.9303,5.9473,5.9742,0.0,0.0,6.0573,6.0702,6.1225,6.1314,0.0,0.0,6.347,6.4716,6.5394,6.5914,6.6348,6.6718,6.6628,6.6505,6.6507,6.6749,6.7029,6.7385,6.8205,6.8859,6.9167,6.9975,7.0437,7.0437,7.0744,7.0898,7.0898,7.0898,7.0898,7.0898,7.1437,7.1706,7.1706,7.2052,7.2745,7.3783,7.4091,7.4707,7.5515,7.5515,7.5707,7.6015,7.6015,7.6015,7.6015,7.6015,7.6015,7.6015,7.6015,7.6015,7.6015,7.6015,7.6015,7.6015,7.6015,7.6015,7.6015,7.6015,7.6015,7.6015,7.6015,7.6015,7.6015,7.6015,7.6015,7.6015,7.6015,7.6015,7.6015,7.6015,7.6015,7.6169,7.6707,7.6823,7.7053,7.79,7.8515,7.8977,7.9246,8.0054,8.0592,8.0592,8.09,8.1093,8.1093,8.1093,8.1093,8.1093,8.1093,8.1093,8.1093,8.1093,8.1093,8.1093,8.1093,8.0783,8.0125,7.9888,7.9469,7.8853,7.8602,7.8272,7.7903,7.7903,7.771,5.855,5.9534,6.0234,6.0094,6.0569,0.0,6.1151,6.113,6.1152,6.1364,6.1651,6.2221,6.3464,6.4723,6.5703,6.5976,6.6523,6.6914,6.6914,6.6797,6.6797,6.707,6.7383,6.7736,6.8219,6.9167,6.986,7.0052,7.0591,7.0898,7.0898,7.0898,7.0898,7.0898,7.1168,7.1321,7.1321,7.2168,7.2745,7.2976,7.2976,7.3591,7.4707,7.4976,7.5438,7.6015,7.6015,7.6015,7.6015,7.6015,7.6015,7.6015,7.6015,7.6015,7.6015,7.6015,7.6015,7.6015,7.6015,7.6015,7.6015,7.6015,7.6015,7.6015,7.6015,7.6015,7.6015,7.6015,7.6015,7.6015,7.6015,7.6015,7.6015,7.6015,7.6015,7.6015,7.6015,7.6207,7.6592,7.7169,7.7515,7.7938,7.8784,7.94,7.99,8.0169,8.0708,8.1093,8.1093,8.1093,8.1093,8.1093,8.1093,8.1093,8.1093,8.1093,8.1093,8.1093,8.1323,8.1362,8.1093,8.1093,8.0888,8.0389,8.0469,8.0347,7.9892,7.9932,7.98,7.9388,7.9388,7.8999,5.9573,6.0535,6.1285,6.1278,6.1307,6.1343,6.1458,6.1402,6.1364,6.1674,6.2422,6.3555,6.5273,6.5625,6.5898,6.6758,6.6914,6.6914,6.6914,6.6914,6.7226,6.8086,6.8047,6.8515,7.0067,7.0014,7.0194,7.086,7.0898,7.0898,7.0898,7.0898,7.0898,7.0898,7.1745,7.2206,7.2206,7.3091,7.3899,7.4707,7.4707,7.4707,7.4745,7.563,7.6015,7.6015,7.6015,7.6015,7.6015,7.6015,7.6015,7.6015,7.6015,7.6015,7.6015,7.6015,7.6015,7.6015,7.6015,7.6015,7.6015,7.6015,7.6015,7.6015,7.6015,7.6015,7.6015,7.6015,7.6015,7.6015,7.6015,7.6015,7.6015,7.6015,7.6015,7.6015,7.6015,7.6669,7.7284,7.7323,7.7977,7.8784,7.9669,7.9823,8.0131,8.0977,8.1093,8.1093,8.1093,8.1093,8.1093,8.1093,8.1093,8.1093,8.1093,8.1093,8.1131,8.1131,8.1862,8.1939,8.1131,8.1131,8.1131,8.1131,8.1305,8.1421,8.1421,8.1641,8.1698,8.1698,8.1698,8.1395,6.0381,6.0964,6.1313,6.1304,6.1384,6.1458,6.1497,6.1477,0.0,0.0,6.3789,6.5,6.5508,6.6094,6.6601,6.6875,6.6914,6.6914,6.6914,6.6914,6.7226,6.8086,6.8555,6.9213,7.0302,7.0641,7.0898,7.1091,7.0975,7.0898,7.0898,7.1014,7.1321,7.1783,7.2206,7.2629,7.3129,7.3937,7.4476,7.4707,7.5322,7.563,7.563,7.5861,7.6015,7.6015,7.6015,7.6015,7.6015,7.6015,7.6015,7.6015,7.6015,7.6015,7.6015,7.6015,7.6015,7.6015,7.6015,7.6015,7.6015,7.6015,7.6015,7.6015,7.6015,7.6015,7.6015,7.6015,7.6015,7.6015,7.6015,7.6015,7.6015,7.6015,7.6015,7.6169,7.6784,7.713,7.763,7.8823,7.9246,7.9708,8.0554,8.0708,8.0785,8.1054,8.1093,8.1093,8.1093,8.1093,8.1093,8.1093,8.1093,8.1323,8.19,8.1939,8.2208,8.2824,8.3093,8.2824,8.1977,8.2516,8.2862,8.2862,8.2924,8.2932,8.2932,8.2983,8.2837,8.2399,8.2399,8.2058,6.092,6.1306,6.1478,6.1478,6.1516,6.1651,6.2021,6.2123,6.248,6.3783,6.4883,6.5703,6.6055,6.6562,6.6914,6.6914,6.6914,6.6914,6.6914,6.7187,6.7734,6.8594,6.9375,7.0117,7.0898,7.1224,7.1359,7.1222,7.1168,7.1091,7.1014,7.1541,7.202,7.2452,7.3215,7.3745,7.4091,7.4899,7.5284,7.5207,7.5745,7.6015,7.6015,7.6015,7.6015,7.6015,7.6015,7.6015,7.6015,7.6015,7.6015,7.6015,7.6015,7.6015,7.6015,7.6015,7.6015,7.6015,7.6015,7.6015,7.6015,7.6015,7.6015,7.6015,7.6015,7.6015,7.6015,7.6015,7.6015,7.6092,7.6438,7.6515,7.6515,7.6515,7.6515,7.6746,7.7592,7.8054,7.8592,7.9592,8.0092,8.0477,8.1016,8.1093,8.1093,8.1093,8.1093,8.1093,8.1093,8.1093,8.1208,8.1554,8.1593,8.19,8.2747,8.2824,8.3016,8.3555,8.3901,8.3862,8.3362,8.3478,8.3593,8.3593,8.3939,8.4132,8.4132,8.4439,8.4421,8.4021,8.4021,8.3674,6.1228,6.159,6.1674,6.1718,6.1762,6.206,6.3008,6.3224,6.3672,6.5273,6.5664,6.5976,6.6758,6.6914,6.6914,6.6914,6.6914,6.6914,6.6992,6.7695,6.8555,6.9492,7.0234,7.0976,7.164,7.1719,7.1572,7.1255,7.1402,7.1453,7.1351,7.2288,7.2871,7.3041,7.4513,7.5246,7.5127,7.5918,7.6207,7.6015,7.6015,7.6015,7.6015,7.6015,7.6015,7.6015,7.6015,7.6015,7.6015,7.6015,7.6015,7.6015,7.6015,7.6015,7.6015,7.6015,7.6015,7.6015,7.6015,7.6015,7.6015,7.6015,7.6015,7.6015,7.6015,7.6015,7.6015,7.6015,7.6053,7.6284,7.7092,7.7361,7.7438,7.7515,7.7476,7.763,7.8438,7.9246,7.9823,7.99,8.0554,8.1093,8.1093,8.1093,8.1093,8.1093,8.1093,8.1131,8.1208,8.1208,8.1516,8.2324,8.2401,8.2747,8.3632,8.3708,8.3747,8.3824,8.4555,8.5016,8.5016,8.4247,8.3824,8.3824,8.4593,8.5016,8.5016,8.5747,8.6094,8.6094,8.6094,8.5775,6.1381,6.152,6.1555,6.1665,6.2214,6.312,6.4687,6.5029,6.5156,6.5508,6.6133,6.668,6.6875,6.6914,6.6914,6.6914,6.6914,6.7148,6.7812,6.8086,6.875,7.0273,7.0586,7.1015,7.1875,7.1797,7.1675,7.1597,7.1533,7.1772,7.2436,7.277,7.3489,7.4729,7.5287,7.5767,7.6259,7.6314,7.6284,7.6207,7.6092,7.6015,7.6015,7.6015,7.6015,7.6015,7.6015,7.6015,7.6015,7.6015,7.6015,7.6015,7.6015,7.6015,7.6015,7.6015,7.6015,7.6015,7.6015,7.6015,7.6015,7.6015,7.6015,7.6015,7.6015,7.6015,7.6015,7.6015,7.6476,7.7053,7.7246,7.7746,7.84,7.9092,7.8746,7.8477,7.9323,7.9669,8.0015,8.0708,8.0977,8.1093,8.1093,8.1093,8.1093,8.1093,8.1093,8.1323,8.1939,8.2054,8.2362,8.3208,8.3324,8.367,8.4555,8.4632,8.4901,8.5517,8.5747,8.5863,8.5863,8.567,8.5555,8.5555,8.5747,8.5863,8.5863,8.6017,8.6094,8.6094,8.6094,8.6026,6.1536,6.1589,6.1695,6.218,6.2969,6.3984,6.5312,6.5937,6.6211,6.6211,6.6562,6.6914,6.6914,6.6914,6.6914,6.6914,6.7265,6.7695,6.8125,6.8906,6.9726,7.0586,7.1055,7.1484,7.1953,7.1914,7.1797,7.1719,7.211,7.2524,7.287,7.3829,7.4755,7.5553,7.6085,7.6475,7.6755,7.6643,7.6506,7.6284,7.6169,7.6092,7.6015,7.6015,7.6015,7.6015,7.6015,7.6015,7.6015,7.6015,7.6015,7.6015,7.6015,7.6015,7.6015,7.6015,7.6015,7.6015,7.6015,7.6015,7.6015,7.6015,7.6015,7.6015,7.6015,7.6284,7.663,7.663,7.7207,7.7977,7.84,7.8823,7.9323,8.0208,7.9746,7.9361,8.0246,8.0439,8.0554,8.1016,8.1093,8.1093,8.1093,8.1093,8.1246,8.1631,8.167,8.1977,8.2824,8.2901,8.3247,8.4132,8.4209,8.4555,8.5401,8.5478,8.567,8.6055,8.6094,8.6094,8.6094,8.6094,8.6094,8.6094,8.6094,8.6094,8.6094,8.6094,8.6094,8.6094,8.6094,8.6094,6.1651,6.1797,6.2148,6.3008,6.3867,6.4765,6.5625,6.6367,6.6914,6.6914,6.6914,6.6914,6.6914,6.6914,6.6953,6.7109,6.7734,6.8281,6.8594,6.9844,7.0742,7.0898,7.1562,7.1992,7.1992,7.1992,7.1992,7.1992,7.2812,7.3374,7.3502,7.5022,7.5976,7.6133,7.6836,7.7109,7.6953,7.691,7.6752,7.6399,7.6322,7.6169,7.6015,7.6015,7.6015,7.6015,7.6015,7.6015,7.6015,7.6015,7.6015,7.6015,7.6015,7.6015,7.6015,7.6015,7.6015,7.6015,7.6015,7.6015,7.6015,7.6015,7.6015,7.6015,7.6169,7.6746,7.7323,7.7476,7.8092,7.89,7.9631,7.99,8.0208,8.0939,8.0554,8.0208,8.0939,8.1093,8.1093,8.1093,8.1093,8.1093,8.1093,8.1208,8.1516,8.2208,8.2439,8.2824,8.3708,8.3824,8.4132,8.5016,8.5132,8.5401,8.6055,8.6094,8.6094,8.6094,8.6094,8.6094,8.6094,8.6094,8.6094,8.6094,8.6094,8.6094,8.6094,8.6094,8.6094,8.6094,8.6094,8.6094,6.1651,6.2265,6.3047,6.3906,6.4765,6.5664,6.6523,6.6836,6.6914,6.6914,6.6914,6.6914,6.6914,6.6914,6.7148,6.789,6.8125,6.8711,7.0156,7.0547,7.0976,7.1758,7.1914,7.1992,7.1992,7.1992,7.2305,7.3047,7.3203,7.3944,7.5412,7.5778,7.625,7.6992,7.7148,7.7187,7.7148,7.6983,7.6858,7.6813,7.6438,7.6169,7.6015,7.6015,7.6015,7.6015,7.6015,7.6015,7.6015,7.6015,7.6015,7.6015,7.6015,7.6015,7.6015,7.6015,7.6015,7.6015,7.6015,7.6015,7.6015,7.6015,7.6015,7.613,7.6899,7.7207,7.7438,7.813,7.8977,7.9669,7.9785,8.0362,8.0977,8.1054,8.1016,8.0977,8.1054,8.1093,8.1093,8.1093,8.1093,8.1093,8.1093,8.167,8.217,8.2285,8.2939,8.3747,8.4632,8.4747,8.5055,8.5863,8.594,8.5978,8.6094,8.6094,8.6094,8.6094,8.6094,8.6094,8.6094,8.6094,8.6094,8.6094,8.6094,8.6094,8.6094,8.6094,8.6094,8.6094,8.6094,8.6094,6.2299,6.2695,6.332,6.4687,6.5312,6.582,6.6719,6.6914,6.6914,6.6914,6.6914,6.6914,6.6914,6.7305,6.7734,6.8125,6.8984,6.9844,7.0586,7.1133,7.1562,7.1953,7.1992,7.1992,7.1992,7.2422,7.289,7.3281,7.4219,7.5078,7.5859,7.6367,7.6797,7.7187,7.7187,7.7187,7.7187,7.7109,7.7005,7.6923,7.649,7.6245,7.6169,7.6053,7.6015,7.6015,7.6015,7.6015,7.6015,7.6015,7.6015,7.6015,7.6015,7.6015,7.6015,7.6015,7.6015,7.6015,7.6015,7.6015,7.6092,7.6553,7.6746,7.6861,7.7707,7.8323,7.8784,7.9131,7.9862,8.0516,8.0516,8.0823,8.1093,8.1093,8.1093,8.1093,8.1093,8.1093,8.1093,8.1093,8.1477,8.1785,8.1785,8.2477,8.317,8.367,8.4093,8.4632,8.5478,8.5555,8.5709,8.6055,8.6094,8.6094,8.6094,8.6094,8.6094,8.6094,8.6094,8.6094,8.6094,8.6094,8.6094,8.6094,8.6094,8.6094,8.6094,8.6094,8.6094,8.6094,8.6094,8.6094,6.2773,6.3164,6.3711,6.5234,6.5781,6.6094,6.6758,6.6914,6.6914,6.6914,6.6914,6.6953,6.7187,6.7773,6.8359,6.8789,6.9883,7.0781,7.1015,7.1601,7.1992,7.1992,7.1992,7.2109,7.2305,7.293,7.3476,7.3945,7.5156,7.6015,7.6211,7.6836,7.7187,7.7187,7.7187,7.7187,7.7187,7.7187,7.7109,7.6914,7.6549,7.6365,7.6284,7.6092,7.6015,7.6015,7.6015,7.6015,7.6015,7.6015,7.6015,7.6015,7.6015,7.6015,7.6015,7.6015,7.6015,7.6015,7.6015,7.613,7.6438,7.7092,7.7438,7.7746,7.8592,7.9285,7.9862,8.0092,8.0592,8.1093,8.1093,8.1093,8.1093,8.1093,8.1093,8.1093,8.1093,8.1093,8.117,8.1362,8.19,8.2362,8.2593,8.3362,8.4132,8.4786,8.5093,8.544,8.6017,8.6094,8.6094,8.6094,8.6094,8.6094,8.6094,8.6094,8.6094,8.6094,8.6094,8.6094,8.6094,8.6094,8.6094,8.6094,8.6094,8.6094,8.6094,8.6094,8.6094,8.6094,8.6094,8.6094,6.2773,6.3594,6.4453,6.5351,6.6211,6.6836,6.6875,6.6914,6.6914,6.6914,6.6914,6.7148,6.7969,6.8164,6.8711,7.0312,7.0625,7.0976,7.1836,7.1953,7.1992,7.1992,7.1992,7.2305,7.3164,7.3281,7.3984,7.5625,7.5859,7.625,7.7109,7.7187,7.7187,7.7187,7.7187,7.7187,7.7187,7.7187,7.7109,7.6914,7.6682,7.6477,7.6284,7.6092,7.6015,7.6015,7.6015,7.6015,7.6015,7.6015,7.6015,7.6015,7.6015,7.6015,7.6015,7.6015,7.6015,7.6015,7.6015,7.6553,7.7246,7.7284,7.7823,7.8592,7.9477,7.9746,7.9977,8.0785,8.1054,8.1093,8.1093,8.1093,8.1093,8.1093,8.1093,8.1093,8.1093,8.1093,8.1323,8.2093,8.2285,8.2554,8.3401,8.4247,8.4863,8.4901,8.5555,8.6055,8.6094,8.6094,8.6094,8.6094,8.6094,8.6094,8.6094,8.6094,8.6094,8.6094,8.6094,8.6094,8.6094,8.6094,8.6094,8.6094,8.6094,8.6094,8.6094,8.6094,8.6094,8.6094,8.6094,8.6094,6.3594,6.4453,6.5351,6.6211,6.668,6.6914,6.6914,6.6914,6.6914,6.6914,6.7344,6.8008,6.8828,6.8984,6.9336,7.0508,7.1172,7.164,7.1953,7.1992,7.1992,7.1992,7.1992,7.2344,7.3203,7.3828,7.4648,7.582,7.6406,7.6875,7.7187,7.7187,7.7187,7.7187,7.7187,7.7187,7.7187,7.7187,7.7148,7.7109,7.6896,7.6702,7.6506,7.6284,7.613,7.6015,7.6015,7.6015,7.6015,7.6015,7.6015,7.6015,7.6015,7.6015,7.6015,7.6015,7.6361,7.6823,7.6823,7.7361,7.8169,7.8707,7.9092,7.9515,8.0362,8.0631,8.0708,8.1016,8.1093,8.1093,8.1093,8.1093,8.1093,8.1093,8.1477,8.1862,8.1862,8.1862,8.1939,8.2247,8.3208,8.4055,8.4362,8.5132,8.567,8.567,8.594,8.6094,8.6094,8.6094,8.6094,8.6094,8.6094,8.6094,8.6094,8.6094,8.6094,8.6094,8.6094,8.6094,8.6094,8.6094,8.6094,8.6094,8.6094,8.6094,8.6094,8.6094,8.6094,8.6094,8.6094,8.6094,6.4414,6.5156,6.582,6.668,6.6914,6.6914,6.6914,6.6914,6.6992,6.7265,6.7812,6.8555,6.9648,6.9844,7.0117,7.0976,7.1601,7.1992,7.1992,7.1992,7.1992,7.1992,7.2265,7.2773,7.3633,7.4531,7.539,7.6289,7.6875,7.7187,7.7187,7.7187,7.7187,7.7187,7.7187,7.7187,7.7187,7.7187,7.7187,7.7187,7.6992,7.6809,7.6691,7.6495,7.6284,7.6092,7.6092,7.6053,7.6015,7.6015,7.6015,7.6015,7.6015,7.6015,7.6053,7.6322,7.6784,7.7323,7.7592,7.8246,7.9015,7.9631,8.0015,8.0323,8.0939,8.1093,8.1093,8.1093,8.1093,8.1093,8.1093,8.1093,8.117,8.1439,8.19,8.2362,8.267,8.2747,8.2824,8.3131,8.4132,8.4978,8.5247,8.5747,8.6094,8.6094,8.6094,8.6094,8.6094,8.6094,8.6094,8.6094,8.6094,8.6094,8.6094,8.6094,8.6094,8.6094,8.6094,8.6094,8.6094,8.6094,8.6247,8.6517,8.6555,8.6671,8.6978,8.6671,8.6555,8.6555,8.6824,8.6978,0.0,0.0,0.0,6.668,6.6914,6.6914,6.6914,6.6914,6.7187,6.8047,6.8242,6.8789,7.039,7.0703,7.1015,7.1875,7.1992,7.1992,7.1992,7.1992,7.1992,7.2031,7.2773,7.3633,7.4531,7.539,7.625,7.7148,7.7187,7.7187,7.7187,7.7187,7.7187,7.7187,7.7187,7.7187,7.7187,7.7187,7.7187,7.7187,7.6992,7.6914,7.6874,7.6691,7.6496,7.6313,7.6313,7.6169,7.6015,7.6015,7.6015,7.6015,7.6015,7.6053,7.613,7.7015,7.7361,7.7476,7.8246,7.9092,7.9862,7.9862,8.04,8.1093,8.1093,8.1093,8.1093,8.1093,8.1093,8.1093,8.1093,8.1131,8.1323,8.2093,8.2324,8.2593,8.3439,8.367,8.3901,8.4747,8.4939,8.517,8.5978,8.6094,8.6094,8.6094,8.6094,8.6094,8.6094,8.6094,8.6094,8.6094,8.6094,8.6094,8.6094,8.6094,8.6094,8.6094,8.6094,8.6094,8.6132,8.6132,8.6555,8.7401,8.744,8.7863,8.8709,8.7863,8.744,8.744,8.8286,8.8709,6.5469,0.0,0.0,0.0,0.0,0.0,6.6914,6.7383,6.789,6.8164,6.914,7.0156,7.0625,7.1211,7.1719,7.1953,7.1992,7.1992,7.1992,7.1992,7.2226,7.2851,7.3164,7.3906,7.539,7.5742,7.625,7.7148,7.7187,7.7187,7.7187,7.7187,7.7187,7.7187,7.7187,7.7187,7.7187,7.7187,7.7187,7.7187,7.7148,7.7031,7.6914,7.6834,7.6715,7.6497,7.6379,7.6245,7.6207,7.6053,7.6015,7.6053,7.6669,7.6938,7.7053,7.7861,7.8554,7.9131,7.9361,8.0015,8.0746,8.0746,8.09,8.1093,8.1093,8.1093,8.1093,8.1093,8.1093,8.1093,8.1093,8.1516,8.2016,8.2247,8.3247,8.4247,8.4478,8.5016,8.5324,8.4978,8.5363,8.5863,8.6055,8.6094,8.6094,8.6094,8.6094,8.6094,8.6094,8.6094,8.6094,8.6094,8.6094,8.6094,8.6094,8.6094,8.6094,8.6094,8.6094,8.6363,8.7017,8.7055,8.744,8.8325,8.8325,8.844,8.8709,8.844,8.8325,8.8363,8.8594,8.8709,0.0,0.0,0.0,6.6914,0.0,0.0,6.6914,6.7578,6.8281,6.8672,6.9805,7.082,7.1172,7.164,7.1992,7.1992,7.1992,7.1992,7.1992,7.1992,7.2305,7.3203,7.3633,7.4375,7.5781,7.6211,7.664,7.7148,7.7187,7.7187,7.7187,7.7187,7.7187,7.7187,7.7187,7.7187,7.7187,7.7187,7.7187,7.7187,7.7187,7.7148,7.7031,7.7031,7.6899,7.6722,7.6614,7.663,7.6823,7.6707,7.663,7.6592,7.7092,7.7515,7.79,7.8746,7.9361,7.9862,8.0208,8.0669,8.1093,8.1093,8.1093,8.1093,8.1093,8.1093,8.1093,8.1093,8.1093,8.117,8.1516,8.1939,8.2477,8.3208,8.417,8.4978,8.5324,8.5786,8.5978,8.5478,8.5786,8.6094,8.6094,8.6094,8.6094,8.6094,8.6094,8.6094,8.6094,8.6094,8.6094,8.6094,8.6094,8.6094,8.6094,8.6094,8.6247,8.6632,8.6632,8.7017,8.7902,8.794,8.8325,8.9171,8.921,8.9363,8.9748,8.9363,8.9402,8.9748,8.9748,8.9748,0.0,0.0,0.0,0.0,6.6914,0.0,6.7031,6.7695,6.8594,6.9453,7.0273,7.1094,7.1875,7.1992,7.1992,7.1992,7.1992,7.1992,7.1992,7.207,7.2461,7.3359,7.4219,7.5078,7.5976,7.6758,7.7187,7.7187,7.7187,7.7187,7.7187,7.7187,7.7187,7.7187,7.7187,7.7187,7.7187,7.7187,7.7187,7.7187,7.7187,7.7187,7.7187,7.7187,7.7109,7.6951,7.7,7.7263,7.7669,7.7746,7.763,7.7438,7.7553,7.8015,7.8746,7.9631,7.9939,8.0054,8.0823,8.1093,8.1093,8.1093,8.1093,8.1093,8.1093,8.1093,8.1131,8.1208,8.1246,8.14,8.2247,8.2516,8.2978,8.4516,8.4978,8.5247,8.594,8.6094,8.6094,8.6094,8.6094,8.6094,8.6094,8.6094,8.6094,8.6094,8.6094,8.6094,8.6094,8.6094,8.6094,8.6094,8.6094,8.6132,8.6247,8.6247,8.6632,8.7478,8.7555,8.794,8.8786,8.8825,8.921,9.0056,9.0056,9.0441,9.121,9.0441,9.0441,9.121,9.121,9.121,0.0,0.0,0.0,0.0,6.6914,0.0,6.7773,6.8594,6.9414,7.0273,7.1133,7.1797,7.1953,7.1992,7.1992,7.1992,7.1992,7.1992,7.1992,7.2617,7.3359,7.4258,7.5117,7.5976,7.6875,7.7109,7.7187,7.7187,7.7187,7.7187,7.7187,7.7187,7.7187,7.7187,7.7187,7.7187,7.7187,7.7187,7.7187,7.7187,7.7187,7.7187,7.7187,7.7187,7.7187,7.7187,7.7712,7.7983,7.8092,7.8699,7.8661,7.8323,7.9054,7.94,7.9669,8.0516,8.0862,8.0862,8.1054,8.1093,8.1093,8.1093,8.1093,8.1093,8.1093,8.1093,8.1246,8.1862,8.2054,8.2247,8.3131,8.3862,8.4478,8.4824,8.5401,8.5901,8.6055,8.6094,8.6094,8.6094,8.6094,8.6094,8.6094,8.6094,8.6094,8.6094,8.6094,8.6094,8.6094,8.6094,8.6094,8.6094,8.6094,8.6363,8.7094,8.7132,8.7517,8.8402,8.844,8.8825,8.9633,8.9671,9.0056,9.0941,9.0941,9.1018,9.121,9.1018,9.1018,9.121,9.121,9.121,0.0,0.0,0.0,6.6914,0.0,0.0,0.0,6.914,7.0156,7.0625,7.1406,7.1992,7.1992,7.1992,7.1992,7.1992,7.1992,7.2148,7.2578,7.3008,7.3633,7.4492,7.5351,7.625,7.7109,7.7187,7.7187,7.7187,7.7187,7.7187,7.7187,7.7187,7.7187,7.7187,7.7187,7.7187,7.7187,7.7187,7.7187,7.7187,7.7187,7.7187,7.7187,7.7187,7.7422,7.7851,7.8203,7.8786,7.947,7.9816,8.0007,8.0105,8.0,8.0131,8.0516,8.0939,8.1093,8.1093,8.1093,8.1093,8.1093,8.1093,8.1093,8.1093,8.1093,8.1362,8.1785,8.217,8.2593,8.3131,8.4016,8.4555,8.5016,8.5401,8.5824,8.6094,8.6094,8.6094,8.6094,8.6094,8.6094,8.6094,8.6094,8.6094,8.6094,8.6094,8.6094,8.6094,8.6094,8.6094,8.6286,8.6709,8.6748,8.7094,8.7979,8.8055,8.8402,8.9248,8.9286,8.9671,9.0517,9.0556,9.0748,9.121,9.121,9.121,9.121,9.121,9.121,9.121,9.121,9.121,0.0,0.0,0.0,0.0,0.0,6.8281,0.0,0.0,0.0,7.0937,7.1523,7.1992,7.1992,7.1992,7.1953,7.1797,7.1875,7.2265,7.2969,7.3359,7.3867,7.4765,7.5625,7.6445,7.7148,7.7187,7.7187,7.7187,7.7187,7.7187,7.7187,7.7187,7.7187,7.7187,7.7187,7.7187,7.7187,7.7187,7.7187,7.7187,7.7187,7.7187,7.7226,7.7383,7.7812,7.8515,7.8828,7.9648,8.0779,8.0919,8.1307,8.1648,8.0717,8.0669,8.1131,8.1093,8.1093,8.1093,8.1093,8.1093,8.1093,8.1093,8.1093,8.1131,8.1285,8.1785,8.2362,8.2708,8.3324,8.4055,8.4901,8.5132,8.5286,8.594,8.6094,8.6094,8.6094,8.6094,8.6094,8.6094,8.6094,8.6094,8.6094,8.6094,8.6094,8.6094,8.6094,8.6094,8.6094,8.6247,8.6632,8.7325,8.7555,8.7979,8.8863,8.894,8.9286,9.0094,9.0171,9.0479,9.1171,9.121,9.121,9.121,9.121,9.121,9.121,9.121,9.121,9.121,9.121,9.121,0.0,0.0,0.0,0.0,6.8125,0.0,7.0078,0.0,7.0937,7.168,0.0,7.1992,7.1992,0.0,0.0,7.0976,7.1484,7.2031,7.2148,7.3476,7.4765,7.5664,7.6523,7.7109,7.7187,7.7187,7.7187,7.7187,7.7187,7.7187,7.7187,7.7187,7.7187,7.7187,7.7187,7.7187,7.7187,7.7187,7.7187,7.7187,7.7187,7.7187,7.7226,7.8008,7.8398,7.8594,8.0078,8.082,8.1015,8.179,8.2062,8.192,8.1451,8.1285,8.1323,8.117,8.1093,8.1093,8.1093,8.1093,8.1093,8.1093,8.1093,8.1246,8.1939,8.2247,8.2631,8.417,8.467,8.4939,8.5747,8.5978,8.5978,8.6094,8.6094,8.6094,8.6094,8.6094,8.6094,8.6094,8.6094,8.6094,8.6094,8.6094,8.6094,8.6094,8.6094,8.6094,8.6094,8.6786,8.7286,8.7401,8.8094,8.8863,8.971,8.9748,9.0133,9.1018,9.1056,9.1095,9.121,9.121,9.121,9.121,9.121,9.121,9.121,9.121,9.121,9.121,9.121,9.121,0.0,0.0,0.0,0.0,0.0,0.0,7.0547,0.0,7.1562,7.1914,0.0,0.0,0.0,0.0,0.0,0.0,7.2187,7.293,7.3437,7.457,7.5508,7.5859,7.668,7.7187,7.7187,7.7187,7.7187,7.7187,7.7187,7.7187,7.7187,7.7187,7.7187,7.7187,7.7187,7.7187,7.7187,7.7187,7.7187,7.7187,7.7187,7.7461,7.7969,7.832,7.9023,8.0,8.0703,8.1289,8.1797,8.2148,8.2256,8.2163,8.1867,8.1677,8.1554,8.1323,8.1246,8.1246,8.1131,8.1093,8.1093,8.1093,8.14,8.1862,8.2208,8.3016,8.3978,8.4709,8.5247,8.567,8.6017,8.6094,8.6094,8.6094,8.6094,8.6094,8.6094,8.6094,8.6094,8.6094,8.6094,8.6094,8.6094,8.6094,8.6094,8.6094,8.6517,8.6863,8.6863,8.7632,8.8325,8.8786,8.9171,8.9748,9.0594,9.0671,9.0825,9.1171,9.121,9.121,9.121,9.121,9.121,9.121,9.121,9.121,9.121,9.121,9.121,9.121,9.121,9.121,6.7187,0.0,0.0,0.0,0.0,0.0,0.0,0.0,0.0,7.1992,7.1992,0.0,0.0,0.0,7.1992,7.1992,0.0,7.3594,7.4492,7.5351,7.5976,7.6211,7.6797,7.7187,7.7187,7.7187,7.7187,7.7187,7.7187,7.7187,7.7187,7.7187,7.7187,7.7187,7.7187,7.7187,7.7187,7.7187,7.7187,7.7187,7.7422,7.789,7.8515,7.8984,7.9844,8.1015,8.125,8.1719,8.2304,8.2304,8.2304,8.2304,8.2148,8.1997,8.1817,8.1569,8.1456,8.1362,8.1208,8.117,8.1208,8.1439,8.19,8.2477,8.2862,8.3901,8.4939,8.517,8.567,8.6094,8.6094,8.6094,8.6094,8.6094,8.6094,8.6094,8.6094,8.6094,8.6094,8.6094,8.6094,8.617,8.644,8.6247,8.617,8.644,8.6978,8.7478,8.7709,8.8479,8.9248,8.9863,9.0133,9.0517,9.1171,9.121,9.121,9.121,9.121,9.121,9.121,9.121,9.121,9.121,9.121,9.121,9.121,9.121,9.121,9.121,9.121,9.121,6.793,6.8164,6.8594,7.0195,0.0,0.0,0.0,0.0,7.1992,0.0,0.0,7.1992,7.1992,0.0,0.0,0.0,0.0,0.0,0.0,7.5351,7.6211,7.707,7.7187,7.7187,7.7187,7.7187,7.7187,7.7187,7.7187,7.7187,7.7187,7.7187,7.7187,7.7187,7.7187,7.7187,7.7187,7.7187,7.7187,7.7226,7.8047,7.8476,7.8555,8.0195,8.0937,8.1054,8.1875,8.2265,8.2304,8.2304,8.2304,8.2304,8.2304,8.2304,8.2219,8.1844,8.1569,8.14,8.1362,8.1362,8.1516,8.2285,8.2593,8.2862,8.4362,8.4863,8.5055,8.5863,8.6094,8.6094,8.6094,8.6094,8.6094,8.6094,8.6094,8.6094,8.6094,8.6094,8.6094,8.6094,8.6094,8.6363,8.7209,8.6671,8.6401,8.7209,8.7363,8.7709,8.8556,8.9363,8.9863,8.9902,9.0671,9.1171,9.121,9.121,9.121,9.121,9.121,9.121,9.121,9.121,9.121,9.121,9.121,9.121,9.121,9.121,9.121,9.121,9.121,9.121,6.8828,6.9453,7.0,7.0547,7.1133,7.164,0.0,0.0,0.0,0.0,0.0,0.0,0.0,0.0,0.0,0.0,0.0,0.0,0.0,7.6211,7.6875,7.7148,7.7187,7.7187,7.7187,7.7187,7.7187,7.7187,7.7187,7.7187,7.7187,7.7187,7.7187,7.7187,7.7187,7.7187,7.7187,7.7187,7.7187,7.7226,7.8086,7.8789,7.9336,8.0469,8.1328,8.1875,8.2187,8.2304,8.2304,8.2304,8.2304,8.2304,8.2304,8.2304,8.2265,8.2012,8.1843,8.1778,8.1662,8.198,8.2492,8.2764,8.3605,8.4587,8.501,8.5478,8.5978,8.6055,8.6094,8.6094,8.6094,8.6094,8.6094,8.6094,8.6094,8.6094,8.6094,8.6094,8.6286,8.6863,8.6978,8.7248,8.8094,8.8017,8.7902,8.8209,8.8709,8.9171,8.9479,9.0248,9.0748,9.0748,9.1018,9.121,9.121,9.121,9.121,9.121,9.121,9.121,9.121,9.121,9.121,9.121,9.121,9.121,9.121,9.121,9.121,9.121,9.121,9.121,6.9687,7.0312,7.0781,7.1094,7.1562,7.1992,7.1992,7.1992,7.1992,0.0,0.0,0.0,0.0,0.0,0.0,0.0,0.0,0.0,0.0,7.6836,7.7187,7.7187,7.7187,7.7187,7.7187,7.7187,7.7187,7.7187,7.7187,7.7187,7.7187,7.7187,7.7187,7.7187,7.7187,7.7187,7.7187,7.7187,7.7344,7.7656,7.8515,7.9375,8.0195,8.1054,8.1758,8.2304,8.2304,8.2304,8.2304,8.2304,8.2304,8.2304,8.2304,8.2304,8.2265,8.2148,8.2054,8.2044,8.2189,8.2637,8.3213,8.3792,8.4723,8.5657,8.5733,8.6152,8.6555,8.6324,8.6247,8.6209,8.6132,8.6094,8.6094,8.6094,8.6094,8.6094,8.6094,8.6324,8.6748,8.7286,8.7632,8.8132,8.8979,8.9133,8.9133,8.9133,8.9556,9.0017,9.0325,9.0864,9.121,9.121,9.121,9.121,9.121,9.121,9.121,9.121,9.121,9.121,9.121,9.121,9.1056,9.0748,9.1056,9.1056,9.0748,9.1056,9.121,9.121,9.121,9.121]},{"header":{"parameterUnit":"m.s-1","parameterCategory":1,"la1":30.6,"la2":29.2853,"lo1":-89.7004,"lo2":-87.6739,"dy":0.0162,"dx":0.0183,"nx":112,"ny":82,"refTime":"2024-03-24T06:00:00:Z","depth":0,"parameterNumber":3,"parameterNumberName":"V-component_of_WINDS"},"data":[0.0,0.0,0.0,0.0,0.0,0.0,0.0,0.0,0.0,0.0,0.0,0.0,0.0,0.0,0.0,0.0,0.0,0.0,0.0,0.0,0.0,0.0,0.0,0.0,0.0,0.0,0.0,0.0,0.0,0.0,0.0,0.0,0.0,0.0,0.0,0.0,0.0,0.0,0.0,0.0,0.0,0.0,0.0,0.0,0.0,0.0,0.0,0.0,0.0,0.0,0.0,0.0,0.0,0.0,0.0,0.0,0.0,0.0,0.0,0.0,0.0,0.0,0.0,0.0,0.0,0.0,0.0,0.0,0.0,0.0,0.0,0.0,0.0,0.0,0.0,0.0,0.0,0.0,0.0,0.0,0.0,0.0,0.0,0.0,0.0,0.0,0.0,0.0,0.0,0.0,-1.2501,-1.2501,-1.2501,-1.2501,-1.2501,-1.2501,-1.2501,-1.2501,0.0,0.0,0.0,0.0,0.0,0.0,0.0,0.0,0.0,0.0,0.0,0.0,0.0,0.0,0.0,0.0,0.0,0.0,0.0,0.0,0.0,0.0,0.0,0.0,0.0,0.0,0.0,0.0,0.0,0.0,0.0,0.0,0.0,0.0,0.0,0.0,0.0,0.0,0.0,0.0,0.0,0.0,0.0,0.0,0.0,0.0,0.0,0.0,0.0,0.0,0.0,0.0,0.0,0.0,0.0,0.0,0.0,0.0,0.0,0.0,0.0,0.0,0.0,0.0,0.0,0.0,0.0,0.0,0.0,0.0,0.0,0.0,0.0,0.0,0.0,0.0,0.0,0.0,0.0,0.0,0.0,0.0,0.0,0.0,0.0,0.0,0.0,0.0,0.0,0.0,0.0,0.0,0.0,0.0,0.0,0.0,0.0,0.0,0.0,0.0,0.0,0.0,0.0,0.0,-1.2501,-1.2501,-1.2501,-1.2501,-1.2501,-1.2501,-1.2501,-1.2501,0.0,0.0,0.0,0.0,0.0,0.0,0.0,0.0,0.0,0.0,0.0,0.0,0.0,0.0,0.0,0.0,0.0,0.0,0.0,0.0,0.0,0.0,0.0,0.0,0.0,0.0,0.0,0.0,0.0,0.0,0.0,0.0,0.0,0.0,0.0,0.0,0.0,0.0,0.0,0.0,0.0,0.0,0.0,0.0,0.0,0.0,0.0,0.0,0.0,0.0,0.0,0.0,0.0,0.0,0.0,0.0,0.0,0.0,0.0,0.0,0.0,0.0,0.0,0.0,0.0,0.0,0.0,0.0,0.0,0.0,0.0,0.0,0.0,0.0,0.0,0.0,0.0,0.0,0.0,0.0,0.0,0.0,0.0,0.0,0.0,0.0,0.0,0.0,0.0,0.0,0.0,0.0,0.0,0.0,0.0,0.0,0.0,0.0,0.0,0.0,0.0,0.0,0.0,-1.2501,-1.2501,-1.2501,-1.2501,-1.2501,-1.2501,-1.2501,-1.2501,-1.2501,-1.2501,0.0,0.0,0.0,0.0,0.0,0.0,0.0,0.0,0.0,0.0,0.0,0.0,0.0,0.0,0.0,0.0,0.0,0.0,0.0,0.0,0.0,0.0,0.0,0.0,0.0,0.0,0.0,0.0,0.0,0.0,0.0,0.0,0.0,0.0,0.0,0.0,0.0,0.0,0.0,0.0,0.0,0.0,0.0,0.0,0.0,0.0,0.0,0.0,0.0,0.0,0.0,0.0,0.0,0.0,0.0,0.0,0.0,0.0,0.0,0.0,0.0,0.0,0.0,0.0,0.0,0.0,0.0,0.0,0.0,0.0,0.0,0.0,0.0,0.0,0.0,0.0,0.0,0.0,0.0,0.0,0.0,0.0,0.0,0.0,0.0,0.0,0.0,0.0,0.0,0.0,0.0,0.0,0.0,0.0,0.0,0.0,0.0,0.0,0.0,0.0,0.0,0.0,-1.2481,-1.2501,-1.2501,-1.2501,-1.2501,-1.2501,-1.2501,-1.2501,-1.2501,-1.2501,0.0,0.0,0.0,0.0,0.0,0.0,0.0,0.0,0.0,0.0,0.0,0.0,0.0,0.0,0.0,0.0,0.0,0.0,0.0,0.0,0.0,0.0,0.0,0.0,0.0,0.0,0.0,0.0,0.0,0.0,0.0,0.0,0.0,0.0,0.0,0.0,0.0,0.0,0.0,0.0,0.0,0.0,0.0,0.0,0.0,0.0,0.0,0.0,0.0,0.0,0.0,0.0,0.0,0.0,0.0,0.0,0.0,0.0,0.0,0.0,0.0,0.0,0.0,0.0,0.0,0.0,0.0,0.0,0.0,0.0,0.0,0.0,0.0,0.0,0.0,0.0,0.0,0.0,0.0,0.0,0.0,0.0,0.0,0.0,0.0,0.0,0.0,0.0,0.0,0.0,0.0,0.0,0.0,0.0,0.0,0.0,0.0,0.0,0.0,0.0,0.0,0.0,-1.242,-1.2501,-1.2501,-1.2501,-1.2501,-1.2501,-1.2501,-1.2501,-1.2501,-1.2501,0.0,0.0,0.0,0.0,0.0,0.0,0.0,0.0,0.0,0.0,0.0,0.0,0.0,0.0,0.0,0.0,0.0,0.0,0.0,0.0,0.0,0.0,0.0,0.0,0.0,0.0,0.0,0.0,0.0,0.0,0.0,0.0,0.0,0.0,0.0,0.0,0.0,0.0,0.0,0.0,0.0,0.0,0.0,0.0,0.0,0.0,0.0,0.0,0.0,0.0,0.0,0.0,0.0,0.0,0.0,0.0,0.0,0.0,0.0,0.0,0.0,0.0,0.0,0.0,0.0,0.0,0.0,0.0,0.0,0.0,0.0,0.0,0.0,0.0,0.0,0.0,0.0,0.0,0.0,0.0,0.0,0.0,0.0,0.0,0.0,0.0,0.0,0.0,0.0,0.0,0.0,0.0,0.0,0.0,0.0,0.0,0.0,0.0,0.0,0.0,0.0,0.0,-1.2413,-1.2501,-1.2501,-1.2501,-1.2501,-1.2501,-1.2501,-1.2501,-1.2501,0.0,0.0,0.0,0.0,0.0,0.0,0.0,0.0,0.0,0.0,0.0,0.0,0.0,0.0,0.0,0.0,0.0,0.0,0.0,0.0,0.0,0.0,0.0,0.0,0.0,0.0,0.0,0.0,0.0,0.0,0.0,0.0,0.0,0.0,0.0,0.0,0.0,0.0,0.0,0.0,0.0,0.0,0.0,0.0,0.0,0.0,0.0,0.0,0.0,0.0,0.0,0.0,0.0,0.0,0.0,0.0,0.0,0.0,0.0,0.0,0.0,0.0,0.0,0.0,0.0,0.0,0.0,0.0,0.0,0.0,0.0,0.0,0.0,0.0,0.0,0.0,0.0,0.0,0.0,0.0,0.0,0.0,0.0,0.0,0.0,0.0,0.0,0.0,0.0,0.0,0.0,0.0,0.0,0.0,0.0,0.0,0.0,0.0,0.0,0.0,0.0,0.0,-1.2203,-1.2386,-1.2501,-1.2501,-1.2501,-1.2501,-1.2501,-1.2501,-1.2501,-1.2501,0.0,0.0,0.0,0.0,0.0,0.0,0.0,0.0,0.0,0.0,0.0,0.0,0.0,0.0,0.0,0.0,0.0,0.0,0.0,0.0,0.0,0.0,0.0,0.0,0.0,0.0,0.0,0.0,0.0,0.0,0.0,0.0,0.0,0.0,0.0,0.0,0.0,0.0,0.0,0.0,0.0,0.0,0.0,0.0,0.0,0.0,0.0,0.0,0.0,0.0,0.0,0.0,0.0,0.0,0.0,0.0,0.0,0.0,0.0,0.0,0.0,0.0,0.0,0.0,0.0,0.0,0.0,0.0,0.0,0.0,0.0,0.0,0.0,0.0,0.0,0.0,0.0,0.0,0.0,0.0,0.0,0.0,0.0,0.0,0.0,0.0,0.0,0.0,0.0,0.0,0.0,0.0,0.0,0.0,0.0,0.0,0.0,0.0,0.0,0.0,0.0,0.0,-1.206,-1.2318,-1.2501,-1.2501,-1.2501,-1.2501,-1.2501,-1.2501,-1.2501,0.0,0.0,0.0,0.0,0.0,0.0,0.0,0.0,0.0,0.0,0.0,0.0,0.0,0.0,0.0,0.0,0.0,0.0,0.0,0.0,0.0,0.0,0.0,0.0,0.0,0.0,0.0,0.0,0.0,0.0,0.0,0.0,0.0,0.0,0.0,0.0,0.0,0.0,0.0,0.0,0.0,0.0,0.0,0.0,0.0,0.0,0.0,0.0,0.0,0.0,0.0,0.0,0.0,0.0,0.0,0.0,0.0,0.0,0.0,0.0,0.0,0.0,0.0,0.0,0.0,0.0,0.0,0.0,0.0,0.0,0.0,0.0,0.0,0.0,0.0,0.0,0.0,0.0,0.0,0.0,0.0,0.0,0.0,0.0,0.0,0.0,0.0,0.0,0.0,0.0,0.0,0.0,0.0,0.0,0.0,0.0,0.0,0.0,0.0,0.0,0.0,0.0,0.0,-1.206,-1.2318,-1.2501,-1.2501,-1.2501,-1.2501,-1.2501,-1.2501,-1.2501,-1.2501,0.0,0.0,0.0,0.0,0.0,0.0,0.0,0.0,0.0,0.0,0.0,0.0,0.0,0.0,0.0,0.0,0.0,0.0,0.0,0.0,0.0,0.0,0.0,0.0,0.0,0.0,0.0,0.0,0.0,0.0,0.0,0.0,0.0,0.0,0.0,0.0,0.0,0.0,0.0,0.0,0.0,0.0,0.0,0.0,0.0,0.0,0.0,0.0,0.0,0.0,0.0,0.0,0.0,0.0,0.0,0.0,0.0,0.0,0.0,0.0,0.0,0.0,0.0,0.0,0.0,0.0,0.0,0.0,0.0,0.0,0.0,0.0,0.0,0.0,0.0,0.0,0.0,0.0,0.0,0.0,0.0,0.0,0.0,0.0,0.0,0.0,0.0,0.0,0.0,0.0,0.0,0.0,0.0,0.0,0.0,0.0,0.0,0.0,0.0,0.0,0.0,0.0,-1.206,-1.2318,-1.2501,-1.2501,-1.2501,-1.2501,-1.2501,-1.2501,-1.2501,-1.2501,0.0,0.0,0.0,0.0,0.0,0.0,0.0,0.0,0.0,0.0,0.0,0.0,0.0,0.0,0.0,0.0,0.0,0.0,0.0,0.0,0.0,0.0,0.0,0.0,0.0,0.0,0.0,0.0,0.0,0.0,0.0,0.0,0.0,0.0,0.0,0.0,0.0,0.0,0.0,0.0,0.0,0.0,0.0,0.0,0.0,0.0,0.0,0.0,0.0,0.0,0.0,0.0,0.0,0.0,0.0,0.0,0.0,0.0,0.0,0.0,0.0,0.0,0.0,0.0,0.0,0.0,0.0,0.0,0.0,0.0,0.0,0.0,0.0,0.0,0.0,0.0,0.0,0.0,0.0,0.0,0.0,0.0,0.0,0.0,0.0,0.0,0.0,0.0,0.0,0.0,0.0,0.0,0.0,0.0,0.0,0.0,0.0,0.0,0.0,0.0,0.0,0.0,-1.206,-1.2318,-1.2501,-1.2501,-1.2501,-1.2501,-1.2501,-1.2501,-1.2501,-1.2501,0.0,0.0,0.0,0.0,0.0,0.0,0.0,0.0,0.0,0.0,0.0,0.0,0.0,0.0,0.0,0.0,0.0,0.0,0.0,0.0,0.0,0.0,0.0,0.0,0.0,0.0,0.0,0.0,0.0,0.0,0.0,0.0,0.0,0.0,0.0,0.0,0.0,0.0,0.0,0.0,0.0,0.0,0.0,0.0,0.0,0.0,0.0,0.0,0.0,0.0,0.0,0.0,0.0,0.0,0.0,0.0,0.0,0.0,0.0,0.0,-1.0772,-1.0853,0.0,0.0,0.0,0.0,0.0,0.0,0.0,0.0,0.0,0.0,0.0,0.0,0.0,0.0,0.0,0.0,0.0,0.0,0.0,0.0,0.0,0.0,0.0,0.0,0.0,0.0,0.0,0.0,0.0,0.0,0.0,0.0,0.0,0.0,0.0,0.0,0.0,0.0,0.0,0.0,-1.206,-1.2318,-1.2501,-1.2501,-1.2501,-1.2501,-1.2501,-1.2501,-1.2501,-1.2501,-1.2501,0.0,0.0,0.0,0.0,0.0,0.0,0.0,0.0,0.0,0.0,0.0,0.0,0.0,0.0,0.0,0.0,0.0,0.0,0.0,0.0,0.0,0.0,0.0,0.0,0.0,0.0,0.0,0.0,0.0,0.0,0.0,0.0,0.0,0.0,0.0,0.0,0.0,0.0,0.0,0.0,0.0,0.0,0.0,0.0,0.0,0.0,0.0,0.0,0.0,0.0,0.0,0.0,0.0,0.0,0.0,0.0,0.0,0.0,0.0,-1.0717,-1.0765,0.0,0.0,0.0,0.0,0.0,0.0,0.0,0.0,0.0,0.0,0.0,0.0,0.0,0.0,0.0,0.0,0.0,0.0,0.0,0.0,0.0,0.0,0.0,0.0,0.0,0.0,0.0,0.0,0.0,0.0,0.0,0.0,0.0,0.0,0.0,0.0,0.0,0.0,0.0,0.0,-1.206,-1.2318,-1.2501,-1.2501,-1.2501,-1.2501,-1.2501,-1.2501,-1.2501,-1.2501,-1.2501,0.0,0.0,0.0,0.0,0.0,0.0,0.0,0.0,0.0,0.0,0.0,0.0,0.0,0.0,0.0,0.0,0.0,0.0,0.0,0.0,0.0,0.0,0.0,0.0,0.0,0.0,0.0,0.0,0.0,0.0,0.0,0.0,0.0,0.0,0.0,0.0,0.0,0.0,0.0,0.0,0.0,0.0,0.0,0.0,0.0,0.0,0.0,0.0,0.0,0.0,0.0,0.0,0.0,-1.0717,-1.0717,-1.0717,-1.0717,-1.0717,-1.0717,-1.0717,-1.0717,-1.0717,-1.0717,0.0,0.0,0.0,0.0,0.0,0.0,0.0,0.0,0.0,0.0,0.0,0.0,0.0,0.0,0.0,0.0,0.0,0.0,0.0,0.0,0.0,0.0,-1.1619,-1.1619,-1.1619,-1.1619,-1.1619,0.0,0.0,0.0,0.0,0.0,0.0,0.0,0.0,0.0,0.0,0.0,-1.206,-1.2318,-1.2501,-1.2501,-1.2501,-1.2501,-1.2501,-1.2501,-1.2501,-1.2501,-1.2501,-1.2501,0.0,0.0,0.0,0.0,0.0,0.0,0.0,0.0,0.0,0.0,0.0,0.0,0.0,0.0,0.0,0.0,0.0,0.0,0.0,0.0,0.0,0.0,0.0,0.0,0.0,0.0,0.0,0.0,0.0,0.0,0.0,0.0,-0.9829,-0.9849,0.0,0.0,0.0,0.0,0.0,0.0,0.0,0.0,0.0,0.0,0.0,0.0,0.0,-1.0717,-1.0717,-1.0717,-1.0717,-1.0717,-1.0717,-1.0717,-1.0717,-1.0717,-1.0717,-1.0717,-1.0717,0.0,-1.0717,-1.0717,0.0,0.0,0.0,0.0,0.0,0.0,0.0,0.0,0.0,0.0,0.0,0.0,0.0,0.0,0.0,0.0,0.0,0.0,0.0,0.0,0.0,0.0,-1.1619,-1.1619,-1.1619,-1.1619,-1.1619,-1.1619,-1.1619,-1.1619,-1.1619,-1.1619,0.0,0.0,0.0,0.0,0.0,0.0,-1.206,-1.2318,-1.2501,-1.2501,-1.2501,-1.2501,-1.2501,-1.2501,-1.2501,-1.2501,-1.2501,-1.2501,-1.2501,-1.2501,0.0,0.0,0.0,0.0,0.0,0.0,0.0,0.0,0.0,0.0,0.0,0.0,0.0,0.0,0.0,0.0,0.0,0.0,0.0,0.0,0.0,0.0,0.0,0.0,0.0,0.0,0.0,0.0,0.0,-0.9822,-0.9822,-0.9822,-0.9822,-0.9822,0.0,0.0,0.0,0.0,0.0,0.0,0.0,0.0,0.0,-1.0588,-1.0677,-1.0717,-1.0717,-1.0717,-1.0717,-1.0717,-1.0717,-1.0717,-1.0717,-1.0717,-1.0717,-1.0717,-1.0717,-1.0717,-1.0717,-1.0717,-1.0717,-1.0717,0.0,0.0,0.0,0.0,-1.0819,-1.0839,-1.0989,-1.1084,-1.1158,-1.1233,0.0,0.0,0.0,0.0,0.0,0.0,0.0,-1.1619,-1.1619,-1.1619,-1.1619,-1.1619,-1.1619,-1.1619,-1.1619,-1.1619,-1.1619,-1.1619,-1.1619,-1.1619,-1.1619,-1.1619,0.0,0.0,0.0,-1.206,-1.206,-1.2318,-1.2501,-1.2501,-1.2501,-1.2501,-1.2501,-1.2501,-1.2501,-1.2501,-1.2501,-1.2501,-1.2501,-1.2501,-1.2501,0.0,0.0,0.0,0.0,0.0,0.0,0.0,0.0,0.0,0.0,0.0,0.0,0.0,0.0,0.0,0.0,0.0,0.0,0.0,0.0,0.0,0.0,0.0,0.0,0.0,0.0,0.0,0.0,-0.9822,-0.9822,-0.9822,-0.9822,-0.9822,0.0,0.0,0.0,0.0,0.0,0.0,-1.0046,-1.0256,-1.0412,-1.0487,-1.0602,-1.0677,-1.0717,-1.0717,-1.0717,-1.0717,-1.0717,-1.0717,-1.0717,-1.0717,-1.0717,-1.0717,-1.0717,-1.0717,-1.0717,-1.0717,-1.0717,-1.0717,-1.0717,-1.0717,-1.0717,-1.0717,-1.0717,-1.0738,-1.0853,-1.0914,-1.0968,-1.107,-1.1233,-1.1389,-1.1389,0.0,0.0,0.0,0.0,-1.1619,-1.1619,-1.1619,-1.1619,-1.1619,-1.1619,-1.1619,-1.1619,-1.1619,-1.1619,-1.1619,-1.1619,-1.1619,-1.1619,-1.1619,0.0,-1.1619,-1.187,-1.206,-1.206,-1.2318,-1.2501,-1.2501,-1.2501,-1.2501,-1.2501,-1.2501,-1.2501,-1.2501,-1.2501,-1.2501,-1.2501,-1.2501,-1.2501,-1.2501,0.0,0.0,0.0,0.0,0.0,0.0,0.0,0.0,0.0,0.0,0.0,0.0,0.0,0.0,0.0,0.0,0.0,0.0,0.0,0.0,0.0,0.0,0.0,0.0,0.0,0.0,0.0,0.0,0.0,-0.9822,-0.9822,0.0,0.0,0.0,0.0,-0.9822,-0.9829,-0.9897,-1.0039,-1.0066,-1.0202,-1.048,-1.05,-1.0575,-1.0717,-1.0717,-1.0717,-1.0717,-1.0717,-1.0717,-1.0717,-1.0717,-1.0717,-1.0717,-1.0717,-1.0717,-1.0717,-1.0717,-1.0717,-1.0717,-1.0717,-1.0717,-1.0717,-1.0717,-1.0717,-1.0724,-1.0731,-1.0826,-1.0948,-1.0955,-1.1158,-1.1389,-1.1389,-1.1497,0.0,0.0,-1.1619,-1.1619,-1.1619,-1.1619,-1.1619,-1.1619,-1.1619,-1.1619,-1.1619,-1.1619,-1.1619,-1.1619,-1.1619,-1.1619,-1.1619,0.0,-1.1619,-1.1619,-1.187,-1.206,-1.206,-1.2318,-1.2501,-1.2501,-1.2501,-1.2501,-1.2501,-1.2501,-1.2501,-1.2501,-1.2501,-1.2501,-1.2501,-1.2501,-1.2501,-1.2501,-1.6303,0.0,0.0,0.0,0.0,0.0,0.0,0.0,0.0,0.0,0.0,0.0,0.0,0.0,0.0,0.0,0.0,0.0,0.0,0.0,0.0,0.0,0.0,0.0,0.0,0.0,0.0,0.0,0.0,-0.9822,-0.9822,0.0,-0.9822,-0.9822,-0.9822,-0.9822,-0.9822,-0.9842,-0.9897,-0.9998,-1.01,-1.0202,-1.0392,-1.0521,-1.0575,-1.067,-1.0717,-1.0717,-1.0717,-1.0717,-1.0717,-1.0717,-1.0717,-1.0717,-1.0717,-1.0717,-1.0717,-1.0717,-1.0717,-1.0717,-1.0717,-1.0717,-1.0717,-1.0717,-1.0717,-1.0717,-1.0717,-1.0758,-1.0819,-1.0914,-1.1023,-1.1145,-1.1335,-1.143,-1.1491,-1.1592,-1.1619,-1.1619,-1.1619,-1.1619,-1.1619,-1.1619,-1.1619,-1.1619,-1.1619,-1.1619,-1.1619,-1.1619,-1.1619,-1.1619,-1.1619,-1.1619,-1.1653,-1.1742,-1.1932,-1.2094,-1.2196,-1.2379,-1.2501,-1.2501,-1.2501,-1.2501,-1.2501,-1.2501,-1.2501,-1.2501,-1.2501,-1.2501,-1.2501,-1.2501,-1.3112,-1.4475,-1.5845,-1.7967,0.0,0.0,0.0,0.0,0.0,0.0,0.0,0.0,0.0,0.0,0.0,0.0,0.0,0.0,0.0,0.0,0.0,0.0,0.0,0.0,0.0,0.0,0.0,0.0,0.0,-0.9822,-0.9822,-0.9822,-0.9822,-0.9822,-0.9822,-0.9822,-0.9822,-0.9822,-0.9822,-0.9822,-0.9822,-0.9964,-1.0073,-1.0127,-1.0365,-1.0514,-1.0568,-1.067,-1.0717,-1.0717,-1.0717,-1.0717,-1.0717,-1.0717,-1.0717,-1.0717,-1.0717,-1.0717,-1.0717,-1.0717,-1.0717,-1.0717,-1.0717,-1.0717,-1.0717,-1.0717,-1.0717,-1.0717,-1.0717,-1.0717,-1.0738,-1.0839,-1.0907,-1.0995,-1.124,-1.1348,-1.1423,-1.1572,-1.1619,-1.1619,-1.1619,-1.1619,-1.1619,-1.1619,-1.1619,-1.1619,-1.1619,-1.1619,-1.1619,-1.1619,-1.1619,-1.1619,-1.1619,-1.166,-1.1721,-1.1816,-1.2006,-1.2176,-1.2277,-1.2413,-1.2501,-1.2501,-1.2501,-1.2522,-1.2576,-1.2576,-1.2603,-1.2651,-1.261,-1.2576,-1.2576,-1.2528,-1.3414,-1.5387,-1.6904,-1.9176,-2.2657,0.0,0.0,0.0,0.0,0.0,0.0,0.0,0.0,0.0,0.0,0.0,0.0,0.0,0.0,0.0,0.0,0.0,0.0,0.0,0.0,0.0,0.0,0.0,-0.9822,-0.9822,-0.9822,-0.9822,-0.9822,-0.9822,-0.9822,-0.9822,-0.9822,-0.9822,-0.9829,-0.9829,-0.9829,-0.9971,-1.0127,-1.0276,-1.0419,-1.0561,-1.0711,-1.0717,-1.0717,-1.0717,-1.0717,-1.0717,-1.0717,-1.0717,-1.0717,-1.0717,-1.0717,-1.0717,-1.0717,-1.0717,-1.0717,-1.0717,-1.0717,-1.0717,-1.0717,-1.0717,-1.0717,-1.0717,-1.0717,-1.0717,-1.0717,-1.0717,-1.0819,-1.0968,-1.1111,-1.126,-1.1416,-1.1565,-1.1613,-1.1619,-1.1619,-1.1619,-1.1619,-1.1619,-1.1619,-1.1619,-1.1619,-1.1619,-1.1619,-1.1619,-1.1619,-1.1626,-1.1626,-1.1742,-1.1837,-1.1843,-1.2101,0.0,-1.2298,-1.242,-1.2501,-1.2508,-1.2508,-1.2569,-1.2725,-1.2739,-1.28,-1.2949,-1.282,-1.2739,-1.2739,-1.2589,-1.3421,-1.554,-1.9629,-2.2657,-2.4636,0.0,0.0,0.0,0.0,0.0,0.0,0.0,0.0,0.0,0.0,0.0,0.0,0.0,0.0,0.0,0.0,0.0,0.0,0.0,0.0,0.0,-0.9822,-0.9822,-0.9822,-0.9822,-0.9822,-0.9822,-0.9822,-0.9822,-0.9822,-0.9822,-0.9822,-0.9822,-0.9924,-0.9985,-0.9985,-1.0134,-1.0236,-1.0276,-1.0419,-1.0514,-1.0555,-1.0663,-1.0717,-1.0717,-1.0717,-1.0717,-1.0717,-1.0717,-1.0717,-1.0717,-1.0717,-1.0717,-1.0717,-1.0717,-1.0717,-1.0717,-1.0717,-1.0717,-1.0717,-1.0717,-1.0717,-1.0717,-1.0717,-1.0717,-1.0717,-1.0717,-1.0751,-1.0812,-1.0962,-1.1111,-1.126,-1.1409,-1.1531,-1.1619,-1.1619,-1.1619,-1.1619,-1.1619,-1.1619,-1.1619,-1.1619,-1.1619,-1.1619,-1.1619,-1.1701,-1.1775,-1.1775,-1.1803,-1.1904,-1.2128,-1.2237,-1.2325,-1.2433,-1.2474,-1.2542,-1.2657,-1.2664,-1.2732,-1.2888,-1.2895,-1.2915,-1.2956,-1.2922,-1.2895,-1.2895,-1.2752,-1.4307,-1.7663,-2.1751,-2.4031,0.0,0.0,0.0,0.0,0.0,0.0,0.0,0.0,0.0,0.0,0.0,0.0,0.0,0.0,0.0,0.0,0.0,0.0,0.0,0.0,0.0,0.0,-0.9822,-0.9822,-0.9822,-0.9822,-0.9822,-0.9822,-0.9822,-0.9822,-0.9822,-0.9876,-0.9917,-0.9917,-1.0059,-1.0148,-1.0148,-1.029,-1.0371,-1.0371,-1.0514,-1.0588,-1.0588,-1.0677,-1.0717,-1.0717,-1.0717,-1.0717,-1.0717,-1.0717,-1.0717,-1.0717,-1.0717,-1.0717,-1.0717,-1.0717,-1.0717,-1.0717,0.0,0.0,0.0,0.0,-1.0717,-1.0717,-1.0717,-1.0717,-1.0717,-1.0717,-1.0717,-1.0751,-1.09,-1.105,-1.1192,-1.1348,-1.1504,-1.1619,-1.1619,-1.1619,-1.1619,-1.1619,-1.1619,-1.1619,-1.1619,-1.1619,-1.164,-1.1694,-1.1775,0.0,-1.1999,-1.2026,-1.2081,-1.2264,-1.2338,-1.2406,-1.2488,-1.2556,-1.263,-1.2718,-1.2786,-1.2888,-1.3037,-1.3051,0.0,0.0,0.0,-1.3024,-1.2963,-1.46,0.0,0.0,0.0,-2.4756,-2.4636,-2.4636,0.0,0.0,-2.4556,-2.4543,0.0,0.0,0.0,0.0,0.0,0.0,0.0,0.0,0.0,0.0,0.0,0.0,0.0,0.0,0.0,0.0,-0.9822,-0.9822,-0.9822,-0.9822,-0.9822,-0.9822,-0.9836,-0.9849,-0.9849,-0.9985,-1.0073,-1.0073,-1.0215,-1.0304,-1.0304,-1.0439,0.0,0.0,0.0,-1.0717,-1.0717,-1.0717,-1.0717,-1.0717,-1.0717,-1.0717,-1.0717,-1.0717,-1.0717,-1.0717,-1.0717,-1.0717,-1.0717,-1.0717,-1.0717,-1.0717,-1.0717,-1.0717,-1.0717,-1.0717,-1.0717,-1.0717,-1.0717,0.0,0.0,-1.0744,-1.0758,-1.0799,-1.0934,-1.107,-1.1219,-1.1355,-1.1504,-1.1619,-1.1619,-1.1619,-1.1619,-1.1619,-1.1619,-1.1619,-1.1619,-1.1633,-1.1681,-1.1809,-1.1857,-1.1965,-1.2244,-1.2291,-1.2298,-1.2311,-1.242,-1.2508,-1.2522,-1.2644,-1.2745,-1.2773,-1.2901,0.0,-1.3186,-1.32,-1.3254,-1.339,-1.3275,-1.3132,-1.299,-1.7074,-1.9169,-1.8792,-2.2961,-2.4983,-2.469,-2.469,-2.4676,-2.4636,-2.4636,-2.4636,0.0,0.0,0.0,0.0,0.0,0.0,0.0,0.0,0.0,0.0,0.0,0.0,0.0,0.0,0.0,-0.9822,-0.9822,-0.9822,-0.9822,-0.9822,-0.9822,-0.9822,-0.993,-1.0005,-1.0005,-1.0148,-1.0236,-1.0236,-1.0371,-1.0453,-1.0453,-1.0595,-1.0677,-1.0677,-1.0704,-1.0717,-1.0717,-1.0717,-1.0717,-1.0717,-1.0717,0.0,-1.0717,-1.0717,-1.0717,-1.0717,-1.0717,-1.0717,-1.0717,-1.0717,-1.0717,-1.0717,-1.0717,-1.0717,-1.0717,-1.0717,-1.0717,-1.0717,-1.0717,-1.0799,-1.0907,-1.0907,-1.0982,-1.1084,-1.1111,-1.1226,0.0,-1.1382,-1.1504,-1.1619,-1.1619,-1.1619,-1.1619,-1.1619,-1.1619,-1.1619,-1.1619,-1.1708,-1.1796,-1.1823,-1.2033,-1.2216,-1.2277,-1.2291,-1.2332,-1.244,-1.2481,-1.2549,-1.2671,-1.2712,-1.282,-1.3057,-1.3112,-1.3193,-1.3342,-1.3356,-1.337,-1.3397,-1.337,-1.3288,-1.3139,-1.7271,-1.9391,-1.9179,-2.323,-2.5291,-2.4997,-2.4997,-2.4863,-2.4636,-2.4636,-2.4636,0.0,0.0,0.0,0.0,0.0,0.0,0.0,0.0,0.0,0.0,0.0,-0.9822,-0.9822,0.0,-0.9822,-0.9822,-0.9822,-0.9822,-0.9822,-0.989,-0.9937,-0.9937,-0.9998,-1.008,-1.0154,-1.0297,-1.0385,-1.0385,-1.0521,-1.0609,-1.0609,-1.0677,-1.0717,-1.0717,-1.0717,-1.0717,-1.0717,-1.0717,-1.0717,-1.0717,-1.0717,-1.0717,-1.0717,-1.0717,-1.0717,-1.0724,-1.0799,-1.0833,-1.0839,-1.0914,-1.0941,-1.0941,-1.0941,-1.09,-1.0846,-1.0914,-1.0941,-1.0941,-1.0941,-1.0995,-1.1056,-1.1056,-1.1104,-1.1165,-1.1165,-1.1267,-1.1389,-1.1389,-1.1504,-1.1619,-1.1619,-1.1619,-1.1619,-1.1619,-1.1619,-1.164,-1.1708,-1.1782,-1.1877,-1.2033,-1.2182,-1.2311,-1.2386,-1.2393,-1.242,-1.2488,-1.2501,-1.2556,-1.2712,-1.28,-1.2929,-1.3152,-1.3241,-1.3315,-1.3397,-1.3403,-1.3403,-1.3403,-1.3403,-1.3363,-1.3288,-1.7485,-1.9624,-1.9401,-2.3512,-2.5585,-2.5291,-2.5291,-2.5224,-2.5077,-2.493,-2.4783,0.0,0.0,0.0,0.0,0.0,0.0,0.0,-0.9822,-0.9822,-0.9822,-0.9822,-0.9822,-0.9822,-0.9822,-0.9822,-0.9822,-0.9822,-0.9829,-0.9863,-0.9971,-1.0073,-1.0127,-1.0134,-1.0181,-1.031,-1.0453,-1.0534,-1.0534,-1.0649,-1.0717,-1.0717,-1.0717,-1.0717,-1.0717,-1.0717,-1.0717,-1.0717,-1.0717,-1.0717,-1.0717,-1.0717,-1.0717,-1.0724,-1.0751,-1.0765,-1.0772,-1.0921,-1.0989,-1.0995,-1.1118,-1.1165,-1.1165,-1.1199,-1.1138,-1.1043,-1.1131,-1.1165,-1.1165,-1.1165,-1.1185,-1.1206,-1.1206,-1.1226,-1.1253,-1.1253,-1.1341,-1.1436,-1.1436,-1.1525,-1.1619,-1.1619,-1.1619,-1.1619,-1.1619,-1.164,-1.1694,-1.1809,-1.1877,-1.1993,-1.2244,-1.2311,-1.2366,-1.2481,-1.2501,-1.2501,-1.2501,-1.2528,-1.2603,-1.2752,-1.2908,-1.3057,-1.32,-1.3329,-1.3403,-1.3403,-1.3403,-1.3403,-1.3403,-1.3403,-1.3562,-1.4052,-1.7792,-1.9977,-2.0262,-2.4108,-2.5892,-2.5598,-2.5598,-2.5571,-2.5504,-2.5277,-2.501,-0.9822,-0.9822,-0.9822,-0.9822,-0.9822,-0.9822,0.0,-0.9822,-0.9822,-0.9822,-0.9822,-0.9822,-0.9822,-0.9822,-0.9822,-0.9822,-0.9822,-0.9869,-1.0005,-1.0039,-1.0148,-1.0412,-1.0439,-1.0446,-1.0466,-1.0609,-1.0697,-1.0697,-1.0711,-1.0717,-1.0717,-1.0717,-1.0717,-1.0717,-1.0717,-1.0717,-1.0717,-1.0717,-1.0717,-1.0717,-1.0717,-1.0717,-1.0724,-1.086,-1.0921,-1.0928,-1.1077,-1.1138,-1.1138,-1.1158,-1.1165,-1.1179,-1.1314,-1.1355,-1.1328,-1.1206,-1.1165,-1.1165,-1.1165,-1.1253,-1.1362,-1.1362,-1.1457,-1.1565,-1.1565,-1.1579,-1.1592,-1.1592,-1.1606,-1.1619,-1.1619,-1.1619,-1.1619,-1.1619,-1.1714,-1.1809,-1.183,-1.2047,-1.225,-1.2284,-1.2393,-1.2481,-1.2501,-1.2501,-1.2501,-1.2501,-1.2617,-1.2759,-1.2915,-1.3057,-1.3207,-1.3356,-1.339,-1.3403,-1.3403,-1.3403,-1.3403,-1.3403,-1.3403,-1.421,-1.6164,-1.8607,-2.0705,-2.2613,-2.5041,-2.6199,-2.5905,-2.5905,-2.5772,-2.5518,-2.5478,-2.5304,-0.9822,-0.9822,-0.9822,-0.9822,-0.9822,-0.9822,-0.9822,-0.9822,-0.9822,-0.9822,-0.9822,-0.9822,-0.9822,-0.9822,-0.9822,-0.9822,-0.9897,-0.9978,-1.0039,-1.0195,-1.0351,-1.048,-1.0568,-1.0622,-1.0622,-1.0683,-1.0717,-1.0717,-1.0717,-1.0717,-1.0717,-1.0717,-1.0717,-1.0717,-1.0717,-1.0717,-1.0717,-1.0717,-1.0717,-1.0717,-1.0717,-1.0765,-1.0853,-1.0921,-1.1043,-1.1206,-1.1267,-1.1348,-1.143,-1.143,-1.143,-1.1436,-1.1497,-1.1525,-1.1518,-1.145,-1.143,-1.143,-1.143,-1.147,-1.1525,-1.1525,-1.1565,-1.1619,-1.1619,-1.1619,-1.1619,-1.1619,-1.1619,-1.1619,-1.1619,-1.1681,-1.1742,-1.1742,-1.1857,-1.1993,-1.2081,-1.2203,-1.2318,-1.24,-1.2461,-1.2501,-1.2501,-1.2576,-1.2637,-1.2637,-1.2691,-1.2813,-1.3057,-1.3139,-1.3227,-1.3383,-1.3403,-1.3403,-1.3403,-1.3403,-1.3403,-1.3403,-1.3403,-1.4375,-1.6483,-1.876,-2.0878,-2.314,-2.5251,-2.6333,-2.6213,-2.6213,-2.6146,-2.6026,-2.5852,-2.5705,-0.9822,-0.9822,-0.9822,-0.9822,-0.9822,-0.9822,-0.9822,-0.9822,-0.9822,-0.9822,-0.9822,-0.9822,-0.9822,-0.9822,-0.9822,-0.9822,-0.9951,-1.0066,-1.0107,-1.0331,-1.0507,-1.0548,-1.0656,-1.0717,-1.0717,-1.0717,-1.0717,-1.0717,-1.0717,-1.0717,-1.0717,-1.0717,-1.0717,-1.0717,-1.0717,-1.0717,-1.0717,-1.0717,-1.0717,-1.0717,-1.0765,-1.0839,-1.0955,-1.1036,-1.1212,-1.1457,-1.1457,-1.1518,-1.1619,-1.1619,-1.1619,-1.1619,-1.1619,-1.1619,-1.1619,-1.1619,-1.1619,-1.1619,-1.1619,-1.1619,-1.1619,-1.1619,-1.1619,-1.1619,-1.1619,-1.1619,-1.1619,-1.1619,-1.1647,-1.1681,-1.1681,-1.1782,-1.1898,-1.1898,-1.2013,-1.2155,-1.2264,-1.2318,-1.2379,-1.2481,-1.2501,-1.2515,-1.2556,-1.2657,-1.2759,-1.284,-1.2854,-1.2929,-1.3146,-1.3207,-1.3275,-1.339,-1.3403,-1.3403,-1.3403,-1.3403,-1.3403,-1.3403,-1.3403,-1.4706,-1.7465,-1.9095,-2.12,-2.3952,-2.5568,-2.6386,-2.6386,-2.6386,-2.6386,-2.6386,-2.6172,-2.6079,-0.9822,-0.9822,-0.9822,-0.9822,-0.9822,-0.9822,-0.9822,-0.9822,-0.9822,-0.9822,-0.9822,-0.9822,-0.9822,-0.9822,-0.9822,-0.9822,-0.9951,-1.01,-1.0249,-1.0399,-1.0548,-1.0697,-1.0717,-1.0717,-1.0717,-1.0717,-1.0717,-1.0717,-1.0717,-1.0717,-1.0717,-1.0717,-1.0717,-1.0717,-1.0717,-1.0717,-1.0717,-1.0717,-1.0717,-1.0724,-1.0873,-1.0941,-1.0962,-1.1246,-1.1463,-1.1613,-1.1613,-1.1613,-1.1619,-1.1619,-1.1619,-1.1619,-1.1619,-1.1619,-1.1619,-1.1619,-1.1619,-1.1619,-1.1619,-1.1619,-1.1619,-1.1619,-1.1619,-1.1619,-1.1619,-1.1619,-1.1619,-1.1619,-1.1714,-1.1823,-1.1823,-1.1938,-1.2054,-1.2054,-1.2176,-1.2284,-1.2291,-1.24,-1.2494,-1.2501,-1.2501,-1.2549,-1.2698,-1.2725,-1.2827,-1.3119,-1.3159,-1.3159,-1.3173,-1.3302,-1.3397,-1.3403,-1.3403,-1.3403,-1.3403,-1.3403,-1.3403,-1.3403,-1.3403,-1.5358,-1.9582,-1.9907,-2.1845,-2.6228,-2.6386,-2.6386,-2.6386,-2.6386,-2.6386,-2.6386,-2.6373,-2.6373,-0.9822,-0.9822,-0.9822,-0.9822,-0.9822,-0.9822,-0.9822,-0.9822,-0.9822,-0.9822,-0.9822,-0.9822,-0.9822,-0.9822,-0.9856,-0.9958,-1.01,-1.0256,-1.0399,-1.0548,-1.0663,-1.0717,-1.0717,-1.0717,-1.0717,-1.0717,-1.0717,-1.0717,-1.0717,-1.0717,-1.0717,-1.0717,-1.0717,-1.0717,-1.0717,-1.0717,-1.0717,-1.0717,-1.0772,-1.0873,-1.1124,-1.124,-1.1246,-1.145,-1.1572,-1.1619,-1.1619,-1.1619,-1.1619,-1.1619,-1.1619,-1.1619,-1.1619,-1.1619,-1.1619,-1.1619,-1.1619,-1.1619,-1.1619,-1.1619,-1.1619,-1.1619,-1.1619,-1.1619,-1.1619,-1.1687,-1.1762,-1.1762,-1.187,-1.1986,-1.1986,-1.2101,-1.221,-1.221,-1.2325,-1.2433,-1.2433,-1.2467,-1.2501,-1.2501,-1.2583,-1.2671,-1.2718,-1.2895,-1.3091,-1.3295,-1.3322,-1.3322,-1.3322,-1.337,-1.3403,-1.3403,-1.3403,-1.3403,-1.3403,-1.3403,-1.3403,-1.3403,-1.4698,-1.682,-1.9745,-2.12,-2.346,-2.6386,-2.6386,-2.6386,-2.6386,-2.6386,-2.6386,-2.6386,-2.6386,-2.6386,-0.9822,-0.9822,-0.9822,-0.9822,-0.9822,-0.9822,-0.9822,-0.9822,-0.9822,-0.9822,-0.9822,-0.9822,-0.9822,-0.9822,-0.9869,-1.0025,-1.0181,-1.0331,-1.0473,-1.0622,-1.0717,-1.0717,-1.0717,-1.0717,-1.0717,-1.0717,-1.0717,-1.0717,-1.0717,-1.0717,-1.0717,-1.0717,-1.0717,-1.0717,-1.0717,-1.0744,-1.0799,-1.0799,-1.0907,-1.1111,-1.1301,-1.1416,-1.1477,-1.1572,-1.1619,-1.1619,-1.1619,-1.1619,-1.1619,-1.1619,-1.1619,-1.1619,-1.1619,-1.1619,-1.1619,-1.1619,-1.1653,-1.1687,-1.164,-1.1619,-1.1619,-1.1619,-1.1653,-1.1694,-1.1694,-1.1796,-1.1911,-1.1911,-1.2026,-1.2142,-1.2142,-1.225,-1.2366,-1.2366,-1.2433,-1.2501,-1.2501,-1.2501,-1.2515,-1.2569,-1.2664,-1.2766,-1.2868,-1.3091,-1.3288,-1.339,-1.3403,-1.3403,-1.3403,-1.3403,-1.3403,-1.3403,-1.3403,-1.3403,-1.3403,-1.3403,-1.3403,-1.3403,-1.535,-1.7629,-1.9745,-2.2006,-2.4111,-2.6386,-2.6386,-2.6386,-2.6386,-2.6386,-2.6386,-2.6386,-2.6386,-2.6386,-0.9822,-0.9822,-0.9822,-0.9822,-0.9822,-0.9822,-0.9822,-0.9822,-0.9822,-0.9822,-0.9822,-0.9822,-0.9822,-0.9822,-0.9876,-1.0032,-1.0181,-1.0331,-1.048,-1.0629,-1.0717,-1.0717,-1.0717,-1.0717,-1.0717,-1.0717,-1.0717,-1.0717,-1.0717,-1.0717,-1.0717,-1.0717,-1.0717,-1.0717,-1.0724,-1.0799,-1.0948,-1.0962,-1.1111,-1.1389,-1.1402,-1.1477,-1.1619,-1.1619,-1.1619,-1.1619,-1.1619,-1.1619,-1.1619,-1.1619,-1.1619,-1.1619,-1.1626,-1.1633,-1.1633,-1.164,-1.1728,-1.1823,-1.1687,-1.164,-1.164,-1.164,-1.1735,-1.1843,-1.1843,-1.1952,-1.2074,-1.2074,-1.2182,-1.2298,-1.2298,-1.24,-1.2501,-1.2501,-1.2501,-1.2501,-1.2501,-1.2508,-1.2556,-1.2705,-1.2745,-1.2847,-1.3132,-1.3302,-1.3403,-1.3403,-1.3403,-1.3403,-1.3403,-1.3403,-1.3403,-1.3403,-1.3403,-1.3403,-1.3403,-1.3403,-1.3403,-1.3403,-1.535,-1.7629,-1.9745,-2.2006,-2.4111,-2.6386,-2.6386,-2.6386,-2.6386,-2.6386,-2.6386,-2.6386,-2.6386,-2.6386,-0.9822,-0.9822,-0.9822,-0.9822,-0.9822,-0.9822,-0.9822,-0.9822,-0.9822,-0.9822,-0.9822,-0.9822,-0.9822,-0.9822,-0.991,-1.0175,-1.0256,-1.0371,-1.0622,-1.0697,-1.0717,-1.0717,-1.0717,-1.0717,-1.0717,-1.0717,-1.0717,-1.0717,-1.0717,-1.0717,-1.0717,-1.0717,-1.0717,-1.0717,-1.0833,-1.0907,-1.0948,-1.1165,-1.1314,-1.1396,-1.1504,-1.1579,-1.1619,-1.1619,-1.1619,-1.1619,-1.1619,-1.1619,-1.1619,-1.1619,-1.1619,-1.1633,-1.1735,-1.1775,-1.1789,-1.1904,-1.1972,-1.1999,-1.1959,-1.1952,-1.1952,-1.1952,-1.1972,-1.2006,-1.2006,-1.2108,-1.223,-1.223,-1.2338,-1.2447,-1.2447,-1.2474,-1.2501,-1.2501,-1.2501,-1.2501,-1.2501,-1.2589,-1.2684,-1.2725,-1.2908,-1.3119,-1.3308,-1.3376,-1.3403,-1.3403,-1.3403,-1.3403,-1.3403,-1.3403,-1.3403,-1.3403,-1.3403,-1.3403,-1.3403,-1.3403,-1.3403,-1.3403,-1.535,-1.7629,-1.9745,-2.2006,-2.4111,-2.6386,-2.6386,-2.6386,-2.6386,-2.6386,-2.6386,-2.6386,-2.6386,-2.6386,-0.9822,-0.9822,-0.9822,-0.9822,-0.9822,-0.9822,-0.9822,-0.9822,-0.9822,-0.9822,-0.9822,-0.9822,-0.9822,-0.9822,-0.9924,-1.0229,-1.0283,-1.0385,-1.0677,-1.0717,-1.0717,-1.0717,-1.0717,-1.0717,-1.0717,-1.0717,-1.0717,-1.0717,-1.0717,-1.0717,-1.0717,-1.0717,-1.0751,-1.0819,-1.09,-1.1009,-1.1145,-1.1375,-1.1491,-1.1491,-1.1579,-1.1619,-1.1619,-1.1619,-1.1619,-1.1619,-1.1619,-1.1653,-1.1714,-1.1714,-1.1755,-1.1823,-1.1898,-1.1932,-1.1945,-1.2033,-1.2101,-1.2162,-1.2162,-1.2203,-1.2237,-1.2101,-1.2108,-1.2162,-1.2162,-1.2264,-1.2386,-1.2386,-1.244,-1.2501,-1.2501,-1.2501,-1.2501,-1.2501,-1.2501,-1.2522,-1.2589,-1.2671,-1.2766,-1.2895,-1.3112,-1.3302,-1.339,-1.3403,-1.3403,-1.3403,-1.3403,-1.3403,-1.3403,-1.3403,-1.3403,-1.3403,-1.3403,-1.3403,-1.3403,-1.3403,-1.3403,-1.3403,-1.535,-1.7629,-1.9745,-2.2006,-2.4111,-2.6386,-2.6386,-2.6386,-2.6386,-2.6386,-2.6386,-2.6386,-2.6386,-2.6386,-0.9822,-0.9822,-0.9822,-0.9822,-0.9822,-0.9822,-0.9822,-0.9822,-0.9822,-0.9822,-0.9822,-0.9822,-0.9822,-0.9822,-0.9924,-1.0229,-1.0283,-1.0385,-1.0677,-1.0717,-1.0717,-1.0717,-1.0717,-1.0717,-1.0717,-1.0717,-1.0717,-1.0717,-1.0738,-1.0744,-1.0724,-1.0738,-1.0826,-1.1002,-1.1009,-1.1138,-1.1416,-1.1552,-1.1619,-1.1619,-1.1619,-1.1619,-1.1619,-1.1619,-1.1633,-1.1647,-1.1647,-1.1728,-1.1864,-1.1864,-1.1938,-1.206,-1.2088,-1.2094,-1.2094,-1.2115,-1.2203,-1.2318,-1.2318,-1.24,-1.2461,-1.2203,-1.221,-1.2318,-1.2318,-1.2406,-1.2501,-1.2501,-1.2501,-1.2501,-1.2501,-1.2501,-1.2501,-1.2501,-1.2515,-1.2569,-1.2705,-1.2759,-1.2874,-1.3152,-1.3308,-1.3403,-1.3403,-1.3403,-1.3403,-1.3403,-1.3403,-1.3403,-1.3403,-1.3403,-1.3403,-1.3403,-1.3403,-1.3403,-1.3403,-1.3403,-1.3403,-1.3403,-1.5193,-1.7302,-1.9745,-2.1684,-2.3792,-2.6386,-2.6386,-2.6386,-2.6386,-2.6386,-2.6386,-2.6386,-2.6386,-2.6386,-0.9822,-0.9822,-0.9822,-0.9822,-0.9822,-0.9822,-0.9822,-0.9822,-0.9822,-0.9822,-0.9822,-0.9822,-0.9822,-0.9822,-0.9924,-1.0229,-1.0283,-1.0385,-1.0677,-1.0717,-1.0717,-1.0717,-1.0717,-1.0717,-1.0717,-1.0717,-1.0717,-1.0717,-1.0839,-1.0853,-1.0724,-1.0839,-1.1036,-1.1307,-1.1314,-1.1402,-1.1579,-1.1606,-1.1619,-1.1619,-1.1619,-1.1619,-1.1619,-1.1619,-1.1681,-1.1796,-1.1796,-1.1877,-1.202,-1.202,-1.204,-1.2074,-1.2203,-1.225,-1.2264,-1.2379,-1.244,-1.2467,-1.2467,-1.2481,-1.2494,-1.244,-1.244,-1.2467,-1.2467,-1.2481,-1.2501,-1.2501,-1.2501,-1.2501,-1.2501,-1.2501,-1.2501,-1.2501,-1.2596,-1.2698,-1.2725,-1.2922,-1.3146,-1.3329,-1.3383,-1.3403,-1.3403,-1.3403,-1.3403,-1.3403,-1.3403,-1.3403,-1.3403,-1.3403,-1.3403,-1.3403,-1.3403,-1.3403,-1.3403,-1.3403,-1.3403,-1.3403,-1.3728,-1.5679,-1.9745,-2.0231,-2.2338,-2.6386,-2.6386,-2.6386,-2.6386,-2.6386,-2.6386,-2.6386,-2.6386,-2.6386,-0.9822,-0.9822,-0.9822,-0.9822,-0.9822,-0.9822,-0.9822,-0.9822,-0.9822,-0.9822,-0.9822,-0.9822,-0.9822,-0.9822,-0.9924,-1.0229,-1.0283,-1.0385,-1.0677,-1.0717,-1.0717,-1.0717,-1.0717,-1.0717,-1.0717,-1.0717,-1.0751,-1.0833,-1.0907,-1.0914,-1.0846,-1.1056,-1.1246,-1.1389,-1.147,-1.1545,-1.1619,-1.1619,-1.1619,-1.1619,-1.1619,-1.1619,-1.1619,-1.1694,-1.1769,-1.1837,-1.1918,-1.204,-1.2182,-1.2182,-1.2223,-1.2298,-1.2372,-1.24,-1.2406,-1.2474,-1.2501,-1.2501,-1.2501,-1.2501,-1.2501,-1.2501,-1.2501,-1.2501,-1.2501,-1.2501,-1.2501,-1.2501,-1.2501,-1.2501,-1.2501,-1.2562,-1.2623,-1.2623,-1.2793,-1.2963,-1.2963,-1.3132,-1.3315,-1.339,-1.3403,-1.3403,-1.3403,-1.3403,-1.3403,-1.3403,-1.3403,-1.3403,-1.3403,-1.3403,-1.3403,-1.3403,-1.3403,-1.3403,-1.3403,-1.3403,-1.3403,-1.3403,-1.3403,-1.5358,-1.9745,-1.9907,-2.2006,-2.6386,-2.6386,-2.6386,-2.6386,-2.6386,-2.6386,-2.6386,-2.6386,-2.6386,-0.9822,-0.9822,-0.9822,-0.9822,-0.9822,-0.9822,-0.9822,-0.9822,-0.9822,-0.9822,-0.9822,-0.9822,-0.9822,-0.9822,-0.9924,-1.0229,-1.0283,-1.0385,-1.0677,-1.0717,-1.0717,-1.0717,-1.0717,-1.0717,-1.0717,-1.0751,-1.0819,-1.0941,-1.1009,-1.1043,-1.1043,-1.1267,-1.1409,-1.1436,-1.1558,-1.1619,-1.1619,-1.1619,-1.1619,-1.1619,-1.1619,-1.1633,-1.1667,-1.1782,-1.1864,-1.1938,-1.206,-1.2196,-1.2338,-1.2338,-1.24,-1.2501,-1.2501,-1.2501,-1.2501,-1.2501,-1.2501,-1.2501,-1.2501,-1.2501,-1.2501,-1.2501,-1.2501,-1.2501,-1.2501,-1.2501,-1.2501,-1.2501,-1.2522,-1.2549,-1.2549,-1.2664,-1.2786,-1.2813,-1.3003,-1.318,-1.3214,-1.3315,-1.3403,-1.3403,-1.3403,-1.3403,-1.3403,-1.3403,-1.3403,-1.3403,-1.3403,-1.3403,-1.3403,-1.3403,-1.3403,-1.3403,-1.3403,-1.3403,-1.3403,-1.3403,-1.3403,-1.3403,-1.3403,-1.5358,-1.9745,-1.9907,-2.2006,-2.6386,-2.6386,-2.6386,-2.6386,-2.6386,-2.6386,-2.6386,-2.6386,-2.6386,-0.9822,-0.9822,-0.9822,-0.9822,-0.9822,-0.9822,-0.9822,-0.9822,-0.9822,-0.9822,-0.9822,-0.9822,-0.9822,-0.9822,-0.9924,-1.0229,-1.0283,-1.0385,-1.0677,-1.0717,-1.0717,-1.0717,-1.0717,-1.0717,-1.0717,-1.0846,-1.0934,-1.0948,-1.1199,-1.1348,-1.1348,-1.1375,-1.1457,-1.1592,-1.1613,-1.1619,-1.1619,-1.1619,-1.1619,-1.1619,-1.1619,-1.1687,-1.1809,-1.1823,-1.1986,-1.225,-1.2264,-1.2352,-1.2481,-1.2481,-1.2488,-1.2501,-1.2501,-1.2501,-1.2501,-1.2501,-1.2501,-1.2501,-1.2501,-1.2501,-1.2501,-1.2501,-1.2501,-1.2501,-1.2501,-1.2501,-1.2501,-1.2501,-1.2603,-1.2712,-1.2712,-1.2827,-1.2969,-1.3105,-1.3152,-1.3214,-1.3349,-1.339,-1.3403,-1.3403,-1.3403,-1.3403,-1.3403,-1.3403,-1.3403,-1.3403,-1.3403,-1.3403,-1.3403,-1.3403,-1.3403,-1.3403,-1.3403,-1.3403,-1.3403,-1.3403,-1.3403,-1.3403,-1.3403,-1.5358,-1.9745,-1.9907,-2.2006,-2.6386,-2.6386,-2.6386,-2.6386,-2.6386,-2.6386,-2.6386,-2.6386,-2.6386,-0.9822,-0.9822,-0.9822,-0.9822,-0.9822,-0.9822,-0.9822,-0.9822,-0.9822,-0.9822,-0.9822,-0.9822,-0.9822,-0.9822,-0.9924,-1.0229,-1.0283,-1.0385,-1.0677,-1.0717,-1.0717,-1.0717,-1.0717,-1.0758,-1.0846,-1.0914,-1.1023,-1.1199,-1.1409,-1.1531,-1.1531,-1.1531,-1.1558,-1.1619,-1.1619,-1.1619,-1.1619,-1.1619,-1.1619,-1.1619,-1.1708,-1.1775,-1.1837,-1.2026,-1.2176,-1.2298,-1.2379,-1.2447,-1.2501,-1.2501,-1.2501,-1.2501,-1.2501,-1.2501,-1.2501,-1.2501,-1.2501,-1.2501,-1.2501,-1.2501,-1.2501,-1.2501,-1.2501,-1.2501,-1.2501,-1.2501,-1.2522,-1.261,-1.2684,-1.2752,-1.2847,-1.2976,-1.3125,-1.3275,-1.3308,-1.3329,-1.339,-1.3403,-1.3403,-1.3403,-1.3403,-1.3403,-1.3403,-1.3403,-1.3403,-1.3403,-1.3403,-1.3403,-1.3403,-1.3403,-1.3403,-1.3403,-1.3403,-1.3403,-1.3403,-1.3403,-1.3437,-1.3532,-1.3539,-1.556,-2.0126,-2.0301,-2.2441,-2.6921,-2.6747,-2.6653,-2.6653,-2.648,-2.6386,-2.6386,-2.6386,-2.6386,-0.9822,-0.9822,-0.9822,-0.9822,-0.9822,-0.9822,-0.9822,-0.9822,-0.9822,-0.9822,-0.9822,-0.9822,-0.9822,-0.9856,-0.9971,-1.0236,-1.0317,-1.0432,-1.0683,-1.0717,-1.0717,-1.0717,-1.0758,-1.0833,-1.0941,-1.1029,-1.1185,-1.1443,-1.1558,-1.1619,-1.1619,-1.1619,-1.1619,-1.1619,-1.1619,-1.1619,-1.1619,-1.166,-1.1681,-1.1681,-1.183,-1.1925,-1.1972,-1.2189,-1.2311,-1.2359,-1.2461,-1.2501,-1.2501,-1.2501,-1.2501,-1.2501,-1.2501,-1.2501,-1.2501,-1.2501,-1.2501,-1.2501,-1.2501,-1.2501,-1.2508,-1.2556,-1.2569,-1.2576,-1.2623,-1.2603,-1.2603,-1.2752,-1.2827,-1.2895,-1.3051,-1.3166,-1.3268,-1.3376,-1.3403,-1.3403,-1.3403,-1.3403,-1.3403,-1.3403,-1.3403,-1.3403,-1.3403,-1.3403,-1.3403,-1.3403,-1.3403,-1.3403,-1.3403,-1.3403,-1.3403,-1.3403,-1.3403,-1.3403,-1.3403,-1.3444,-1.3512,-1.362,-1.3668,-1.5739,-2.0386,-2.0554,-2.2732,-2.7268,-2.7054,-2.6947,-2.6947,-2.6667,-2.652,-2.652,-2.6426,-2.6386,-0.9822,-0.9822,-0.9822,-0.9822,-0.9822,-0.9822,-0.9822,-0.9822,-0.9822,-0.9822,-0.9822,-0.9822,-0.9822,-0.9944,-1.01,-1.0256,-1.0399,-1.0541,-1.0697,-1.0717,-1.0717,-1.0717,-1.0853,-1.0948,-1.0948,-1.1212,-1.145,-1.1606,-1.1619,-1.1619,-1.1619,-1.1619,-1.1619,-1.1619,-1.1619,-1.1619,-1.1619,-1.1755,-1.183,-1.183,-1.1986,-1.2142,-1.2284,-1.2291,-1.2366,-1.2501,-1.2501,-1.2501,-1.2501,-1.2501,-1.2501,-1.2501,-1.2501,-1.2501,-1.2501,-1.2501,-1.2501,-1.2501,-1.2501,-1.2501,-1.2528,-1.2678,-1.2725,-1.2759,-1.2908,-1.2847,-1.2759,-1.2915,-1.3057,-1.32,-1.3356,-1.3397,-1.3397,-1.3403,-1.3403,-1.3403,-1.3403,-1.3403,-1.3403,-1.3403,-1.3403,-1.3403,-1.3403,-1.3403,-1.3403,-1.3403,-1.3403,-1.3403,-1.3403,-1.3403,-1.3403,-1.3403,-1.3403,-1.3403,-1.3403,-1.3539,-1.3627,-1.3627,-1.3763,-1.5856,-2.0386,-2.0554,-2.2732,-2.7268,-2.7268,-2.7268,-2.7268,-2.6961,-2.6814,-2.6814,-2.652,-2.6386,-0.9822,-0.9822,-0.9822,-0.9822,-0.9822,-0.9822,-0.9822,-0.9822,-0.9822,-0.9822,-0.9822,-0.9856,-0.9958,-1.0019,-1.0134,-1.0385,-1.046,-1.0548,-1.0697,-1.0717,-1.0758,-1.0867,-1.1097,-1.1253,-1.1253,-1.143,-1.1565,-1.1613,-1.1619,-1.1619,-1.1619,-1.1619,-1.1619,-1.1619,-1.1619,-1.1667,-1.1762,-1.1809,-1.1884,-1.1993,-1.2142,-1.2244,-1.2291,-1.2393,-1.2461,-1.2501,-1.2501,-1.2501,-1.2501,-1.2501,-1.2501,-1.2501,-1.2501,-1.2501,-1.2501,-1.2501,-1.2501,-1.2515,-1.2623,-1.2657,-1.2684,-1.284,-1.2888,-1.2915,-1.3064,-1.3003,-1.2915,-1.3064,-1.3214,-1.3342,-1.339,-1.3403,-1.3403,-1.3403,-1.3403,-1.3403,-1.3403,-1.3403,-1.3403,-1.3403,-1.3403,-1.3403,-1.3403,-1.3403,-1.3403,-1.3403,-1.3403,-1.3403,-1.3403,-1.3403,-1.3403,-1.3403,-1.3492,-1.3559,-1.3559,-1.36,-1.3715,-1.3919,-1.3973,-1.609,-2.0838,-2.1009,-2.3235,-2.7856,-2.7669,-2.7562,-2.7562,-2.7268,-2.7121,-2.7121,-2.7028,-2.6881,-0.9822,-0.9822,-0.9822,-0.9822,-0.9822,-0.9822,-0.9822,-0.9822,-0.9822,-0.9822,-0.9869,-0.9937,-1.0032,-1.0141,-1.0276,-1.046,-1.0541,-1.0609,-1.0704,-1.0717,-1.0799,-1.1002,-1.124,-1.1416,-1.147,-1.1565,-1.1619,-1.1619,-1.1619,-1.1619,-1.1619,-1.1619,-1.1647,-1.1694,-1.1701,-1.1742,-1.183,-1.1945,-1.2054,-1.2149,-1.2298,-1.2372,-1.2372,-1.2461,-1.2501,-1.2501,-1.2501,-1.2501,0.0,-1.2501,-1.2501,-1.2501,-1.2501,-1.2535,-1.2589,-1.2589,-1.2623,-1.2691,-1.2786,-1.282,-1.284,-1.299,-1.3078,-1.3146,-1.3234,-1.32,-1.3146,-1.3234,-1.3329,-1.3403,-1.3403,-1.3403,-1.3403,-1.3403,-1.3403,-1.3403,-1.3403,-1.3403,-1.3403,-1.3403,-1.3403,-1.3403,-1.3403,-1.3403,-1.3403,-1.3403,-1.3403,-1.3403,-1.3403,-1.3403,-1.3424,-1.3485,-1.3573,-1.3675,-1.379,-1.3797,-1.3878,-1.4061,-1.4129,-1.5927,-1.9836,-2.0702,-2.2944,-2.6758,-2.7614,-2.7869,-2.7869,-2.7575,-2.7375,-2.7268,-2.7268,-2.7161,0.0,-0.9822,-0.9822,-0.9822,-0.9822,-0.9822,-0.9822,-0.9822,0.0,-0.9836,-0.9951,-1.0059,-1.008,-1.0304,-1.0493,-1.0507,-1.0629,-1.0717,-1.0717,-1.0738,-1.086,-1.1145,-1.1314,-1.1463,-1.1606,-1.1619,-1.1619,-1.1619,-1.1619,-1.1619,-1.1619,-1.1626,-1.1694,-1.183,-1.185,-1.1864,-1.1864,-1.2149,-1.2298,-1.2305,-1.244,-1.2501,-1.2501,-1.2501,-1.2501,-1.2501,-1.2501,-1.2501,-1.2501,-1.2501,-1.2508,-1.2515,-1.2515,-1.261,-1.2745,-1.2745,-1.2834,-1.2963,-1.2976,-1.2976,-1.3003,-1.3146,-1.3288,-1.3403,-1.3403,-1.3403,-1.3403,-1.3403,-1.3403,-1.3403,-1.3403,-1.3403,-1.3403,-1.3403,-1.3403,-1.3403,-1.3403,-1.3403,-1.3403,-1.3403,-1.3403,-1.3403,-1.3403,-1.3403,-1.3403,-1.3403,-1.3403,-1.3403,-1.3403,-1.341,-1.3471,-1.3614,-1.3648,-1.377,-1.4048,-1.4075,-1.4075,-1.4089,-1.4224,-1.5337,-1.7763,-2.0009,-2.2256,-2.4691,-2.6927,-2.8136,-2.8136,-2.7869,-2.7589,-2.7321,-2.7321,-2.7321,-0.9822,0.0,-0.9822,-0.9822,-0.9822,-0.9822,0.0,-0.9822,-0.9856,0.0,0.0,-1.012,-1.0344,-1.0446,-1.0527,-1.0649,-1.0697,-1.0717,-1.0717,-1.0914,-1.1131,-1.1314,-1.147,-1.1579,-1.1613,-1.1619,-1.1619,-1.1619,-1.1619,-1.1619,-1.1619,-1.1721,-1.1796,-1.183,-1.206,-1.2182,-1.2182,-1.2257,-1.2345,-1.2454,-1.2488,-1.2501,-1.2501,-1.2501,-1.2501,-1.2501,-1.2501,-1.2501,-1.2501,-1.2501,-1.2569,-1.2678,-1.2678,-1.2773,-1.2908,-1.2908,-1.2929,-1.2976,-1.3085,-1.3125,-1.3146,-1.3302,-1.337,-1.3403,-1.3403,-1.3403,-1.3403,-1.3403,-1.3403,-1.3403,-1.3403,-1.3403,-1.3403,-1.3403,-1.3403,-1.3403,-1.3403,-1.3403,-1.3403,-1.3403,-1.3403,-1.3403,-1.3403,-1.3403,-1.3403,-1.3403,-1.3403,-1.3403,-1.3403,-1.3505,-1.3587,-1.3627,-1.3831,-1.3994,-1.4068,-1.4075,-1.4122,-1.4238,-1.4278,-1.5337,-1.7763,-2.0009,-2.2256,-2.4691,-2.6927,-2.8136,-2.8136,-2.807,-2.8003,-2.7936,-2.7936,-2.7816,-0.9822,-0.9822,-0.9822,-0.9822,-0.9822,-0.9822,-0.9822,-0.9876,0.0,0.0,0.0,-1.0304,-1.046,-1.0548,-1.0622,-1.0704,-1.0717,-1.0744,-1.0812,-1.1084,-1.1301,-1.1382,-1.1525,-1.1619,-1.1619,-1.1619,-1.1619,-1.1619,-1.1619,-1.1647,-1.1714,-1.1789,-1.1898,-1.204,-1.2203,-1.2291,-1.2291,-1.2352,-1.2427,-1.2501,-1.2501,-1.2501,-1.2501,-1.2501,-1.2501,-1.2501,-1.2501,-1.2542,-1.261,-1.261,-1.2698,-1.2834,-1.2834,-1.2929,-1.3057,-1.3057,-1.3105,-1.3173,-1.3254,-1.3275,-1.3288,-1.3376,-1.3403,-1.3403,-1.3403,-1.3403,-1.3403,-1.3403,-1.3403,-1.3403,-1.3403,-1.3403,-1.3403,-1.3403,-1.3403,-1.3403,-1.3403,-1.3403,-1.3403,-1.3403,-1.3403,-1.3403,-1.3403,-1.3403,-1.3403,-1.3403,-1.3403,-1.3424,-1.3498,-1.358,-1.3682,-1.3817,-1.3973,-1.4102,-1.417,-1.4177,-1.4211,-1.4292,-1.4299,-1.4822,-1.621,-1.8453,-2.1221,-2.4691,-2.6927,-2.8136,-2.8136,-2.8136,-2.8136,-2.8136,-2.8136,-2.8056,-0.9822,-0.9822,-0.9822,-0.9822,-0.9822,-0.9829,-0.9849,-0.9958,0.0,0.0,0.0,-1.05,-1.0521,-1.0629,-1.0717,-1.0717,-1.0738,-1.0819,-1.0995,-1.1233,-1.1402,-1.1423,-1.1538,-1.1619,-1.1619,-1.1619,-1.1619,-1.1619,-1.164,-1.1701,-1.1823,-1.1877,-1.202,-1.2284,-1.2311,-1.2325,-1.2325,-1.244,-1.2501,-1.2501,-1.2501,-1.2501,-1.2501,-1.2501,-1.2515,-1.2535,-1.2535,-1.2623,-1.2766,-1.2766,-1.2854,-1.299,-1.299,-1.3078,-1.3207,-1.3207,-1.3288,-1.3403,-1.3403,-1.3403,-1.3403,-1.3403,-1.3403,-1.3403,-1.3403,-1.3403,-1.3403,-1.3403,-1.3403,-1.3403,-1.3403,-1.3403,-1.3403,-1.3403,-1.3403,-1.3403,-1.3403,-1.3403,-1.3403,-1.3403,-1.3403,-1.3403,-1.3403,-1.3403,-1.3403,-1.3403,-1.3417,-1.3485,-1.3614,-1.3668,-1.3797,-1.4048,-1.4095,-1.4156,-1.4292,-1.4299,-1.4299,-1.4299,-1.4299,-1.4476,-1.4822,-1.6721,-2.0009,-2.4691,-2.6588,-2.7799,-2.8136,-2.8136,-2.8136,-2.8136,-2.8136,-2.8136,-0.9822,-0.9822,-0.9822,-0.9822,-0.9822,-0.9856,-0.9985,-1.0032,-1.012,-1.0371,-1.046,-1.0534,-1.0663,-1.0704,-1.0717,-1.0717,-1.0826,-1.1016,-1.1168,-1.1375,-1.1436,-1.1565,-1.1606,-1.1619,-1.1619,-1.1619,-1.1619,-1.1619,-1.1728,-1.1809,-1.183,-1.2081,-1.2244,-1.2291,-1.2406,-1.2467,-1.2467,-1.2488,-1.2501,-1.2501,-1.2501,-1.2501,-1.2501,-1.2501,-1.2569,-1.2698,-1.2698,-1.2786,-1.2929,-1.2929,-1.301,-1.3139,-1.3139,-1.3234,-1.3363,-1.3363,-1.3383,-1.3403,-1.3403,-1.3403,-1.3403,-1.3403,-1.3403,-1.3403,-1.3403,-1.3403,-1.3403,-1.3403,-1.3403,-1.3403,-1.3403,-1.3403,-1.3403,-1.3403,-1.3403,-1.3403,-1.3403,-1.3403,-1.3403,-1.3403,-1.3403,-1.3403,-1.3403,-1.3403,-1.3403,-1.3403,-1.3512,-1.36,-1.3627,-1.3851,-1.4021,-1.4068,-1.419,-1.4272,-1.4299,-1.4299,-1.4299,-1.4299,-1.4299,-1.5168,-1.7247,-1.7588,-2.0009,-2.4691,-2.5032,-2.6236,-2.8136,-2.8136,-2.8136,-2.8136,-2.8136,-2.8136,-0.9822,-0.9883,-0.9944,-0.9944,-0.9944,-0.9985,-1.0141,-1.0236,-1.0324,0.0,-1.0555,-1.0643,-1.0724,-1.0738,-1.0638,-1.0739,-0.9114,-0.8713,-1.0999,-1.1355,-1.1558,-1.1626,-1.1626,-1.1619,-1.1619,-1.1687,-1.1735,-1.1735,-1.187,-1.1993,-1.2074,-1.221,-1.2325,-1.24,-1.2467,-1.2501,-1.2501,-1.2501,-1.2501,-1.2501,-1.2501,-1.2549,-1.2623,-1.2623,-1.2712,-1.2854,-1.2854,-1.2942,-1.3078,-1.3078,-1.3159,-1.3295,-1.3295,-1.3342,-1.3403,-1.3403,-1.3403,-1.3403,-1.3403,-1.3403,-1.3403,-1.3403,-1.3403,-1.3403,-1.3403,-1.3403,-1.3403,-1.3403,-1.3403,-1.3403,-1.3403,-1.3403,-1.3403,-1.3403,-1.3403,-1.3403,-1.3403,-1.3403,-1.3403,-1.3403,-1.3403,-1.3403,-1.3403,-1.3471,-1.3526,-1.3526,-1.3648,-1.3777,-1.3858,-1.3987,-1.4102,-1.4183,-1.4258,-1.4299,-1.4299,-1.4299,-1.4299,-1.4299,-1.4299,-1.4822,-1.5858,-1.7071,-1.9324,-2.2783,-2.3995,-2.5896,-2.8136,-2.8136,-2.8136,-2.8136,-2.8136,-2.8136,-0.9876,-0.9985,-1.0114,-1.0148,-1.0127,-1.0148,-1.0304,-1.0426,0.0,0.0,0.0,-1.0744,-1.0765,-0.9977,-0.9783,-1.0554,-0.7753,-0.6133,-0.8321,-0.9551,-1.0624,-1.1516,-1.1647,-1.164,-1.1681,-1.1775,-1.1843,-1.1884,-1.2026,-1.2169,-1.2284,-1.2325,-1.2386,-1.2501,-1.2501,-1.2501,-1.2501,-1.2501,-1.2501,-1.2501,-1.2535,-1.2617,-1.2732,-1.2766,-1.2868,-1.301,-1.301,-1.3091,-1.3227,-1.3227,-1.3295,-1.3403,-1.3403,-1.3403,-1.3403,-1.3403,-1.3403,-1.3403,-1.3403,-1.3403,-1.3403,-1.3403,-1.3403,-1.3403,-1.3403,-1.3403,-1.3403,-1.3403,-1.3403,-1.3403,-1.3403,-1.3403,-1.3403,-1.3403,-1.3403,-1.3403,-1.3403,-1.3403,-1.3403,-1.3403,-1.3403,-1.341,-1.3451,-1.3553,-1.3641,-1.3675,-1.3804,-1.3939,-1.4055,-1.4102,-1.417,-1.4285,-1.4299,-1.4299,-1.4299,-1.4299,-1.4299,-1.4299,-1.4299,-1.4299,-1.4299,-1.6034,-1.8113,-2.0356,-2.2611,-2.5032,-2.7448,-2.7968,-2.8136,-2.8136,-2.8136,-2.8136,-1.0032,-1.0148,-1.0297,-1.0426,-1.0365,0.0,-1.035,-1.0397,0.0,-1.0618,0.0,0.0,-1.0672,-0.8018,-0.6906,-1.0137,-0.7709,-0.429,-0.1303,-0.3919,-0.7562,-1.1108,-1.1529,-1.1708,-1.185,-1.1843,-1.1891,-1.2033,-1.2189,-1.2277,-1.2291,-1.2413,-1.2488,-1.2501,-1.2501,-1.2501,-1.2501,-1.2501,-1.2501,-1.2501,-1.2644,-1.2718,-1.2732,-1.2881,-1.3024,-1.3159,-1.3159,-1.3247,-1.3383,-1.3383,-1.339,-1.3403,-1.3403,-1.3403,-1.3403,-1.3403,-1.3403,-1.3403,-1.3403,-1.3403,-1.3403,-1.3403,-1.3403,-1.3403,-1.3403,-1.3403,-1.3403,-1.3403,-1.3403,-1.3403,-1.3403,-1.3403,-1.3403,-1.3403,-1.3403,-1.3403,-1.3403,-1.3403,-1.3403,-1.3403,-1.3403,-1.3444,-1.3587,-1.362,-1.3675,-1.3804,-1.3953,-1.4061,-1.4068,-1.4197,-1.4285,-1.4299,-1.4299,-1.4299,-1.4299,-1.4299,-1.4299,-1.4299,-1.4299,-1.4299,-1.4299,-1.4476,-1.569,-1.7929,-2.0356,-2.2611,-2.5032,-2.7109,-2.8136,-2.8136,-2.8136,-2.8136,-1.0168,-1.0317,-1.0323,-1.0487,-1.0534,0.0,0.0,-1.0545,-1.0022,-0.7789,-0.7393,0.0,0.0,-0.5972,-0.2543,-0.3856,-0.2878,-0.1593,-0.0146,-0.1308,-0.2758,-0.4213,-0.731,-1.0018,-1.173,-1.2026,-1.2142,-1.2196,-1.2338,-1.242,-1.242,-1.2474,-1.2501,-1.2501,-1.2501,-1.2501,-1.2501,-1.2596,-1.2644,-1.2644,-1.2705,-1.2827,-1.301,-1.3064,-1.3173,-1.3315,-1.3315,-1.3349,-1.3403,-1.3403,-1.3403,-1.3403,-1.3403,-1.3403,-1.3403,-1.3403,-1.3403,-1.3403,-1.3403,-1.3403,-1.3403,-1.3403,-1.3403,-1.3403,-1.3403,-1.3403,-1.3403,-1.3403,-1.3403,-1.3403,-1.3403,-1.3403,-1.3403,-1.3403,-1.3403,-1.3403,-1.3403,-1.3403,-1.3431,-1.3526,-1.3546,-1.3587,-1.3736,-1.3844,-1.3926,-1.3973,-1.4116,-1.4211,-1.4211,-1.4265,-1.4299,-1.4299,-1.4299,-1.4299,-1.4299,-1.4299,-1.4299,-1.4299,-1.4299,-1.4299,-1.4299,-1.4299,-1.5337,-1.7763,-1.8627,-2.0183,-2.2611,-2.347,-2.4679,-2.6066,-2.6066,-2.6758,-1.0324,-1.0364,-1.0215,-0.9115,-0.9864,0.0,-1.0645,-0.9819,-0.8051,-0.4426,-0.3636,-0.4487,-0.681,-0.325,0.0,0.0,0.0,0.0,0.0,0.0,0.0,0.0,-0.3237,-0.7269,-1.1722,-1.2196,-1.2318,-1.2352,-1.2447,-1.2501,-1.2501,-1.2501,-1.2501,-1.2501,-1.2549,-1.2576,-1.2576,-1.2725,-1.2827,-1.2868,-1.2868,-1.2976,-1.3173,-1.322,-1.3302,-1.3403,-1.3403,-1.3403,-1.3403,-1.3403,-1.3403,-1.3403,-1.3403,-1.3403,-1.3403,-1.3403,-1.3403,-1.3403,-1.3403,-1.3403,-1.3403,-1.3403,-1.3403,-1.3403,-1.3403,-1.3403,-1.3403,-1.3403,-1.3403,-1.3403,-1.3403,-1.3403,-1.3403,-1.3403,-1.3403,-1.3403,-1.3403,-1.3437,-1.3505,-1.3607,-1.3668,-1.3743,-1.3892,-1.4,-1.4089,-1.4136,-1.4231,-1.4299,-1.4299,-1.4299,-1.4299,-1.4299,-1.4299,-1.4299,-1.4299,-1.4299,-1.4299,-1.4299,-1.434,-1.4346,-1.4299,-1.4299,-1.4992,-1.6721,-1.7471,-1.855,-2.0105,-2.1044,-2.2131,-2.3704,-2.3704,-2.5098,-1.037,-1.0538,-0.9844,-0.6305,-0.8071,-1.0678,-1.0699,-0.7947,-0.4426,-0.0807,0.0,0.0,0.0,0.0,0.0,0.0,0.0,0.0,0.0,0.0,0.0,0.0,0.0,-0.3291,-1.1568,-1.2345,-1.2219,-1.2494,-1.2501,-1.2501,-1.2501,-1.2501,-1.2501,-1.2501,-1.2651,-1.2732,-1.2732,-1.2888,-1.303,-1.3173,-1.3173,-1.3173,-1.318,-1.3336,-1.3403,-1.3403,-1.3403,-1.3403,-1.3403,-1.3403,-1.3403,-1.3403,-1.3403,-1.3403,-1.3403,-1.3403,-1.3403,-1.3403,-1.3403,-1.3403,-1.3403,-1.3403,-1.3403,-1.3403,-1.3403,-1.3403,-1.3403,-1.3403,-1.3403,-1.3403,-1.3403,-1.3403,-1.3403,-1.3403,-1.3403,-1.3403,-1.3403,-1.3519,-1.3627,-1.3634,-1.3749,-1.3892,-1.4048,-1.4075,-1.4129,-1.4278,-1.4299,-1.4299,-1.4299,-1.4299,-1.4299,-1.4299,-1.4299,-1.4299,-1.4299,-1.4299,-1.4306,-1.4306,-1.4434,-1.4448,-1.4306,-1.4306,-1.4306,-1.4306,-1.6726,-1.8051,-1.8051,-2.0355,-2.17,-2.17,-2.17,-2.2956,-1.0511,-0.8839,-0.6715,-0.5633,-0.8081,-1.0699,-1.0705,-0.9875,0.0,0.0,0.0,0.0,0.0,0.0,0.0,0.0,0.0,0.0,0.0,0.0,0.0,0.0,0.0,-0.0906,-0.3531,-0.8987,-1.2501,-1.2535,-1.2515,-1.2501,-1.2501,-1.2522,-1.2576,-1.2657,-1.2732,-1.2807,-1.2895,-1.3037,-1.3132,-1.3173,-1.3281,-1.3336,-1.3336,-1.3376,-1.3403,-1.3403,-1.3403,-1.3403,-1.3403,-1.3403,-1.3403,-1.3403,-1.3403,-1.3403,-1.3403,-1.3403,-1.3403,-1.3403,-1.3403,-1.3403,-1.3403,-1.3403,-1.3403,-1.3403,-1.3403,-1.3403,-1.3403,-1.3403,-1.3403,-1.3403,-1.3403,-1.3403,-1.3403,-1.3403,-1.3403,-1.3431,-1.3539,-1.36,-1.3688,-1.3899,-1.3973,-1.4055,-1.4204,-1.4231,-1.4245,-1.4292,-1.4299,-1.4299,-1.4299,-1.4299,-1.4299,-1.4299,-1.4299,-1.434,-1.4441,-1.4448,-1.4496,-1.4604,-1.4652,-1.4604,-1.4455,-1.455,-1.4611,-1.4611,-1.5369,-1.5745,-1.5745,-1.6506,-1.7607,-1.9213,-1.9213,-2.0459,-1.0605,-0.7121,-0.3222,-0.3222,-0.7009,-1.0732,-1.0657,-0.8455,-0.5192,-0.0835,0.0,0.0,0.0,0.0,0.0,0.0,0.0,0.0,0.0,0.0,0.0,0.0,0.0,0.0,0.0,-0.4512,-0.892,-1.2238,-1.2549,-1.2535,-1.2522,-1.2454,-1.1729,-1.0182,-1.1924,-1.3003,-1.3064,-1.3207,-1.3275,-1.3261,-1.3356,-1.3403,-1.3403,-1.3403,-1.3403,-1.3403,-1.3403,-1.3403,-1.3403,-1.3403,-1.3403,-1.3403,-1.3403,-1.3403,-1.3403,-1.3403,-1.3403,-1.3403,-1.3403,-1.3403,-1.3403,-1.3403,-1.3403,-1.3403,-1.3403,-1.3403,-1.3403,-1.3403,-1.3403,-1.3417,-1.3478,-1.3492,-1.3492,-1.3492,-1.3492,-1.3532,-1.3682,-1.3763,-1.3858,-1.4034,-1.4122,-1.419,-1.4285,-1.4299,-1.4299,-1.4299,-1.4299,-1.4299,-1.4299,-1.4299,-1.4319,-1.438,-1.4387,-1.4441,-1.459,-1.4604,-1.4638,-1.4733,-1.4794,-1.4787,-1.4699,-1.4719,-1.474,-1.474,-1.4801,-1.4835,-1.4835,-1.4889,-1.5647,-1.7094,-1.7094,-1.8359,-1.0658,-0.593,-0.0807,-0.0135,-0.4861,-0.9691,-0.9698,-0.4698,0.0,0.0,0.0,0.0,0.0,0.0,0.0,0.0,0.0,0.0,0.0,0.0,0.0,0.0,0.0,0.0,0.0,0.0,-0.3125,-1.0808,-1.2109,-1.2278,-1.194,-1.2259,-1.0566,-0.639,-0.981,-1.2086,-1.2572,-1.3045,-1.3437,-1.3403,-1.3403,-1.3403,-1.3403,-1.3403,-1.3403,-1.3403,-1.3403,-1.3403,-1.3403,-1.3403,-1.3403,-1.3403,-1.3403,-1.3403,-1.3403,-1.3403,-1.3403,-1.3403,-1.3403,-1.3403,-1.3403,-1.3403,-1.3403,-1.3403,-1.3403,-1.3403,-1.3403,-1.3403,-1.341,-1.3451,-1.3593,-1.3641,-1.3654,-1.3668,-1.3661,-1.3688,-1.3831,-1.3973,-1.4075,-1.4089,-1.4204,-1.4299,-1.4299,-1.4299,-1.4299,-1.4299,-1.4299,-1.4306,-1.4319,-1.4319,-1.4373,-1.4516,-1.4529,-1.459,-1.4746,-1.476,-1.4767,-1.478,-1.4909,-1.4991,-1.4991,-1.4855,-1.478,-1.478,-1.4916,-1.4991,-1.4991,-1.512,-1.5181,-1.5181,-1.5181,-1.6479,-1.0685,-0.9606,-0.7013,-0.1346,-0.1222,-0.2342,-0.2259,-0.1135,0.0,0.0,0.0,0.0,0.0,0.0,0.0,0.0,0.0,0.0,0.0,0.0,0.0,0.0,0.0,0.0,0.0,0.0,-0.0782,-0.25,-0.8783,-1.1047,-0.7773,-1.0713,-1.0655,-0.6374,-0.3946,-0.4468,-0.8015,-1.1576,-1.3451,-1.3437,-1.3417,-1.3403,-1.3403,-1.3403,-1.3403,-1.3403,-1.3403,-1.3403,-1.3403,-1.3403,-1.3403,-1.3403,-1.3403,-1.3403,-1.3403,-1.3403,-1.3403,-1.3403,-1.3403,-1.3403,-1.3403,-1.3403,-1.3403,-1.3403,-1.3403,-1.3403,-1.3403,-1.3403,-1.3485,-1.3587,-1.362,-1.3709,-1.3824,-1.3946,-1.3885,-1.3838,-1.3987,-1.4048,-1.4109,-1.4231,-1.4278,-1.4299,-1.4299,-1.4299,-1.4299,-1.4299,-1.4299,-1.434,-1.4448,-1.4468,-1.4523,-1.4672,-1.4692,-1.4753,-1.4909,-1.4923,-1.497,-1.5079,-1.512,-1.514,-1.514,-1.5106,-1.5086,-1.5086,-1.512,-1.514,-1.514,-1.5167,-1.5181,-1.5181,-1.5181,-1.5556,-0.6468,-0.5524,-0.472,-0.095,0.0,0.0,0.0,0.0,0.0,0.0,0.0,0.0,0.0,0.0,0.0,0.0,0.0,0.0,0.0,0.0,0.0,0.0,0.0,0.0,0.0,0.0,0.0,0.0,-0.4095,-0.7303,-0.9109,-0.7597,-0.5555,-0.3299,-0.1162,-0.1168,-0.3519,-1.009,-1.3318,-1.3451,-1.3431,-1.3417,-1.3403,-1.3403,-1.3403,-1.3403,-1.3403,-1.3403,-1.3403,-1.3403,-1.3403,-1.3403,-1.3403,-1.3403,-1.3403,-1.3403,-1.3403,-1.3403,-1.3403,-1.3403,-1.3403,-1.3403,-1.3403,-1.3403,-1.3403,-1.3451,-1.3512,-1.3512,-1.3614,-1.3749,-1.3824,-1.3899,-1.3987,-1.4143,-1.4061,-1.3994,-1.415,-1.4183,-1.4204,-1.4285,-1.4299,-1.4299,-1.4299,-1.4299,-1.4326,-1.4394,-1.4401,-1.4455,-1.4604,-1.4618,-1.4679,-1.4835,-1.4848,-1.4909,-1.5059,-1.5072,-1.5106,-1.5174,-1.5181,-1.5181,-1.5181,-1.5181,-1.5181,-1.5181,-1.5181,-1.5181,-1.5181,-1.5181,-1.5181,-1.5181,-1.5181,-1.5181,-0.1884,0.0,0.0,0.0,0.0,0.0,0.0,0.0,0.0,0.0,0.0,0.0,0.0,0.0,0.0,0.0,0.0,0.0,0.0,0.0,0.0,0.0,0.0,0.0,0.0,0.0,0.0,0.0,0.0,-0.3043,-1.0003,-0.3768,0.0,0.0,0.0,0.0,0.0,-0.7406,-1.1813,-1.3471,-1.3458,-1.3431,-1.3403,-1.3403,-1.3403,-1.3403,-1.3403,-1.3403,-1.3403,-1.3403,-1.3403,-1.3403,-1.3403,-1.3403,-1.3403,-1.3403,-1.3403,-1.3403,-1.3403,-1.3403,-1.3403,-1.3403,-1.3403,-1.3403,-1.3431,-1.3532,-1.3634,-1.3661,-1.377,-1.3912,-1.4041,-1.4089,-1.4143,-1.4272,-1.4204,-1.4143,-1.4272,-1.4299,-1.4299,-1.4299,-1.4299,-1.4299,-1.4299,-1.4319,-1.4373,-1.4496,-1.4536,-1.4604,-1.476,-1.478,-1.4835,-1.4991,-1.5011,-1.5059,-1.5174,-1.5181,-1.5181,-1.5181,-1.5181,-1.5181,-1.5181,-1.5181,-1.5181,-1.5181,-1.5181,-1.5181,-1.5181,-1.5181,-1.5181,-1.5181,-1.5181,-1.5181,-0.1884,0.0,0.0,0.0,0.0,0.0,0.0,0.0,0.0,0.0,0.0,0.0,0.0,0.0,0.0,0.0,0.0,0.0,0.0,0.0,0.0,0.0,0.0,0.0,0.0,0.0,0.0,0.0,0.0,-0.0484,-0.1645,-0.0661,0.0,0.0,0.0,0.0,0.0,-0.1176,-0.5712,-1.3372,-1.3478,-1.3431,-1.3403,-1.3403,-1.3403,-1.3403,-1.3403,-1.3403,-1.3403,-1.3403,-1.3403,-1.3403,-1.3403,-1.3403,-1.3403,-1.3403,-1.3403,-1.3403,-1.3403,-1.3403,-1.3403,-1.3403,-1.3403,-1.3424,-1.3559,-1.3614,-1.3654,-1.3777,-1.3926,-1.4048,-1.4068,-1.417,-1.4278,-1.4292,-1.4285,-1.4278,-1.4292,-1.4299,-1.4299,-1.4299,-1.4299,-1.4299,-1.4299,-1.4401,-1.4489,-1.4509,-1.4624,-1.4767,-1.4923,-1.4943,-1.4997,-1.514,-1.5153,-1.516,-1.5181,-1.5181,-1.5181,-1.5181,-1.5181,-1.5181,-1.5181,-1.5181,-1.5181,-1.5181,-1.5181,-1.5181,-1.5181,-1.5181,-1.5181,-1.5181,-1.5181,-1.5181,-0.0816,0.0,0.0,0.0,0.0,0.0,0.0,0.0,0.0,0.0,0.0,0.0,0.0,0.0,0.0,0.0,0.0,0.0,0.0,0.0,0.0,0.0,0.0,0.0,0.0,0.0,0.0,0.0,0.0,0.0,0.0,0.0,0.0,0.0,0.0,0.0,0.0,0.0,-0.2016,-0.5885,-1.092,-1.3444,-1.3431,-1.341,-1.3403,-1.3403,-1.3403,-1.3403,-1.3403,-1.3403,-1.3403,-1.3403,-1.3403,-1.3403,-1.3403,-1.3403,-1.3403,-1.3403,-1.3403,-1.3403,-1.3417,-1.3498,-1.3532,-1.3553,-1.3702,-1.381,-1.3892,-1.3953,-1.4082,-1.4197,-1.4197,-1.4251,-1.4299,-1.4299,-1.4299,-1.4299,-1.4299,-1.4299,-1.4299,-1.4299,-1.4367,-1.4421,-1.4421,-1.4543,-1.4665,-1.4753,-1.4828,-1.4923,-1.5072,-1.5086,-1.5113,-1.5174,-1.5181,-1.5181,-1.5181,-1.5181,-1.5181,-1.5181,-1.5181,-1.5181,-1.5181,-1.5181,-1.5181,-1.5181,-1.5181,-1.5181,-1.5181,-1.5181,-1.5181,-1.5181,-1.5181,-1.5181,0.0,0.0,0.0,0.0,0.0,0.0,0.0,0.0,0.0,0.0,0.0,0.0,0.0,0.0,0.0,0.0,0.0,0.0,0.0,0.0,0.0,0.0,0.0,0.0,0.0,0.0,0.0,0.0,0.0,0.0,0.0,0.0,0.0,0.0,0.0,0.0,0.0,0.0,0.0,-0.0168,-0.7877,-1.2266,-1.3451,-1.3417,-1.3403,-1.3403,-1.3403,-1.3403,-1.3403,-1.3403,-1.3403,-1.3403,-1.3403,-1.3403,-1.3403,-1.3403,-1.3403,-1.3403,-1.3403,-1.3424,-1.3478,-1.3593,-1.3654,-1.3709,-1.3858,-1.398,-1.4082,-1.4122,-1.4211,-1.4299,-1.4299,-1.4299,-1.4299,-1.4299,-1.4299,-1.4299,-1.4299,-1.4299,-1.4312,-1.4346,-1.4441,-1.4523,-1.4563,-1.4699,-1.4835,-1.495,-1.5004,-1.5065,-1.5167,-1.5181,-1.5181,-1.5181,-1.5181,-1.5181,-1.5181,-1.5181,-1.5181,-1.5181,-1.5181,-1.5181,-1.5181,-1.5181,-1.5181,-1.5181,-1.5181,-1.5181,-1.5181,-1.5181,-1.5181,-1.5181,-1.5181,-1.5181,0.0,0.0,0.0,0.0,0.0,0.0,0.0,0.0,0.0,0.0,0.0,0.0,0.0,0.0,0.0,0.0,0.0,0.0,0.0,0.0,0.0,0.0,0.0,0.0,0.0,0.0,0.0,0.0,0.0,0.0,0.0,0.0,0.0,0.0,0.0,0.0,0.0,0.0,0.0,-0.0,-0.4858,-0.9221,-1.3451,-1.3417,-1.3403,-1.3403,-1.3403,-1.3403,-1.3403,-1.3403,-1.3403,-1.3403,-1.3403,-1.3403,-1.3403,-1.3403,-1.3403,-1.3403,-1.3403,-1.3498,-1.362,-1.3627,-1.3722,-1.3858,-1.4014,-1.4061,-1.4102,-1.4245,-1.4292,-1.4299,-1.4299,-1.4299,-1.4299,-1.4299,-1.4299,-1.4299,-1.4299,-1.4299,-1.434,-1.4475,-1.4509,-1.4557,-1.4706,-1.4855,-1.4964,-1.497,-1.5086,-1.5174,-1.5181,-1.5181,-1.5181,-1.5181,-1.5181,-1.5181,-1.5181,-1.5181,-1.5181,-1.5181,-1.5181,-1.5181,-1.5181,-1.5181,-1.5181,-1.5181,-1.5181,-1.5181,-1.5181,-1.5181,-1.5181,-1.5181,-1.5181,-1.5181,0.0,0.0,0.0,0.0,0.0,0.0,0.0,0.0,0.0,0.0,0.0,0.0,0.0,0.0,0.0,0.0,0.0,0.0,0.0,0.0,0.0,0.0,0.0,0.0,0.0,0.0,0.0,0.0,0.0,0.0,0.0,0.0,0.0,0.0,0.0,0.0,0.0,0.0,0.0,-0.0,-0.1678,-0.6205,-1.3318,-1.3451,-1.3424,-1.3403,-1.3403,-1.3403,-1.3403,-1.3403,-1.3403,-1.3403,-1.3403,-1.3403,-1.3403,-1.3403,-1.3464,-1.3546,-1.3546,-1.3641,-1.3783,-1.3878,-1.3946,-1.4021,-1.417,-1.4217,-1.4231,-1.4285,-1.4299,-1.4299,-1.4299,-1.4299,-1.4299,-1.4299,-1.4367,-1.4434,-1.4434,-1.4434,-1.4448,-1.4502,-1.4672,-1.4821,-1.4875,-1.5011,-1.5106,-1.5106,-1.5153,-1.5181,-1.5181,-1.5181,-1.5181,-1.5181,-1.5181,-1.5181,-1.5181,-1.5181,-1.5181,-1.5181,-1.5181,-1.5181,-1.5181,-1.5181,-1.5181,-1.5181,-1.5181,-1.5181,-1.5181,-1.5181,-1.5181,-1.5181,-1.5181,-1.5181,0.0,0.0,0.0,0.0,0.0,0.0,0.0,0.0,0.0,0.0,0.0,0.0,0.0,0.0,0.0,0.0,0.0,0.0,0.0,0.0,0.0,0.0,0.0,0.0,0.0,0.0,0.0,0.0,0.0,0.0,0.0,0.0,0.0,0.0,0.0,0.0,0.0,0.0,0.0,0.0,0.0,-0.3186,-0.9077,-1.1945,-1.3451,-1.3417,-1.3417,-1.341,-1.3403,-1.3403,-1.3403,-1.3403,-1.3403,-1.3403,-1.341,-1.3458,-1.3539,-1.3634,-1.3682,-1.3797,-1.3933,-1.4041,-1.4109,-1.4163,-1.4272,-1.4299,-1.4299,-1.4299,-1.4299,-1.4299,-1.4299,-1.4299,-1.4312,-1.436,-1.4441,-1.4523,-1.4577,-1.459,-1.4604,-1.4658,-1.4835,-1.4984,-1.5031,-1.512,-1.5181,-1.5181,-1.5181,-1.5181,-1.5181,-1.5181,-1.5181,-1.5181,-1.5181,-1.5181,-1.5181,-1.5181,-1.5181,-1.5181,-1.5181,-1.5181,-1.5181,-1.5181,-1.5208,-1.5255,-1.5262,-1.5282,-1.5337,-1.5282,-1.5262,-1.5262,-1.5309,-1.5337,0.0,0.0,0.0,0.0,0.0,0.0,0.0,0.0,0.0,0.0,0.0,0.0,0.0,0.0,0.0,0.0,0.0,0.0,0.0,0.0,0.0,0.0,0.0,0.0,0.0,0.0,0.0,0.0,0.0,0.0,0.0,0.0,0.0,0.0,0.0,0.0,0.0,0.0,0.0,0.0,0.0,0.0,-0.0335,-0.9077,-1.3144,-1.3284,-1.3284,-1.3431,-1.3403,-1.3403,-1.3403,-1.3403,-1.3403,-1.341,-1.3424,-1.358,-1.3641,-1.3661,-1.3797,-1.3946,-1.4082,-1.4082,-1.4177,-1.4299,-1.4299,-1.4299,-1.4299,-1.4299,-1.4299,-1.4299,-1.4299,-1.4306,-1.434,-1.4475,-1.4516,-1.4563,-1.4713,-1.4753,-1.4794,-1.4943,-1.4977,-1.5018,-1.516,-1.5181,-1.5181,-1.5181,-1.5181,-1.5181,-1.5181,-1.5181,-1.5181,-1.5181,-1.5181,-1.5181,-1.5181,-1.5181,-1.5181,-1.5181,-1.5181,-1.5181,-1.5187,-1.5187,-1.5262,-1.5411,-1.5418,-1.5493,-1.5642,-1.5493,-1.5418,-1.5418,-1.5567,-1.5642,0.0,0.0,0.0,0.0,0.0,0.0,0.0,0.0,0.0,0.0,0.0,0.0,0.0,0.0,0.0,0.0,0.0,0.0,0.0,0.0,0.0,0.0,0.0,0.0,0.0,0.0,0.0,0.0,0.0,0.0,0.0,0.0,0.0,0.0,0.0,0.0,0.0,0.0,0.0,0.0,0.0,0.0,-0.0168,-0.2515,-0.5533,-0.8716,-1.1926,-1.3444,-1.3437,-1.341,-1.3403,-1.341,-1.3519,-1.3566,-1.3587,-1.3729,-1.3851,-1.3953,-1.3994,-1.4109,-1.4238,-1.4238,-1.4265,-1.4299,-1.4299,-1.4299,-1.4299,-1.4299,-1.4299,-1.4299,-1.4299,-1.4373,-1.4462,-1.4502,-1.4679,-1.4855,-1.4896,-1.4991,-1.5045,-1.4984,-1.5052,-1.514,-1.5174,-1.5181,-1.5181,-1.5181,-1.5181,-1.5181,-1.5181,-1.5181,-1.5181,-1.5181,-1.5181,-1.5181,-1.5181,-1.5181,-1.5181,-1.5181,-1.5181,-1.5228,-1.5343,-1.535,-1.5418,-1.5574,-1.5574,-1.5594,-1.5642,-1.5594,-1.5574,-1.5581,-1.5622,-1.5642,0.0,0.0,0.0,0.0,0.0,0.0,0.0,0.0,0.0,0.0,0.0,0.0,0.0,0.0,0.0,0.0,0.0,0.0,0.0,0.0,0.0,0.0,0.0,0.0,0.0,0.0,0.0,0.0,0.0,0.0,0.0,0.0,0.0,0.0,0.0,0.0,0.0,0.0,0.0,0.0,0.0,0.0,0.0,0.0,-0.151,-0.4189,-1.0597,-1.3512,-1.3546,-1.3526,-1.3512,-1.3505,-1.3593,-1.3668,-1.3736,-1.3885,-1.3994,-1.4082,-1.4143,-1.4224,-1.4299,-1.4299,-1.4299,-1.4299,-1.4299,-1.4299,-1.4299,-1.4299,-1.4299,-1.4312,-1.4373,-1.4448,-1.4543,-1.4672,-1.4841,-1.4984,-1.5045,-1.5126,-1.516,-1.5072,-1.5126,-1.5181,-1.5181,-1.5181,-1.5181,-1.5181,-1.5181,-1.5181,-1.5181,-1.5181,-1.5181,-1.5181,-1.5181,-1.5181,-1.5181,-1.5181,-1.5208,-1.5276,-1.5276,-1.5343,-1.5499,-1.5506,-1.5574,-1.5723,-1.573,-1.5757,-1.5825,-1.5757,-1.5764,-1.5825,-1.5825,-1.5825,0.0,0.0,0.0,0.0,0.0,0.0,0.0,0.0,0.0,0.0,0.0,0.0,0.0,0.0,0.0,0.0,0.0,0.0,0.0,0.0,0.0,0.0,0.0,0.0,0.0,0.0,0.0,0.0,0.0,0.0,0.0,0.0,0.0,0.0,0.0,0.0,0.0,0.0,0.0,0.0,0.0,0.0,0.0,0.0,0.0,-0.0504,-0.8433,-1.2583,-1.3695,-1.3709,-1.3688,-1.3654,-1.3675,-1.3756,-1.3885,-1.4041,-1.4095,-1.4116,-1.4251,-1.4299,-1.4299,-1.4299,-1.4299,-1.4299,-1.4299,-1.4299,-1.4306,-1.4319,-1.4326,-1.4353,-1.4502,-1.455,-1.4631,-1.4903,-1.4984,-1.5031,-1.5153,-1.5181,-1.5181,-1.5181,-1.5181,-1.5181,-1.5181,-1.5181,-1.5181,-1.5181,-1.5181,-1.5181,-1.5181,-1.5181,-1.5181,-1.5181,-1.5181,-1.5187,-1.5208,-1.5208,-1.5276,-1.5425,-1.5438,-1.5506,-1.5655,-1.5662,-1.573,-1.5879,-1.5879,-1.5947,-1.6083,-1.5947,-1.5947,-1.6083,-1.6083,-1.6083,0.0,0.0,0.0,0.0,0.0,0.0,0.0,0.0,0.0,0.0,0.0,0.0,0.0,0.0,0.0,0.0,0.0,0.0,0.0,0.0,0.0,0.0,0.0,0.0,0.0,0.0,0.0,0.0,0.0,0.0,0.0,0.0,0.0,0.0,0.0,0.0,0.0,0.0,0.0,0.0,0.0,0.0,0.0,0.0,0.0,-0.0168,-0.1865,-0.6823,-1.377,-1.37,-1.3693,-1.381,-1.3939,-1.4,-1.4048,-1.4197,-1.4258,-1.4258,-1.4292,-1.4299,-1.4299,-1.4299,-1.4299,-1.4299,-1.4299,-1.4299,-1.4326,-1.4434,-1.4468,-1.4502,-1.4658,-1.4787,-1.4896,-1.4957,-1.5059,-1.5147,-1.5174,-1.5181,-1.5181,-1.5181,-1.5181,-1.5181,-1.5181,-1.5181,-1.5181,-1.5181,-1.5181,-1.5181,-1.5181,-1.5181,-1.5181,-1.5181,-1.5181,-1.5228,-1.5357,-1.5364,-1.5432,-1.5588,-1.5594,-1.5662,-1.5805,-1.5811,-1.5879,-1.6035,-1.6035,-1.6049,-1.6083,-1.6049,-1.6049,-1.6083,-1.6083,-1.6083,0.0,0.0,0.0,0.0,0.0,0.0,0.0,0.0,0.0,0.0,0.0,0.0,0.0,0.0,0.0,0.0,0.0,0.0,0.0,0.0,0.0,0.0,0.0,0.0,0.0,0.0,0.0,0.0,0.0,0.0,0.0,0.0,0.0,0.0,0.0,0.0,0.0,0.0,0.0,0.0,0.0,0.0,0.0,0.0,0.0,0.0,0.0,-0.2579,-0.7302,-1.1929,-1.2493,-1.0724,-1.3029,-1.4129,-1.4197,-1.4272,-1.4299,-1.4299,-1.4299,-1.4299,-1.4299,-1.4299,-1.4299,-1.4299,-1.4299,-1.4346,-1.4421,-1.4489,-1.4563,-1.4658,-1.4814,-1.4909,-1.4991,-1.5059,-1.5133,-1.5181,-1.5181,-1.5181,-1.5181,-1.5181,-1.5181,-1.5181,-1.5181,-1.5181,-1.5181,-1.5181,-1.5181,-1.5181,-1.5181,-1.5181,-1.5215,-1.5289,-1.5296,-1.5357,-1.5513,-1.5527,-1.5588,-1.5737,-1.5744,-1.5811,-1.5961,-1.5967,-1.6001,-1.6083,-1.6083,-1.6083,-1.6083,-1.6083,-1.6083,-1.6083,-1.6083,-1.6083,0.0,0.0,0.0,0.0,0.0,0.0,0.0,0.0,0.0,0.0,0.0,0.0,0.0,0.0,0.0,0.0,0.0,0.0,0.0,0.0,0.0,0.0,0.0,0.0,0.0,0.0,0.0,0.0,0.0,0.0,0.0,0.0,0.0,0.0,0.0,0.0,0.0,0.0,0.0,0.0,0.0,0.0,0.0,0.0,0.0,0.0,0.0,0.0,-0.0529,-0.8148,-0.9623,-0.7502,-1.2243,-1.4224,-1.4306,-1.4299,-1.4299,-1.4299,-1.4299,-1.4299,-1.4299,-1.4299,-1.4299,-1.4306,-1.4333,-1.4421,-1.4523,-1.4584,-1.4692,-1.4821,-1.497,-1.5011,-1.5038,-1.5153,-1.5181,-1.5181,-1.5181,-1.5181,-1.5181,-1.5181,-1.5181,-1.5181,-1.5181,-1.5181,-1.5181,-1.5181,-1.5181,-1.5181,-1.5181,-1.5208,-1.5276,-1.5398,-1.5438,-1.5513,-1.5669,-1.5683,-1.5744,-1.5886,-1.59,-1.5954,-1.6076,-1.6083,-1.6083,-1.6083,-1.6083,-1.6083,-1.6083,-1.6083,-1.6083,-1.6083,-1.6083,-1.6083,0.0,0.0,0.0,0.0,0.0,0.0,0.0,0.0,0.0,0.0,0.0,0.0,0.0,0.0,0.0,0.0,0.0,0.0,0.0,0.0,0.0,0.0,0.0,0.0,0.0,0.0,0.0,0.0,0.0,0.0,0.0,0.0,0.0,0.0,0.0,0.0,0.0,0.0,0.0,0.0,0.0,0.0,0.0,0.0,0.0,0.0,0.0,0.0,-0.0,-0.1071,-0.3762,-0.7527,-1.2355,-1.4333,-1.434,-1.4312,-1.4299,-1.4299,-1.4299,-1.4299,-1.4299,-1.4299,-1.4299,-1.4326,-1.4448,-1.4502,-1.457,-1.4841,-1.493,-1.4977,-1.512,-1.516,-1.516,-1.5181,-1.5181,-1.5181,-1.5181,-1.5181,-1.5181,-1.5181,-1.5181,-1.5181,-1.5181,-1.5181,-1.5181,-1.5181,-1.5181,-1.5181,-1.5181,-1.5303,-1.5391,-1.5411,-1.5533,-1.5669,-1.5818,-1.5825,-1.5893,-1.6049,-1.6056,-1.6062,-1.6083,-1.6083,-1.6083,-1.6083,-1.6083,-1.6083,-1.6083,-1.6083,-1.6083,-1.6083,-1.6083,-1.6083,0.0,0.0,0.0,0.0,0.0,0.0,0.0,0.0,0.0,0.0,0.0,0.0,0.0,0.0,0.0,0.0,0.0,0.0,0.0,0.0,0.0,0.0,0.0,0.0,0.0,0.0,0.0,0.0,0.0,0.0,0.0,0.0,0.0,0.0,0.0,0.0,0.0,0.0,0.0,0.0,0.0,0.0,0.0,0.0,0.0,0.0,0.0,0.0,0.0,0.0,-0.1256,-0.3228,-0.5186,-0.9487,-1.438,-1.434,-1.4326,-1.4326,-1.4306,-1.4299,-1.4299,-1.4299,-1.4353,-1.4434,-1.4496,-1.4638,-1.4808,-1.4936,-1.5031,-1.5106,-1.5167,-1.5181,-1.5181,-1.5181,-1.5181,-1.5181,-1.5181,-1.5181,-1.5181,-1.5181,-1.5181,-1.5181,-1.5181,-1.5181,-1.5181,-1.5181,-1.5255,-1.5316,-1.5316,-1.5452,-1.5574,-1.5655,-1.5723,-1.5825,-1.5974,-1.5988,-1.6015,-1.6076,-1.6083,-1.6083,-1.6083,-1.6083,-1.6083,-1.6083,-1.6083,-1.6083,-1.6083,-1.6083,-1.6083,-1.6083,-1.6083,-1.6083,0.0,0.0,0.0,0.0,0.0,0.0,0.0,0.0,0.0,0.0,0.0,0.0,0.0,0.0,0.0,0.0,0.0,0.0,0.0,0.0,0.0,0.0,0.0,0.0,0.0,0.0,0.0,0.0,0.0,0.0,0.0,0.0,0.0,0.0,0.0,0.0,0.0,0.0,0.0,0.0,0.0,0.0,0.0,0.0,0.0,0.0,0.0,0.0,0.0,0.0,0.0,0.0,0.0,-0.4297,-1.059,-1.1827,-1.3084,-1.4346,-1.4319,-1.4312,-1.4319,-1.436,-1.4441,-1.4543,-1.4611,-1.4794,-1.4977,-1.5018,-1.5106,-1.5181,-1.5181,-1.5181,-1.5181,-1.5181,-1.5181,-1.5181,-1.5181,-1.5181,-1.5181,-1.5181,-1.5181,-1.5194,-1.5242,-1.5208,-1.5194,-1.5242,-1.5337,-1.5425,-1.5466,-1.5601,-1.5737,-1.5845,-1.5893,-1.5961,-1.6076,-1.6083,-1.6083,-1.6083,-1.6083,-1.6083,-1.6083,-1.6083,-1.6083,-1.6083,-1.6083,-1.6083,-1.6083,-1.6083,-1.6083,-1.6083,-1.6083,-1.6083,0.0,0.0,0.0,0.0,0.0,0.0,0.0,0.0,0.0,0.0,0.0,0.0,0.0,0.0,0.0,0.0,0.0,0.0,0.0,0.0,0.0,0.0,0.0,0.0,0.0,0.0,0.0,0.0,0.0,0.0,0.0,0.0,0.0,0.0,0.0,0.0,0.0,0.0,0.0,0.0,0.0,0.0,0.0,0.0,0.0,0.0,0.0,0.0,0.0,0.0,0.0,0.0,0.0,-0.018,-0.1076,-0.5544,-1.0377,-1.4353,-1.4346,-1.4346,-1.4373,-1.4509,-1.4563,-1.4611,-1.4875,-1.4964,-1.4997,-1.514,-1.5181,-1.5181,-1.5181,-1.5181,-1.5181,-1.5181,-1.5181,-1.5181,-1.5181,-1.5181,-1.5181,-1.5181,-1.5181,-1.5228,-1.5377,-1.5282,-1.5235,-1.5377,-1.5404,-1.5466,-1.5615,-1.5757,-1.5845,-1.5852,-1.5988,-1.6076,-1.6083,-1.6083,-1.6083,-1.6083,-1.6083,-1.6083,-1.6083,-1.6083,-1.6083,-1.6083,-1.6083,-1.6083,-1.6083,-1.6083,-1.6083,-1.6083,-1.6083,-1.6083,0.0,0.0,0.0,0.0,0.0,0.0,0.0,0.0,0.0,0.0,0.0,0.0,0.0,0.0,0.0,0.0,0.0,0.0,0.0,0.0,0.0,0.0,0.0,0.0,0.0,0.0,0.0,0.0,0.0,0.0,0.0,0.0,0.0,0.0,0.0,0.0,0.0,0.0,0.0,0.0,0.0,0.0,0.0,0.0,0.0,0.0,0.0,0.0,0.0,0.0,0.0,0.0,0.0,0.0,-0.0179,-0.1789,-0.752,-1.4236,-1.4216,-1.2252,-0.9581,-0.9613,-1.1936,-1.4725,-1.4798,-1.5072,-1.516,-1.5174,-1.5181,-1.5181,-1.5181,-1.5181,-1.5181,-1.5181,-1.5181,-1.5181,-1.5181,-1.5181,-1.5215,-1.5316,-1.5337,-1.5384,-1.5533,-1.552,-1.5499,-1.5554,-1.5642,-1.5723,-1.5778,-1.5913,-1.6001,-1.6001,-1.6049,-1.6083,-1.6083,-1.6083,-1.6083,-1.6083,-1.6083,-1.6083,-1.6083,-1.6083,-1.6083,-1.6083,-1.6083,-1.6083,-1.6083,-1.6083,-1.6083,-1.6083,-1.6083,-1.6083,0.0,0.0,0.0,0.0,0.0,0.0,0.0,0.0,0.0,0.0,0.0,0.0,0.0,0.0,0.0,0.0,0.0,0.0,0.0,0.0,0.0,0.0,0.0,0.0,0.0,0.0,0.0,0.0,0.0,0.0,0.0,0.0,0.0,0.0,0.0,0.0,0.0,0.0,0.0,0.0,0.0,0.0,0.0,0.0,0.0,0.0,0.0,0.0,0.0,0.0,0.0,0.0,0.0,0.0,0.0,0.0,-0.3941,-0.9711,-1.3201,-1.235,-0.9113,-0.5676,-0.6854,-0.9759,-1.1668,-1.3645,-1.5262,-1.5221,-1.5208,-1.5201,-1.5187,-1.5181,-1.5181,-1.5181,-1.5181,-1.5181,-1.5181,-1.5221,-1.5296,-1.5391,-1.5452,-1.554,-1.5689,-1.5716,-1.5716,-1.5716,-1.5791,-1.5872,-1.5927,-1.6022,-1.6083,-1.6083,-1.6083,-1.6083,-1.6083,-1.6083,-1.6083,-1.6083,-1.6083,-1.6083,-1.6083,-1.6083,-1.6056,-1.6001,-1.6056,-1.6056,-1.6001,-1.6056,-1.6083,-1.6083,-1.6083,-1.6083]}]]